<?xml version="1.0" encoding="UTF-8"?>
<gpx version="1.1" creator="https://www.youtrack.es" xsi:schemaLocation="http://www.topografix.com/GPX/1/1 http://www.topografix.com/GPX/1/1/gpx.xsd http://www.garmin.com/xmlschemas/GpxExtensions/v3 http://www.garmin.com/xmlschemas/GpxExtensionsv3.xsd http://www.garmin.com/xmlschemas/TrackPointExtension/v1 http://www.garmin.com/xmlschemas/TrackPointExtensionv1.xsd" xmlns:gpxtpx="http://www.garmin.com/xmlschemas/TrackPointExtension/v1" xmlns:gpxx="http://www.garmin.com/xmlschemas/GpxExtensions/v3" xmlns:xsi="http://www.w3.org/2001/XMLSchema-instance">
  <metadata>
    <link href="https://www.youtrack.es">
      <text>YouTrack.es</text>
    </link>
    <time>2026-05-08T03:00:05Z</time>
  </metadata>
  <trk>
    <src>https://www.youtrack.es</src>
    <link href="https://www.youtrack.es/ruta/21436-calera-cereceda">
      <text>YouTrack.es</text>
    </link>
    <trkseg>
      <trkpt lat="43.2436670" lon="-3.2629820">
        <ele>176.106995</ele>
        <time>2014-07-01T07:36:41.000Z</time>
      </trkpt>
      <trkpt lat="43.2436210" lon="-3.2629980">
        <ele>176.129990</ele>
        <time>2014-07-01T07:36:42.000Z</time>
      </trkpt>
      <trkpt lat="43.2428510" lon="-3.2633320">
        <ele>173.745010</ele>
        <time>2014-07-01T07:37:01.000Z</time>
      </trkpt>
      <trkpt lat="43.2420730" lon="-3.2640350">
        <ele>177.563004</ele>
        <time>2014-07-01T07:37:24.000Z</time>
      </trkpt>
      <trkpt lat="43.2412740" lon="-3.2648610">
        <ele>187.684006</ele>
        <time>2014-07-01T07:37:47.000Z</time>
      </trkpt>
      <trkpt lat="43.2406480" lon="-3.2653970">
        <ele>192.487000</ele>
        <time>2014-07-01T07:38:06.000Z</time>
      </trkpt>
      <trkpt lat="43.2400880" lon="-3.2658040">
        <ele>195.345001</ele>
        <time>2014-07-01T07:38:24.000Z</time>
      </trkpt>
      <trkpt lat="43.2395640" lon="-3.2660170">
        <ele>195.860001</ele>
        <time>2014-07-01T07:38:38.000Z</time>
      </trkpt>
      <trkpt lat="43.2394580" lon="-3.2660760">
        <ele>195.352005</ele>
        <time>2014-07-01T07:38:40.000Z</time>
      </trkpt>
      <trkpt lat="43.2394120" lon="-3.2661250">
        <ele>194.852997</ele>
        <time>2014-07-01T07:38:41.000Z</time>
      </trkpt>
      <trkpt lat="43.2393700" lon="-3.2661800">
        <ele>194.807999</ele>
        <time>2014-07-01T07:38:42.000Z</time>
      </trkpt>
      <trkpt lat="43.2393240" lon="-3.2662330">
        <ele>194.307007</ele>
        <time>2014-07-01T07:38:43.000Z</time>
      </trkpt>
      <trkpt lat="43.2392730" lon="-3.2662790">
        <ele>194.391998</ele>
        <time>2014-07-01T07:38:44.000Z</time>
      </trkpt>
      <trkpt lat="43.2392230" lon="-3.2663130">
        <ele>193.886993</ele>
        <time>2014-07-01T07:38:45.000Z</time>
      </trkpt>
      <trkpt lat="43.2391710" lon="-3.2663330">
        <ele>193.865005</ele>
        <time>2014-07-01T07:38:46.000Z</time>
      </trkpt>
      <trkpt lat="43.2391150" lon="-3.2663410">
        <ele>193.475998</ele>
        <time>2014-07-01T07:38:47.000Z</time>
      </trkpt>
      <trkpt lat="43.2390590" lon="-3.2663440">
        <ele>193.468994</ele>
        <time>2014-07-01T07:38:48.000Z</time>
      </trkpt>
      <trkpt lat="43.2390050" lon="-3.2663430">
        <ele>193.487000</ele>
        <time>2014-07-01T07:38:49.000Z</time>
      </trkpt>
      <trkpt lat="43.2383670" lon="-3.2665550">
        <ele>193.442001</ele>
        <time>2014-07-01T07:39:03.000Z</time>
      </trkpt>
      <trkpt lat="43.2375270" lon="-3.2666570">
        <ele>195.315002</ele>
        <time>2014-07-01T07:39:23.000Z</time>
      </trkpt>
      <trkpt lat="43.2371130" lon="-3.2666820">
        <ele>196.365005</ele>
        <time>2014-07-01T07:39:33.000Z</time>
      </trkpt>
      <trkpt lat="43.2370720" lon="-3.2666770">
        <ele>196.711014</ele>
        <time>2014-07-01T07:39:34.000Z</time>
      </trkpt>
      <trkpt lat="43.2370320" lon="-3.2666680">
        <ele>196.707001</ele>
        <time>2014-07-01T07:39:35.000Z</time>
      </trkpt>
      <trkpt lat="43.2364460" lon="-3.2667290">
        <ele>200.167999</ele>
        <time>2014-07-01T07:39:52.000Z</time>
      </trkpt>
      <trkpt lat="43.2357970" lon="-3.2670680">
        <ele>203.542999</ele>
        <time>2014-07-01T07:40:11.000Z</time>
      </trkpt>
      <trkpt lat="43.2349460" lon="-3.2675430">
        <ele>206.891006</ele>
        <time>2014-07-01T07:40:32.000Z</time>
      </trkpt>
      <trkpt lat="43.2341160" lon="-3.2678980">
        <ele>207.811996</ele>
        <time>2014-07-01T07:40:52.000Z</time>
      </trkpt>
      <trkpt lat="43.2334510" lon="-3.2679520">
        <ele>209.764999</ele>
        <time>2014-07-01T07:41:10.000Z</time>
      </trkpt>
      <trkpt lat="43.2330340" lon="-3.2680680">
        <ele>211.253006</ele>
        <time>2014-07-01T07:41:25.000Z</time>
      </trkpt>
      <trkpt lat="43.2326210" lon="-3.2683490">
        <ele>211.267990</ele>
        <time>2014-07-01T07:41:42.000Z</time>
      </trkpt>
      <trkpt lat="43.2322970" lon="-3.2685760">
        <ele>210.265991</ele>
        <time>2014-07-01T07:41:53.000Z</time>
      </trkpt>
      <trkpt lat="43.2321880" lon="-3.2687170">
        <ele>210.228989</ele>
        <time>2014-07-01T07:41:54.000Z</time>
      </trkpt>
      <trkpt lat="43.2321770" lon="-3.2688770">
        <ele>210.220993</ele>
        <time>2014-07-01T07:41:55.000Z</time>
      </trkpt>
      <trkpt lat="43.2321780" lon="-3.2690490">
        <ele>210.207001</ele>
        <time>2014-07-01T07:41:56.000Z</time>
      </trkpt>
      <trkpt lat="43.2322110" lon="-3.2693620">
        <ele>209.762985</ele>
        <time>2014-07-01T07:41:57.000Z</time>
      </trkpt>
      <trkpt lat="43.2320420" lon="-3.2696720">
        <ele>211.688004</ele>
        <time>2014-07-01T07:42:12.000Z</time>
      </trkpt>
      <trkpt lat="43.2319590" lon="-3.2697210">
        <ele>211.645996</ele>
        <time>2014-07-01T07:42:13.000Z</time>
      </trkpt>
      <trkpt lat="43.2318720" lon="-3.2697540">
        <ele>211.667007</ele>
        <time>2014-07-01T07:42:14.000Z</time>
      </trkpt>
      <trkpt lat="43.2317670" lon="-3.2697560">
        <ele>211.259995</ele>
        <time>2014-07-01T07:42:15.000Z</time>
      </trkpt>
      <trkpt lat="43.2310630" lon="-3.2697110">
        <ele>211.697998</ele>
        <time>2014-07-01T07:42:30.000Z</time>
      </trkpt>
      <trkpt lat="43.2306880" lon="-3.2699250">
        <ele>210.792999</ele>
        <time>2014-07-01T07:42:43.000Z</time>
      </trkpt>
      <trkpt lat="43.2300650" lon="-3.2701770">
        <ele>211.268997</ele>
        <time>2014-07-01T07:42:58.000Z</time>
      </trkpt>
      <trkpt lat="43.2292850" lon="-3.2702250">
        <ele>216.004013</ele>
        <time>2014-07-01T07:43:15.000Z</time>
      </trkpt>
      <trkpt lat="43.2285930" lon="-3.2699770">
        <ele>216.423996</ele>
        <time>2014-07-01T07:43:32.000Z</time>
      </trkpt>
      <trkpt lat="43.2280440" lon="-3.2698380">
        <ele>218.406998</ele>
        <time>2014-07-01T07:43:45.000Z</time>
      </trkpt>
      <trkpt lat="43.2275360" lon="-3.2695620">
        <ele>218.432999</ele>
        <time>2014-07-01T07:44:01.000Z</time>
      </trkpt>
      <trkpt lat="43.2271110" lon="-3.2690700">
        <ele>217.498001</ele>
        <time>2014-07-01T07:44:19.000Z</time>
      </trkpt>
      <trkpt lat="43.2266730" lon="-3.2687170">
        <ele>219.395996</ele>
        <time>2014-07-01T07:44:32.000Z</time>
      </trkpt>
      <trkpt lat="43.2259140" lon="-3.2684240">
        <ele>220.876999</ele>
        <time>2014-07-01T07:44:47.000Z</time>
      </trkpt>
      <trkpt lat="43.2253110" lon="-3.2683870">
        <ele>223.289993</ele>
        <time>2014-07-01T07:45:02.000Z</time>
      </trkpt>
      <trkpt lat="43.2246370" lon="-3.2684740">
        <ele>224.688004</ele>
        <time>2014-07-01T07:45:19.000Z</time>
      </trkpt>
      <trkpt lat="43.2242540" lon="-3.2684080">
        <ele>227.523010</ele>
        <time>2014-07-01T07:45:34.000Z</time>
      </trkpt>
      <trkpt lat="43.2237910" lon="-3.2681170">
        <ele>229.464005</ele>
        <time>2014-07-01T07:45:50.000Z</time>
      </trkpt>
      <trkpt lat="43.2234400" lon="-3.2679200">
        <ele>232.806000</ele>
        <time>2014-07-01T07:46:03.000Z</time>
      </trkpt>
      <trkpt lat="43.2231990" lon="-3.2679830">
        <ele>233.315994</ele>
        <time>2014-07-01T07:46:13.000Z</time>
      </trkpt>
      <trkpt lat="43.2232080" lon="-3.2679910">
        <ele>234.207001</ele>
        <time>2014-07-01T07:46:39.000Z</time>
      </trkpt>
      <trkpt lat="43.2232100" lon="-3.2680040">
        <ele>234.753006</ele>
        <time>2014-07-01T07:47:11.000Z</time>
      </trkpt>
      <trkpt lat="43.2232160" lon="-3.2679930">
        <ele>234.738007</ele>
        <time>2014-07-01T07:47:37.000Z</time>
      </trkpt>
      <trkpt lat="43.2232200" lon="-3.2679840">
        <ele>235.265991</ele>
        <time>2014-07-01T07:48:05.000Z</time>
      </trkpt>
      <trkpt lat="43.2232180" lon="-3.2679710">
        <ele>234.726990</ele>
        <time>2014-07-01T07:48:36.000Z</time>
      </trkpt>
      <trkpt lat="43.2232170" lon="-3.2679710">
        <ele>235.240005</ele>
        <time>2014-07-01T07:49:04.000Z</time>
      </trkpt>
      <trkpt lat="43.2232130" lon="-3.2679860">
        <ele>235.248001</ele>
        <time>2014-07-01T07:49:32.000Z</time>
      </trkpt>
      <trkpt lat="43.2232110" lon="-3.2680000">
        <ele>235.242996</ele>
        <time>2014-07-01T07:49:33.000Z</time>
      </trkpt>
      <trkpt lat="43.2232040" lon="-3.2680130">
        <ele>235.259003</ele>
        <time>2014-07-01T07:49:34.000Z</time>
      </trkpt>
      <trkpt lat="43.2231940" lon="-3.2680280">
        <ele>234.702988</ele>
        <time>2014-07-01T07:49:35.000Z</time>
      </trkpt>
      <trkpt lat="43.2231840" lon="-3.2680420">
        <ele>234.722992</ele>
        <time>2014-07-01T07:49:36.000Z</time>
      </trkpt>
      <trkpt lat="43.2231700" lon="-3.2680600">
        <ele>234.707001</ele>
        <time>2014-07-01T07:49:37.000Z</time>
      </trkpt>
      <trkpt lat="43.2231140" lon="-3.2681520">
        <ele>233.761993</ele>
        <time>2014-07-01T07:49:42.000Z</time>
      </trkpt>
      <trkpt lat="43.2231050" lon="-3.2681790">
        <ele>233.777008</ele>
        <time>2014-07-01T07:49:43.000Z</time>
      </trkpt>
      <trkpt lat="43.2230330" lon="-3.2686470">
        <ele>231.875000</ele>
        <time>2014-07-01T07:49:58.000Z</time>
      </trkpt>
      <trkpt lat="43.2232180" lon="-3.2691420">
        <ele>232.346008</ele>
        <time>2014-07-01T07:50:17.000Z</time>
      </trkpt>
      <trkpt lat="43.2231910" lon="-3.2695860">
        <ele>233.789001</ele>
        <time>2014-07-01T07:50:32.000Z</time>
      </trkpt>
      <trkpt lat="43.2232320" lon="-3.2700490">
        <ele>236.656998</ele>
        <time>2014-07-01T07:50:48.000Z</time>
      </trkpt>
      <trkpt lat="43.2233000" lon="-3.2702430">
        <ele>239.042007</ele>
        <time>2014-07-01T07:50:57.000Z</time>
      </trkpt>
      <trkpt lat="43.2234250" lon="-3.2702520">
        <ele>240.576996</ele>
        <time>2014-07-01T07:51:01.000Z</time>
      </trkpt>
      <trkpt lat="43.2235270" lon="-3.2701290">
        <ele>244.860992</ele>
        <time>2014-07-01T07:51:16.000Z</time>
      </trkpt>
      <trkpt lat="43.2235940" lon="-3.2694170">
        <ele>253.926987</ele>
        <time>2014-07-01T07:51:32.000Z</time>
      </trkpt>
      <trkpt lat="43.2237850" lon="-3.2690470">
        <ele>258.307007</ele>
        <time>2014-07-01T07:51:50.000Z</time>
      </trkpt>
      <trkpt lat="43.2240610" lon="-3.2689850">
        <ele>262.623993</ele>
        <time>2014-07-01T07:52:05.000Z</time>
      </trkpt>
      <trkpt lat="43.2242770" lon="-3.2692260">
        <ele>267.419006</ele>
        <time>2014-07-01T07:52:22.000Z</time>
      </trkpt>
      <trkpt lat="43.2243220" lon="-3.2695890">
        <ele>269.837006</ele>
        <time>2014-07-01T07:52:40.000Z</time>
      </trkpt>
      <trkpt lat="43.2242650" lon="-3.2699640">
        <ele>272.798004</ele>
        <time>2014-07-01T07:52:57.000Z</time>
      </trkpt>
      <trkpt lat="43.2244690" lon="-3.2702380">
        <ele>273.641022</ele>
        <time>2014-07-01T07:53:13.000Z</time>
      </trkpt>
      <trkpt lat="43.2247170" lon="-3.2705160">
        <ele>275.118988</ele>
        <time>2014-07-01T07:53:26.000Z</time>
      </trkpt>
      <trkpt lat="43.2250510" lon="-3.2709070">
        <ele>278.473999</ele>
        <time>2014-07-01T07:53:44.000Z</time>
      </trkpt>
      <trkpt lat="43.2253100" lon="-3.2711540">
        <ele>281.315002</ele>
        <time>2014-07-01T07:54:00.000Z</time>
      </trkpt>
      <trkpt lat="43.2255930" lon="-3.2713250">
        <ele>287.165009</ele>
        <time>2014-07-01T07:54:17.000Z</time>
      </trkpt>
      <trkpt lat="43.2258780" lon="-3.2715800">
        <ele>291.911011</ele>
        <time>2014-07-01T07:54:36.000Z</time>
      </trkpt>
      <trkpt lat="43.2259810" lon="-3.2720880">
        <ele>292.906982</ele>
        <time>2014-07-01T07:54:50.000Z</time>
      </trkpt>
      <trkpt lat="43.2260000" lon="-3.2722170">
        <ele>292.947998</ele>
        <time>2014-07-01T07:54:52.000Z</time>
      </trkpt>
      <trkpt lat="43.2260190" lon="-3.2722710">
        <ele>292.432983</ele>
        <time>2014-07-01T07:54:53.000Z</time>
      </trkpt>
      <trkpt lat="43.2260370" lon="-3.2723170">
        <ele>292.420990</ele>
        <time>2014-07-01T07:54:54.000Z</time>
      </trkpt>
      <trkpt lat="43.2262940" lon="-3.2726790">
        <ele>293.891998</ele>
        <time>2014-07-01T07:55:07.000Z</time>
      </trkpt>
      <trkpt lat="43.2268260" lon="-3.2730970">
        <ele>293.825012</ele>
        <time>2014-07-01T07:55:26.000Z</time>
      </trkpt>
      <trkpt lat="43.2273620" lon="-3.2733730">
        <ele>296.722992</ele>
        <time>2014-07-01T07:55:44.000Z</time>
      </trkpt>
      <trkpt lat="43.2276520" lon="-3.2736860">
        <ele>301.527985</ele>
        <time>2014-07-01T07:56:02.000Z</time>
      </trkpt>
      <trkpt lat="43.2276840" lon="-3.2740530">
        <ele>306.820984</ele>
        <time>2014-07-01T07:56:17.000Z</time>
      </trkpt>
      <trkpt lat="43.2275780" lon="-3.2744700">
        <ele>311.141022</ele>
        <time>2014-07-01T07:56:34.000Z</time>
      </trkpt>
      <trkpt lat="43.2275150" lon="-3.2749020">
        <ele>313.505005</ele>
        <time>2014-07-01T07:56:52.000Z</time>
      </trkpt>
      <trkpt lat="43.2275320" lon="-3.2753140">
        <ele>316.906982</ele>
        <time>2014-07-01T07:57:09.000Z</time>
      </trkpt>
      <trkpt lat="43.2276880" lon="-3.2755820">
        <ele>320.328979</ele>
        <time>2014-07-01T07:57:24.000Z</time>
      </trkpt>
      <trkpt lat="43.2279320" lon="-3.2757070">
        <ele>322.273987</ele>
        <time>2014-07-01T07:57:38.000Z</time>
      </trkpt>
      <trkpt lat="43.2279970" lon="-3.2760400">
        <ele>324.131989</ele>
        <time>2014-07-01T07:57:52.000Z</time>
      </trkpt>
      <trkpt lat="43.2280320" lon="-3.2765300">
        <ele>327.032990</ele>
        <time>2014-07-01T07:58:13.000Z</time>
      </trkpt>
      <trkpt lat="43.2280770" lon="-3.2770300">
        <ele>331.855988</ele>
        <time>2014-07-01T07:58:34.000Z</time>
      </trkpt>
      <trkpt lat="43.2281000" lon="-3.2774560">
        <ele>336.183990</ele>
        <time>2014-07-01T07:58:53.000Z</time>
      </trkpt>
      <trkpt lat="43.2281520" lon="-3.2779450">
        <ele>340.938995</ele>
        <time>2014-07-01T07:59:15.000Z</time>
      </trkpt>
      <trkpt lat="43.2283100" lon="-3.2781820">
        <ele>343.317017</ele>
        <time>2014-07-01T07:59:31.000Z</time>
      </trkpt>
      <trkpt lat="43.2286060" lon="-3.2782680">
        <ele>345.787018</ele>
        <time>2014-07-01T07:59:46.000Z</time>
      </trkpt>
      <trkpt lat="43.2290390" lon="-3.2783610">
        <ele>345.714996</ele>
        <time>2014-07-01T07:59:57.000Z</time>
      </trkpt>
      <trkpt lat="43.2294060" lon="-3.2781560">
        <ele>347.707001</ele>
        <time>2014-07-01T08:00:12.000Z</time>
      </trkpt>
      <trkpt lat="43.2298190" lon="-3.2777500">
        <ele>349.648010</ele>
        <time>2014-07-01T08:00:29.000Z</time>
      </trkpt>
      <trkpt lat="43.2298290" lon="-3.2777270">
        <ele>349.692993</ele>
        <time>2014-07-01T08:00:40.000Z</time>
      </trkpt>
      <trkpt lat="43.2298310" lon="-3.2777320">
        <ele>350.141022</ele>
        <time>2014-07-01T08:01:10.000Z</time>
      </trkpt>
      <trkpt lat="43.2300600" lon="-3.2774190">
        <ele>349.691986</ele>
        <time>2014-07-01T08:01:24.000Z</time>
      </trkpt>
      <trkpt lat="43.2302240" lon="-3.2768760">
        <ele>349.165009</ele>
        <time>2014-07-01T08:01:36.000Z</time>
      </trkpt>
      <trkpt lat="43.2302490" lon="-3.2768130">
        <ele>348.652985</ele>
        <time>2014-07-01T08:01:37.000Z</time>
      </trkpt>
      <trkpt lat="43.2304340" lon="-3.2764260">
        <ele>348.167999</ele>
        <time>2014-07-01T08:01:45.000Z</time>
      </trkpt>
      <trkpt lat="43.2304360" lon="-3.2764120">
        <ele>348.124969</ele>
        <time>2014-07-01T08:01:59.000Z</time>
      </trkpt>
      <trkpt lat="43.2304380" lon="-3.2764200">
        <ele>347.726013</ele>
        <time>2014-07-01T08:02:20.000Z</time>
      </trkpt>
      <trkpt lat="43.2304350" lon="-3.2764230">
        <ele>347.708008</ele>
        <time>2014-07-01T08:03:02.000Z</time>
      </trkpt>
      <trkpt lat="43.2304440" lon="-3.2764280">
        <ele>347.707001</ele>
        <time>2014-07-01T08:03:12.000Z</time>
      </trkpt>
      <trkpt lat="43.2304550" lon="-3.2764170">
        <ele>347.719025</ele>
        <time>2014-07-01T08:03:13.000Z</time>
      </trkpt>
      <trkpt lat="43.2306680" lon="-3.2760690">
        <ele>347.283997</ele>
        <time>2014-07-01T08:03:26.000Z</time>
      </trkpt>
      <trkpt lat="43.2307810" lon="-3.2758550">
        <ele>346.712006</ele>
        <time>2014-07-01T08:03:31.000Z</time>
      </trkpt>
      <trkpt lat="43.2308200" lon="-3.2758020">
        <ele>346.283020</ele>
        <time>2014-07-01T08:03:32.000Z</time>
      </trkpt>
      <trkpt lat="43.2308670" lon="-3.2757500">
        <ele>345.765991</ele>
        <time>2014-07-01T08:03:33.000Z</time>
      </trkpt>
      <trkpt lat="43.2309240" lon="-3.2757070">
        <ele>345.773987</ele>
        <time>2014-07-01T08:03:34.000Z</time>
      </trkpt>
      <trkpt lat="43.2309830" lon="-3.2756740">
        <ele>345.399017</ele>
        <time>2014-07-01T08:03:35.000Z</time>
      </trkpt>
      <trkpt lat="43.2310420" lon="-3.2756490">
        <ele>345.383026</ele>
        <time>2014-07-01T08:03:36.000Z</time>
      </trkpt>
      <trkpt lat="43.2314480" lon="-3.2755300">
        <ele>345.325012</ele>
        <time>2014-07-01T08:03:46.000Z</time>
      </trkpt>
      <trkpt lat="43.2318440" lon="-3.2756280">
        <ele>347.717010</ele>
        <time>2014-07-01T08:04:01.000Z</time>
      </trkpt>
      <trkpt lat="43.2319010" lon="-3.2761060">
        <ele>349.607025</ele>
        <time>2014-07-01T08:04:17.000Z</time>
      </trkpt>
      <trkpt lat="43.2318640" lon="-3.2765940">
        <ele>352.055023</ele>
        <time>2014-07-01T08:04:35.000Z</time>
      </trkpt>
      <trkpt lat="43.2318010" lon="-3.2771030">
        <ele>356.329987</ele>
        <time>2014-07-01T08:04:51.000Z</time>
      </trkpt>
      <trkpt lat="43.2315640" lon="-3.2779340">
        <ele>358.747986</ele>
        <time>2014-07-01T08:05:13.000Z</time>
      </trkpt>
      <trkpt lat="43.2313720" lon="-3.2785110">
        <ele>361.638977</ele>
        <time>2014-07-01T08:05:31.000Z</time>
      </trkpt>
      <trkpt lat="43.2311900" lon="-3.2790740">
        <ele>364.082001</ele>
        <time>2014-07-01T08:05:49.000Z</time>
      </trkpt>
      <trkpt lat="43.2310590" lon="-3.2795170">
        <ele>367.839996</ele>
        <time>2014-07-01T08:06:07.000Z</time>
      </trkpt>
      <trkpt lat="43.2309490" lon="-3.2798750">
        <ele>371.764984</ele>
        <time>2014-07-01T08:06:24.000Z</time>
      </trkpt>
      <trkpt lat="43.2308890" lon="-3.2801090">
        <ele>376.596985</ele>
        <time>2014-07-01T08:06:39.000Z</time>
      </trkpt>
      <trkpt lat="43.2308840" lon="-3.2801260">
        <ele>377.023010</ele>
        <time>2014-07-01T08:06:40.000Z</time>
      </trkpt>
      <trkpt lat="43.2307670" lon="-3.2803930">
        <ele>381.824982</ele>
        <time>2014-07-01T08:06:58.000Z</time>
      </trkpt>
      <trkpt lat="43.2306050" lon="-3.2806750">
        <ele>388.007019</ele>
        <time>2014-07-01T08:07:19.000Z</time>
      </trkpt>
      <trkpt lat="43.2305200" lon="-3.2809520">
        <ele>391.986023</ele>
        <time>2014-07-01T08:07:37.000Z</time>
      </trkpt>
      <trkpt lat="43.2304860" lon="-3.2812150">
        <ele>394.390991</ele>
        <time>2014-07-01T08:07:53.000Z</time>
      </trkpt>
      <trkpt lat="43.2304290" lon="-3.2815420">
        <ele>398.189026</ele>
        <time>2014-07-01T08:08:14.000Z</time>
      </trkpt>
      <trkpt lat="43.2303430" lon="-3.2818450">
        <ele>401.579987</ele>
        <time>2014-07-01T08:08:35.000Z</time>
      </trkpt>
      <trkpt lat="43.2302230" lon="-3.2820960">
        <ele>403.972992</ele>
        <time>2014-07-01T08:08:52.000Z</time>
      </trkpt>
      <trkpt lat="43.2301300" lon="-3.2824020">
        <ele>405.830994</ele>
        <time>2014-07-01T08:09:10.000Z</time>
      </trkpt>
      <trkpt lat="43.2301120" lon="-3.2824590">
        <ele>406.395996</ele>
        <time>2014-07-01T08:09:14.000Z</time>
      </trkpt>
      <trkpt lat="43.2300320" lon="-3.2827540">
        <ele>410.177002</ele>
        <time>2014-07-01T08:09:33.000Z</time>
      </trkpt>
      <trkpt lat="43.2299460" lon="-3.2830260">
        <ele>416.461029</ele>
        <time>2014-07-01T08:09:52.000Z</time>
      </trkpt>
      <trkpt lat="43.2298850" lon="-3.2832680">
        <ele>420.726990</ele>
        <time>2014-07-01T08:10:08.000Z</time>
      </trkpt>
      <trkpt lat="43.2298290" lon="-3.2835490">
        <ele>425.507019</ele>
        <time>2014-07-01T08:10:26.000Z</time>
      </trkpt>
      <trkpt lat="43.2297740" lon="-3.2838400">
        <ele>429.494019</ele>
        <time>2014-07-01T08:10:46.000Z</time>
      </trkpt>
      <trkpt lat="43.2297200" lon="-3.2841560">
        <ele>433.748993</ele>
        <time>2014-07-01T08:11:06.000Z</time>
      </trkpt>
      <trkpt lat="43.2296560" lon="-3.2844980">
        <ele>437.557007</ele>
        <time>2014-07-01T08:11:29.000Z</time>
      </trkpt>
      <trkpt lat="43.2296080" lon="-3.2848060">
        <ele>439.097992</ele>
        <time>2014-07-01T08:11:48.000Z</time>
      </trkpt>
      <trkpt lat="43.2295590" lon="-3.2850740">
        <ele>441.980988</ele>
        <time>2014-07-01T08:12:06.000Z</time>
      </trkpt>
      <trkpt lat="43.2295050" lon="-3.2853670">
        <ele>444.348999</ele>
        <time>2014-07-01T08:12:25.000Z</time>
      </trkpt>
      <trkpt lat="43.2294390" lon="-3.2856750">
        <ele>447.283997</ele>
        <time>2014-07-01T08:12:45.000Z</time>
      </trkpt>
      <trkpt lat="43.2293670" lon="-3.2859820">
        <ele>450.084015</ele>
        <time>2014-07-01T08:13:03.000Z</time>
      </trkpt>
      <trkpt lat="43.2293130" lon="-3.2862650">
        <ele>452.907013</ele>
        <time>2014-07-01T08:13:21.000Z</time>
      </trkpt>
      <trkpt lat="43.2292810" lon="-3.2863490">
        <ele>453.916992</ele>
        <time>2014-07-01T08:13:26.000Z</time>
      </trkpt>
      <trkpt lat="43.2292770" lon="-3.2863680">
        <ele>453.906982</ele>
        <time>2014-07-01T08:13:27.000Z</time>
      </trkpt>
      <trkpt lat="43.2292720" lon="-3.2863850">
        <ele>453.934998</ele>
        <time>2014-07-01T08:13:28.000Z</time>
      </trkpt>
      <trkpt lat="43.2292680" lon="-3.2864020">
        <ele>454.480011</ele>
        <time>2014-07-01T08:13:29.000Z</time>
      </trkpt>
      <trkpt lat="43.2292670" lon="-3.2864180">
        <ele>454.467987</ele>
        <time>2014-07-01T08:13:30.000Z</time>
      </trkpt>
      <trkpt lat="43.2291900" lon="-3.2867250">
        <ele>457.219025</ele>
        <time>2014-07-01T08:13:47.000Z</time>
      </trkpt>
      <trkpt lat="43.2290380" lon="-3.2872450">
        <ele>459.271973</ele>
        <time>2014-07-01T08:14:11.000Z</time>
      </trkpt>
      <trkpt lat="43.2290180" lon="-3.2873490">
        <ele>460.190002</ele>
        <time>2014-07-01T08:14:16.000Z</time>
      </trkpt>
      <trkpt lat="43.2290070" lon="-3.2873670">
        <ele>460.135010</ele>
        <time>2014-07-01T08:14:17.000Z</time>
      </trkpt>
      <trkpt lat="43.2289980" lon="-3.2873840">
        <ele>460.669006</ele>
        <time>2014-07-01T08:14:18.000Z</time>
      </trkpt>
      <trkpt lat="43.2289110" lon="-3.2877640">
        <ele>464.904022</ele>
        <time>2014-07-01T08:14:37.000Z</time>
      </trkpt>
      <trkpt lat="43.2288230" lon="-3.2881010">
        <ele>467.823975</ele>
        <time>2014-07-01T08:14:54.000Z</time>
      </trkpt>
      <trkpt lat="43.2287540" lon="-3.2884090">
        <ele>471.207001</ele>
        <time>2014-07-01T08:15:11.000Z</time>
      </trkpt>
      <trkpt lat="43.2286760" lon="-3.2888190">
        <ele>475.563019</ele>
        <time>2014-07-01T08:15:31.000Z</time>
      </trkpt>
      <trkpt lat="43.2285730" lon="-3.2892250">
        <ele>479.467987</ele>
        <time>2014-07-01T08:15:51.000Z</time>
      </trkpt>
      <trkpt lat="43.2284740" lon="-3.2895990">
        <ele>482.226013</ele>
        <time>2014-07-01T08:16:10.000Z</time>
      </trkpt>
      <trkpt lat="43.2283910" lon="-3.2899740">
        <ele>484.287018</ele>
        <time>2014-07-01T08:16:29.000Z</time>
      </trkpt>
      <trkpt lat="43.2282800" lon="-3.2904100">
        <ele>487.149994</ele>
        <time>2014-07-01T08:16:50.000Z</time>
      </trkpt>
      <trkpt lat="43.2281430" lon="-3.2909030">
        <ele>488.578003</ele>
        <time>2014-07-01T08:17:10.000Z</time>
      </trkpt>
      <trkpt lat="43.2280520" lon="-3.2914000">
        <ele>490.983032</ele>
        <time>2014-07-01T08:17:29.000Z</time>
      </trkpt>
      <trkpt lat="43.2279270" lon="-3.2918020">
        <ele>493.388000</ele>
        <time>2014-07-01T08:17:47.000Z</time>
      </trkpt>
      <trkpt lat="43.2279470" lon="-3.2920810">
        <ele>496.723999</ele>
        <time>2014-07-01T08:18:04.000Z</time>
      </trkpt>
      <trkpt lat="43.2279510" lon="-3.2924480">
        <ele>503.426025</ele>
        <time>2014-07-01T08:18:26.000Z</time>
      </trkpt>
      <trkpt lat="43.2279440" lon="-3.2927550">
        <ele>508.707001</ele>
        <time>2014-07-01T08:18:44.000Z</time>
      </trkpt>
      <trkpt lat="43.2279340" lon="-3.2932010">
        <ele>512.035034</ele>
        <time>2014-07-01T08:19:07.000Z</time>
      </trkpt>
      <trkpt lat="43.2278970" lon="-3.2933750">
        <ele>513.510010</ele>
        <time>2014-07-01T08:19:17.000Z</time>
      </trkpt>
      <trkpt lat="43.2276820" lon="-3.2935020">
        <ele>515.927979</ele>
        <time>2014-07-01T08:19:34.000Z</time>
      </trkpt>
      <trkpt lat="43.2274180" lon="-3.2936680">
        <ele>518.318970</ele>
        <time>2014-07-01T08:19:52.000Z</time>
      </trkpt>
      <trkpt lat="43.2270400" lon="-3.2939780">
        <ele>519.341980</ele>
        <time>2014-07-01T08:20:13.000Z</time>
      </trkpt>
      <trkpt lat="43.2265870" lon="-3.2943450">
        <ele>519.339966</ele>
        <time>2014-07-01T08:20:30.000Z</time>
      </trkpt>
      <trkpt lat="43.2262900" lon="-3.2944510">
        <ele>521.234985</ele>
        <time>2014-07-01T08:20:43.000Z</time>
      </trkpt>
      <trkpt lat="43.2258830" lon="-3.2945020">
        <ele>522.142029</ele>
        <time>2014-07-01T08:20:54.000Z</time>
      </trkpt>
      <trkpt lat="43.2255540" lon="-3.2946430">
        <ele>525.522034</ele>
        <time>2014-07-01T08:21:13.000Z</time>
      </trkpt>
      <trkpt lat="43.2253000" lon="-3.2949180">
        <ele>527.914001</ele>
        <time>2014-07-01T08:21:30.000Z</time>
      </trkpt>
      <trkpt lat="43.2252360" lon="-3.2953290">
        <ele>528.906982</ele>
        <time>2014-07-01T08:21:49.000Z</time>
      </trkpt>
      <trkpt lat="43.2251690" lon="-3.2956100">
        <ele>532.241028</ele>
        <time>2014-07-01T08:22:03.000Z</time>
      </trkpt>
      <trkpt lat="43.2250880" lon="-3.2959270">
        <ele>536.195984</ele>
        <time>2014-07-01T08:22:19.000Z</time>
      </trkpt>
      <trkpt lat="43.2248230" lon="-3.2960970">
        <ele>538.093994</ele>
        <time>2014-07-01T08:22:36.000Z</time>
      </trkpt>
      <trkpt lat="43.2245480" lon="-3.2962040">
        <ele>539.045044</ele>
        <time>2014-07-01T08:22:50.000Z</time>
      </trkpt>
      <trkpt lat="43.2243070" lon="-3.2964590">
        <ele>541.898010</ele>
        <time>2014-07-01T08:23:06.000Z</time>
      </trkpt>
      <trkpt lat="43.2241400" lon="-3.2967090">
        <ele>561.825012</ele>
        <time>2018-12-26T14:59:15.000Z</time>
      </trkpt>
      <trkpt lat="43.2241410" lon="-3.2967780">
        <ele>561.339966</ele>
        <time>2018-12-26T14:59:41.000Z</time>
      </trkpt>
      <trkpt lat="43.2241810" lon="-3.2968310">
        <ele>558.987976</ele>
        <time>2018-12-26T14:59:43.000Z</time>
      </trkpt>
      <trkpt lat="43.2242520" lon="-3.2969030">
        <ele>559.333984</ele>
        <time>2018-12-26T14:59:45.000Z</time>
      </trkpt>
      <trkpt lat="43.2242990" lon="-3.2969450">
        <ele>559.076965</ele>
        <time>2018-12-26T14:59:46.000Z</time>
      </trkpt>
      <trkpt lat="43.2243670" lon="-3.2969950">
        <ele>558.549011</ele>
        <time>2018-12-26T14:59:47.000Z</time>
      </trkpt>
      <trkpt lat="43.2245120" lon="-3.2970810">
        <ele>556.942993</ele>
        <time>2018-12-26T14:59:48.000Z</time>
      </trkpt>
      <trkpt lat="43.2246100" lon="-3.2971270">
        <ele>555.468994</ele>
        <time>2018-12-26T14:59:49.000Z</time>
      </trkpt>
      <trkpt lat="43.2247010" lon="-3.2971510">
        <ele>554.604004</ele>
        <time>2018-12-26T14:59:50.000Z</time>
      </trkpt>
      <trkpt lat="43.2247770" lon="-3.2971940">
        <ele>552.523987</ele>
        <time>2018-12-26T14:59:51.000Z</time>
      </trkpt>
      <trkpt lat="43.2248650" lon="-3.2972500">
        <ele>551.108032</ele>
        <time>2018-12-26T14:59:52.000Z</time>
      </trkpt>
      <trkpt lat="43.2249560" lon="-3.2973160">
        <ele>550.729004</ele>
        <time>2018-12-26T14:59:53.000Z</time>
      </trkpt>
      <trkpt lat="43.2250420" lon="-3.2973810">
        <ele>550.757019</ele>
        <time>2018-12-26T14:59:54.000Z</time>
      </trkpt>
      <trkpt lat="43.2251270" lon="-3.2974410">
        <ele>550.091980</ele>
        <time>2018-12-26T14:59:55.000Z</time>
      </trkpt>
      <trkpt lat="43.2252130" lon="-3.2974850">
        <ele>550.359985</ele>
        <time>2018-12-26T14:59:56.000Z</time>
      </trkpt>
      <trkpt lat="43.2252950" lon="-3.2975110">
        <ele>548.746033</ele>
        <time>2018-12-26T14:59:57.000Z</time>
      </trkpt>
      <trkpt lat="43.2253740" lon="-3.2975260">
        <ele>548.248962</ele>
        <time>2018-12-26T14:59:58.000Z</time>
      </trkpt>
      <trkpt lat="43.2254500" lon="-3.2975440">
        <ele>548.250977</ele>
        <time>2018-12-26T14:59:59.000Z</time>
      </trkpt>
      <trkpt lat="43.2255220" lon="-3.2975770">
        <ele>547.565002</ele>
        <time>2018-12-26T15:00:00.000Z</time>
      </trkpt>
      <trkpt lat="43.2255940" lon="-3.2975970">
        <ele>548.275024</ele>
        <time>2018-12-26T15:00:01.000Z</time>
      </trkpt>
      <trkpt lat="43.2256640" lon="-3.2976050">
        <ele>547.528015</ele>
        <time>2018-12-26T15:00:02.000Z</time>
      </trkpt>
      <trkpt lat="43.2257380" lon="-3.2976090">
        <ele>547.119995</ele>
        <time>2018-12-26T15:00:03.000Z</time>
      </trkpt>
      <trkpt lat="43.2258060" lon="-3.2976140">
        <ele>547.307983</ele>
        <time>2018-12-26T15:00:04.000Z</time>
      </trkpt>
      <trkpt lat="43.2258720" lon="-3.2976060">
        <ele>547.690002</ele>
        <time>2018-12-26T15:00:05.000Z</time>
      </trkpt>
      <trkpt lat="43.2259380" lon="-3.2975920">
        <ele>547.518005</ele>
        <time>2018-12-26T15:00:06.000Z</time>
      </trkpt>
      <trkpt lat="43.2259940" lon="-3.2975720">
        <ele>546.132996</ele>
        <time>2018-12-26T15:00:07.000Z</time>
      </trkpt>
      <trkpt lat="43.2260510" lon="-3.2975420">
        <ele>545.161011</ele>
        <time>2018-12-26T15:00:08.000Z</time>
      </trkpt>
      <trkpt lat="43.2261070" lon="-3.2975120">
        <ele>543.796997</ele>
        <time>2018-12-26T15:00:09.000Z</time>
      </trkpt>
      <trkpt lat="43.2261560" lon="-3.2974730">
        <ele>543.080017</ele>
        <time>2018-12-26T15:00:10.000Z</time>
      </trkpt>
      <trkpt lat="43.2262030" lon="-3.2974300">
        <ele>542.411987</ele>
        <time>2018-12-26T15:00:11.000Z</time>
      </trkpt>
      <trkpt lat="43.2262550" lon="-3.2973960">
        <ele>542.966003</ele>
        <time>2018-12-26T15:00:12.000Z</time>
      </trkpt>
      <trkpt lat="43.2263210" lon="-3.2973700">
        <ele>542.749023</ele>
        <time>2018-12-26T15:00:13.000Z</time>
      </trkpt>
      <trkpt lat="43.2263930" lon="-3.2973520">
        <ele>540.902039</ele>
        <time>2018-12-26T15:00:14.000Z</time>
      </trkpt>
      <trkpt lat="43.2264730" lon="-3.2973620">
        <ele>540.021973</ele>
        <time>2018-12-26T15:00:15.000Z</time>
      </trkpt>
      <trkpt lat="43.2265610" lon="-3.2974030">
        <ele>540.007996</ele>
        <time>2018-12-26T15:00:16.000Z</time>
      </trkpt>
      <trkpt lat="43.2266640" lon="-3.2974350">
        <ele>540.497009</ele>
        <time>2018-12-26T15:00:17.000Z</time>
      </trkpt>
      <trkpt lat="43.2267620" lon="-3.2974650">
        <ele>539.895020</ele>
        <time>2018-12-26T15:00:18.000Z</time>
      </trkpt>
      <trkpt lat="43.2268500" lon="-3.2974960">
        <ele>538.770020</ele>
        <time>2018-12-26T15:00:19.000Z</time>
      </trkpt>
      <trkpt lat="43.2269380" lon="-3.2975210">
        <ele>537.638000</ele>
        <time>2018-12-26T15:00:20.000Z</time>
      </trkpt>
      <trkpt lat="43.2270250" lon="-3.2975380">
        <ele>537.573975</ele>
        <time>2018-12-26T15:00:21.000Z</time>
      </trkpt>
      <trkpt lat="43.2271070" lon="-3.2975500">
        <ele>537.197021</ele>
        <time>2018-12-26T15:00:22.000Z</time>
      </trkpt>
      <trkpt lat="43.2271930" lon="-3.2975550">
        <ele>537.348999</ele>
        <time>2018-12-26T15:00:23.000Z</time>
      </trkpt>
      <trkpt lat="43.2272750" lon="-3.2975450">
        <ele>537.442993</ele>
        <time>2018-12-26T15:00:24.000Z</time>
      </trkpt>
      <trkpt lat="43.2273500" lon="-3.2975380">
        <ele>534.993958</ele>
        <time>2018-12-26T15:00:25.000Z</time>
      </trkpt>
      <trkpt lat="43.2274270" lon="-3.2975330">
        <ele>535.856995</ele>
        <time>2018-12-26T15:00:26.000Z</time>
      </trkpt>
      <trkpt lat="43.2275230" lon="-3.2975260">
        <ele>535.322021</ele>
        <time>2018-12-26T15:00:27.000Z</time>
      </trkpt>
      <trkpt lat="43.2276280" lon="-3.2975190">
        <ele>534.208008</ele>
        <time>2018-12-26T15:00:28.000Z</time>
      </trkpt>
      <trkpt lat="43.2277280" lon="-3.2975270">
        <ele>533.461975</ele>
        <time>2018-12-26T15:00:29.000Z</time>
      </trkpt>
      <trkpt lat="43.2278200" lon="-3.2975380">
        <ele>533.859985</ele>
        <time>2018-12-26T15:00:30.000Z</time>
      </trkpt>
      <trkpt lat="43.2279170" lon="-3.2975730">
        <ele>533.395020</ele>
        <time>2018-12-26T15:00:31.000Z</time>
      </trkpt>
      <trkpt lat="43.2280000" lon="-3.2976080">
        <ele>534.312988</ele>
        <time>2018-12-26T15:00:32.000Z</time>
      </trkpt>
      <trkpt lat="43.2280770" lon="-3.2976410">
        <ele>533.869019</ele>
        <time>2018-12-26T15:00:33.000Z</time>
      </trkpt>
      <trkpt lat="43.2281450" lon="-3.2976710">
        <ele>533.952026</ele>
        <time>2018-12-26T15:00:34.000Z</time>
      </trkpt>
      <trkpt lat="43.2281990" lon="-3.2976880">
        <ele>534.684021</ele>
        <time>2018-12-26T15:00:35.000Z</time>
      </trkpt>
      <trkpt lat="43.2282440" lon="-3.2977120">
        <ele>535.078003</ele>
        <time>2018-12-26T15:00:36.000Z</time>
      </trkpt>
      <trkpt lat="43.2282940" lon="-3.2977440">
        <ele>535.416016</ele>
        <time>2018-12-26T15:00:38.000Z</time>
      </trkpt>
      <trkpt lat="43.2283450" lon="-3.2977780">
        <ele>534.676025</ele>
        <time>2018-12-26T15:00:40.000Z</time>
      </trkpt>
      <trkpt lat="43.2283960" lon="-3.2978210">
        <ele>534.912964</ele>
        <time>2018-12-26T15:00:42.000Z</time>
      </trkpt>
      <trkpt lat="43.2285210" lon="-3.2978580">
        <ele>533.208008</ele>
        <time>2018-12-26T15:00:44.000Z</time>
      </trkpt>
      <trkpt lat="43.2285880" lon="-3.2978840">
        <ele>533.984009</ele>
        <time>2018-12-26T15:00:46.000Z</time>
      </trkpt>
      <trkpt lat="43.2286700" lon="-3.2978560">
        <ele>532.951965</ele>
        <time>2018-12-26T15:00:48.000Z</time>
      </trkpt>
      <trkpt lat="43.2287310" lon="-3.2978460">
        <ele>533.437012</ele>
        <time>2018-12-26T15:00:50.000Z</time>
      </trkpt>
      <trkpt lat="43.2288180" lon="-3.2978290">
        <ele>532.085022</ele>
        <time>2018-12-26T15:00:52.000Z</time>
      </trkpt>
      <trkpt lat="43.2288700" lon="-3.2978140">
        <ele>531.781006</ele>
        <time>2018-12-26T15:00:53.000Z</time>
      </trkpt>
      <trkpt lat="43.2289340" lon="-3.2978040">
        <ele>530.713989</ele>
        <time>2018-12-26T15:00:54.000Z</time>
      </trkpt>
      <trkpt lat="43.2290050" lon="-3.2978000">
        <ele>529.536011</ele>
        <time>2018-12-26T15:00:55.000Z</time>
      </trkpt>
      <trkpt lat="43.2290740" lon="-3.2978020">
        <ele>527.820007</ele>
        <time>2018-12-26T15:00:56.000Z</time>
      </trkpt>
      <trkpt lat="43.2291470" lon="-3.2978060">
        <ele>526.643005</ele>
        <time>2018-12-26T15:00:57.000Z</time>
      </trkpt>
      <trkpt lat="43.2292100" lon="-3.2978080">
        <ele>526.064026</ele>
        <time>2018-12-26T15:00:58.000Z</time>
      </trkpt>
      <trkpt lat="43.2292780" lon="-3.2978050">
        <ele>525.109985</ele>
        <time>2018-12-26T15:00:59.000Z</time>
      </trkpt>
      <trkpt lat="43.2293520" lon="-3.2977910">
        <ele>524.507996</ele>
        <time>2018-12-26T15:01:00.000Z</time>
      </trkpt>
      <trkpt lat="43.2294390" lon="-3.2977720">
        <ele>523.356995</ele>
        <time>2018-12-26T15:01:01.000Z</time>
      </trkpt>
      <trkpt lat="43.2295490" lon="-3.2977390">
        <ele>523.025024</ele>
        <time>2018-12-26T15:01:02.000Z</time>
      </trkpt>
      <trkpt lat="43.2296640" lon="-3.2977060">
        <ele>522.030029</ele>
        <time>2018-12-26T15:01:03.000Z</time>
      </trkpt>
      <trkpt lat="43.2297910" lon="-3.2976670">
        <ele>520.857971</ele>
        <time>2018-12-26T15:01:04.000Z</time>
      </trkpt>
      <trkpt lat="43.2299110" lon="-3.2976180">
        <ele>519.554016</ele>
        <time>2018-12-26T15:01:05.000Z</time>
      </trkpt>
      <trkpt lat="43.2300240" lon="-3.2975660">
        <ele>516.867004</ele>
        <time>2018-12-26T15:01:06.000Z</time>
      </trkpt>
      <trkpt lat="43.2301320" lon="-3.2975160">
        <ele>515.049011</ele>
        <time>2018-12-26T15:01:07.000Z</time>
      </trkpt>
      <trkpt lat="43.2302290" lon="-3.2974630">
        <ele>512.922974</ele>
        <time>2018-12-26T15:01:08.000Z</time>
      </trkpt>
      <trkpt lat="43.2303330" lon="-3.2974240">
        <ele>510.446991</ele>
        <time>2018-12-26T15:01:09.000Z</time>
      </trkpt>
      <trkpt lat="43.2304370" lon="-3.2973810">
        <ele>509.128998</ele>
        <time>2018-12-26T15:01:10.000Z</time>
      </trkpt>
      <trkpt lat="43.2305480" lon="-3.2973290">
        <ele>509.121002</ele>
        <time>2018-12-26T15:01:11.000Z</time>
      </trkpt>
      <trkpt lat="43.2306470" lon="-3.2972490">
        <ele>505.808014</ele>
        <time>2018-12-26T15:01:12.000Z</time>
      </trkpt>
      <trkpt lat="43.2307280" lon="-3.2971640">
        <ele>504.296997</ele>
        <time>2018-12-26T15:01:13.000Z</time>
      </trkpt>
      <trkpt lat="43.2307950" lon="-3.2970890">
        <ele>500.964996</ele>
        <time>2018-12-26T15:01:14.000Z</time>
      </trkpt>
      <trkpt lat="43.2308560" lon="-3.2970210">
        <ele>497.869995</ele>
        <time>2018-12-26T15:01:15.000Z</time>
      </trkpt>
      <trkpt lat="43.2309050" lon="-3.2969460">
        <ele>498.178009</ele>
        <time>2018-12-26T15:01:16.000Z</time>
      </trkpt>
      <trkpt lat="43.2309500" lon="-3.2968590">
        <ele>497.054016</ele>
        <time>2018-12-26T15:01:17.000Z</time>
      </trkpt>
      <trkpt lat="43.2309880" lon="-3.2967830">
        <ele>496.217010</ele>
        <time>2018-12-26T15:01:18.000Z</time>
      </trkpt>
      <trkpt lat="43.2310330" lon="-3.2967290">
        <ele>494.029022</ele>
        <time>2018-12-26T15:01:19.000Z</time>
      </trkpt>
      <trkpt lat="43.2310920" lon="-3.2966830">
        <ele>493.843018</ele>
        <time>2018-12-26T15:01:20.000Z</time>
      </trkpt>
      <trkpt lat="43.2311580" lon="-3.2966060">
        <ele>492.312012</ele>
        <time>2018-12-26T15:01:21.000Z</time>
      </trkpt>
      <trkpt lat="43.2312280" lon="-3.2965260">
        <ele>491.331970</ele>
        <time>2018-12-26T15:01:22.000Z</time>
      </trkpt>
      <trkpt lat="43.2312900" lon="-3.2964520">
        <ele>489.605011</ele>
        <time>2018-12-26T15:01:23.000Z</time>
      </trkpt>
      <trkpt lat="43.2313350" lon="-3.2963980">
        <ele>486.708008</ele>
        <time>2018-12-26T15:01:24.000Z</time>
      </trkpt>
      <trkpt lat="43.2314040" lon="-3.2963280">
        <ele>484.313995</ele>
        <time>2018-12-26T15:01:26.000Z</time>
      </trkpt>
      <trkpt lat="43.2314400" lon="-3.2962780">
        <ele>484.992004</ele>
        <time>2018-12-26T15:01:27.000Z</time>
      </trkpt>
      <trkpt lat="43.2315050" lon="-3.2962180">
        <ele>482.876984</ele>
        <time>2018-12-26T15:01:29.000Z</time>
      </trkpt>
      <trkpt lat="43.2315440" lon="-3.2961840">
        <ele>482.084991</ele>
        <time>2018-12-26T15:01:31.000Z</time>
      </trkpt>
      <trkpt lat="43.2315920" lon="-3.2961460">
        <ele>480.311005</ele>
        <time>2018-12-26T15:01:33.000Z</time>
      </trkpt>
      <trkpt lat="43.2316430" lon="-3.2961100">
        <ele>479.374023</ele>
        <time>2018-12-26T15:01:36.000Z</time>
      </trkpt>
      <trkpt lat="43.2316690" lon="-3.2960500">
        <ele>478.915985</ele>
        <time>2018-12-26T15:01:56.000Z</time>
      </trkpt>
      <trkpt lat="43.2317290" lon="-3.2959900">
        <ele>477.510010</ele>
        <time>2018-12-26T15:01:59.000Z</time>
      </trkpt>
      <trkpt lat="43.2317750" lon="-3.2959490">
        <ele>476.273987</ele>
        <time>2018-12-26T15:02:01.000Z</time>
      </trkpt>
      <trkpt lat="43.2318480" lon="-3.2958590">
        <ele>473.355988</ele>
        <time>2018-12-26T15:02:03.000Z</time>
      </trkpt>
      <trkpt lat="43.2319390" lon="-3.2957500">
        <ele>471.421021</ele>
        <time>2018-12-26T15:02:04.000Z</time>
      </trkpt>
      <trkpt lat="43.2320090" lon="-3.2956700">
        <ele>470.408020</ele>
        <time>2018-12-26T15:02:05.000Z</time>
      </trkpt>
      <trkpt lat="43.2320900" lon="-3.2955740">
        <ele>470.130005</ele>
        <time>2018-12-26T15:02:06.000Z</time>
      </trkpt>
      <trkpt lat="43.2321820" lon="-3.2954750">
        <ele>469.028015</ele>
        <time>2018-12-26T15:02:07.000Z</time>
      </trkpt>
      <trkpt lat="43.2322780" lon="-3.2953700">
        <ele>466.672974</ele>
        <time>2018-12-26T15:02:08.000Z</time>
      </trkpt>
      <trkpt lat="43.2323680" lon="-3.2952640">
        <ele>463.580994</ele>
        <time>2018-12-26T15:02:09.000Z</time>
      </trkpt>
      <trkpt lat="43.2324560" lon="-3.2951650">
        <ele>464.397003</ele>
        <time>2018-12-26T15:02:10.000Z</time>
      </trkpt>
      <trkpt lat="43.2325500" lon="-3.2950800">
        <ele>463.729980</ele>
        <time>2018-12-26T15:02:11.000Z</time>
      </trkpt>
      <trkpt lat="43.2326420" lon="-3.2950210">
        <ele>462.641998</ele>
        <time>2018-12-26T15:02:12.000Z</time>
      </trkpt>
      <trkpt lat="43.2327260" lon="-3.2949760">
        <ele>462.236023</ele>
        <time>2018-12-26T15:02:13.000Z</time>
      </trkpt>
      <trkpt lat="43.2328040" lon="-3.2949390">
        <ele>459.873993</ele>
        <time>2018-12-26T15:02:14.000Z</time>
      </trkpt>
      <trkpt lat="43.2328710" lon="-3.2949370">
        <ele>461.056000</ele>
        <time>2018-12-26T15:02:15.000Z</time>
      </trkpt>
      <trkpt lat="43.2329260" lon="-3.2949500">
        <ele>461.921021</ele>
        <time>2018-12-26T15:02:16.000Z</time>
      </trkpt>
      <trkpt lat="43.2329740" lon="-3.2949700">
        <ele>462.908020</ele>
        <time>2018-12-26T15:02:17.000Z</time>
      </trkpt>
      <trkpt lat="43.2330550" lon="-3.2950110">
        <ele>463.980011</ele>
        <time>2018-12-26T15:02:19.000Z</time>
      </trkpt>
      <trkpt lat="43.2331060" lon="-3.2950340">
        <ele>465.178009</ele>
        <time>2018-12-26T15:02:20.000Z</time>
      </trkpt>
      <trkpt lat="43.2331490" lon="-3.2950510">
        <ele>465.853027</ele>
        <time>2018-12-26T15:02:21.000Z</time>
      </trkpt>
      <trkpt lat="43.2332200" lon="-3.2950710">
        <ele>467.381012</ele>
        <time>2018-12-26T15:02:23.000Z</time>
      </trkpt>
      <trkpt lat="43.2332740" lon="-3.2951040">
        <ele>468.966980</ele>
        <time>2018-12-26T15:02:26.000Z</time>
      </trkpt>
      <trkpt lat="43.2333190" lon="-3.2951270">
        <ele>470.480011</ele>
        <time>2018-12-26T15:02:28.000Z</time>
      </trkpt>
      <trkpt lat="43.2333980" lon="-3.2951480">
        <ele>471.431976</ele>
        <time>2018-12-26T15:02:30.000Z</time>
      </trkpt>
      <trkpt lat="43.2334700" lon="-3.2951510">
        <ele>472.556000</ele>
        <time>2018-12-26T15:02:32.000Z</time>
      </trkpt>
      <trkpt lat="43.2335280" lon="-3.2951500">
        <ele>473.397003</ele>
        <time>2018-12-26T15:02:34.000Z</time>
      </trkpt>
      <trkpt lat="43.2335790" lon="-3.2951500">
        <ele>474.222992</ele>
        <time>2018-12-26T15:02:36.000Z</time>
      </trkpt>
      <trkpt lat="43.2336270" lon="-3.2951460">
        <ele>474.324982</ele>
        <time>2018-12-26T15:02:57.000Z</time>
      </trkpt>
      <trkpt lat="43.2336780" lon="-3.2951530">
        <ele>475.208008</ele>
        <time>2018-12-26T15:03:01.000Z</time>
      </trkpt>
      <trkpt lat="43.2337320" lon="-3.2951750">
        <ele>475.522003</ele>
        <time>2018-12-26T15:03:04.000Z</time>
      </trkpt>
      <trkpt lat="43.2338000" lon="-3.2951770">
        <ele>475.729980</ele>
        <time>2018-12-26T15:03:07.000Z</time>
      </trkpt>
      <trkpt lat="43.2338700" lon="-3.2951760">
        <ele>476.015015</ele>
        <time>2018-12-26T15:03:10.000Z</time>
      </trkpt>
      <trkpt lat="43.2339210" lon="-3.2951670">
        <ele>476.432983</ele>
        <time>2018-12-26T15:03:13.000Z</time>
      </trkpt>
      <trkpt lat="43.2339750" lon="-3.2951680">
        <ele>476.289001</ele>
        <time>2018-12-26T15:03:16.000Z</time>
      </trkpt>
      <trkpt lat="43.2340420" lon="-3.2951750">
        <ele>476.492004</ele>
        <time>2018-12-26T15:03:19.000Z</time>
      </trkpt>
      <trkpt lat="43.2340980" lon="-3.2951690">
        <ele>476.283997</ele>
        <time>2018-12-26T15:03:21.000Z</time>
      </trkpt>
      <trkpt lat="43.2341580" lon="-3.2951630">
        <ele>475.527985</ele>
        <time>2018-12-26T15:03:23.000Z</time>
      </trkpt>
      <trkpt lat="43.2342310" lon="-3.2951430">
        <ele>475.742004</ele>
        <time>2018-12-26T15:03:25.000Z</time>
      </trkpt>
      <trkpt lat="43.2342770" lon="-3.2951160">
        <ele>475.021973</ele>
        <time>2018-12-26T15:03:26.000Z</time>
      </trkpt>
      <trkpt lat="43.2343350" lon="-3.2950740">
        <ele>474.213989</ele>
        <time>2018-12-26T15:03:27.000Z</time>
      </trkpt>
      <trkpt lat="43.2344590" lon="-3.2949400">
        <ele>473.807983</ele>
        <time>2018-12-26T15:03:28.000Z</time>
      </trkpt>
      <trkpt lat="43.2345240" lon="-3.2948670">
        <ele>473.226990</ele>
        <time>2018-12-26T15:03:29.000Z</time>
      </trkpt>
      <trkpt lat="43.2345850" lon="-3.2947910">
        <ele>472.395020</ele>
        <time>2018-12-26T15:03:30.000Z</time>
      </trkpt>
      <trkpt lat="43.2346420" lon="-3.2947220">
        <ele>471.550018</ele>
        <time>2018-12-26T15:03:31.000Z</time>
      </trkpt>
      <trkpt lat="43.2347010" lon="-3.2946530">
        <ele>470.717987</ele>
        <time>2018-12-26T15:03:32.000Z</time>
      </trkpt>
      <trkpt lat="43.2347670" lon="-3.2945810">
        <ele>470.093994</ele>
        <time>2018-12-26T15:03:33.000Z</time>
      </trkpt>
      <trkpt lat="43.2348370" lon="-3.2945070">
        <ele>468.617004</ele>
        <time>2018-12-26T15:03:34.000Z</time>
      </trkpt>
      <trkpt lat="43.2349060" lon="-3.2944330">
        <ele>467.248993</ele>
        <time>2018-12-26T15:03:35.000Z</time>
      </trkpt>
      <trkpt lat="43.2349750" lon="-3.2943620">
        <ele>466.153015</ele>
        <time>2018-12-26T15:03:36.000Z</time>
      </trkpt>
      <trkpt lat="43.2350490" lon="-3.2942820">
        <ele>465.748016</ele>
        <time>2018-12-26T15:03:37.000Z</time>
      </trkpt>
      <trkpt lat="43.2351280" lon="-3.2942020">
        <ele>465.761017</ele>
        <time>2018-12-26T15:03:38.000Z</time>
      </trkpt>
      <trkpt lat="43.2352180" lon="-3.2941430">
        <ele>465.816986</ele>
        <time>2018-12-26T15:03:39.000Z</time>
      </trkpt>
      <trkpt lat="43.2353200" lon="-3.2941090">
        <ele>464.807983</ele>
        <time>2018-12-26T15:03:40.000Z</time>
      </trkpt>
      <trkpt lat="43.2354320" lon="-3.2940930">
        <ele>462.886993</ele>
        <time>2018-12-26T15:03:41.000Z</time>
      </trkpt>
      <trkpt lat="43.2355450" lon="-3.2940770">
        <ele>463.855011</ele>
        <time>2018-12-26T15:03:42.000Z</time>
      </trkpt>
      <trkpt lat="43.2356580" lon="-3.2940660">
        <ele>462.630005</ele>
        <time>2018-12-26T15:03:43.000Z</time>
      </trkpt>
      <trkpt lat="43.2357640" lon="-3.2940470">
        <ele>461.238007</ele>
        <time>2018-12-26T15:03:44.000Z</time>
      </trkpt>
      <trkpt lat="43.2358610" lon="-3.2940280">
        <ele>460.714020</ele>
        <time>2018-12-26T15:03:45.000Z</time>
      </trkpt>
      <trkpt lat="43.2359530" lon="-3.2940120">
        <ele>459.837006</ele>
        <time>2018-12-26T15:03:46.000Z</time>
      </trkpt>
      <trkpt lat="43.2360460" lon="-3.2940110">
        <ele>460.049011</ele>
        <time>2018-12-26T15:03:47.000Z</time>
      </trkpt>
      <trkpt lat="43.2361410" lon="-3.2940060">
        <ele>460.413025</ele>
        <time>2018-12-26T15:03:48.000Z</time>
      </trkpt>
      <trkpt lat="43.2362360" lon="-3.2940030">
        <ele>460.018982</ele>
        <time>2018-12-26T15:03:49.000Z</time>
      </trkpt>
      <trkpt lat="43.2363250" lon="-3.2939920">
        <ele>459.408997</ele>
        <time>2018-12-26T15:03:50.000Z</time>
      </trkpt>
      <trkpt lat="43.2364090" lon="-3.2939900">
        <ele>458.419006</ele>
        <time>2018-12-26T15:03:51.000Z</time>
      </trkpt>
      <trkpt lat="43.2364930" lon="-3.2939830">
        <ele>459.408020</ele>
        <time>2018-12-26T15:03:52.000Z</time>
      </trkpt>
      <trkpt lat="43.2365730" lon="-3.2939560">
        <ele>458.713989</ele>
        <time>2018-12-26T15:03:53.000Z</time>
      </trkpt>
      <trkpt lat="43.2366510" lon="-3.2939170">
        <ele>457.982025</ele>
        <time>2018-12-26T15:03:54.000Z</time>
      </trkpt>
      <trkpt lat="43.2367240" lon="-3.2938840">
        <ele>457.567017</ele>
        <time>2018-12-26T15:03:55.000Z</time>
      </trkpt>
      <trkpt lat="43.2367920" lon="-3.2938590">
        <ele>457.225006</ele>
        <time>2018-12-26T15:03:56.000Z</time>
      </trkpt>
      <trkpt lat="43.2368550" lon="-3.2938260">
        <ele>458.140991</ele>
        <time>2018-12-26T15:03:57.000Z</time>
      </trkpt>
      <trkpt lat="43.2369190" lon="-3.2937990">
        <ele>457.873993</ele>
        <time>2018-12-26T15:03:58.000Z</time>
      </trkpt>
      <trkpt lat="43.2369810" lon="-3.2937660">
        <ele>458.145996</ele>
        <time>2018-12-26T15:03:59.000Z</time>
      </trkpt>
      <trkpt lat="43.2370420" lon="-3.2937300">
        <ele>457.919983</ele>
        <time>2018-12-26T15:04:00.000Z</time>
      </trkpt>
      <trkpt lat="43.2370980" lon="-3.2936870">
        <ele>457.729004</ele>
        <time>2018-12-26T15:04:01.000Z</time>
      </trkpt>
      <trkpt lat="43.2371600" lon="-3.2936510">
        <ele>457.900024</ele>
        <time>2018-12-26T15:04:02.000Z</time>
      </trkpt>
      <trkpt lat="43.2372160" lon="-3.2936180">
        <ele>457.320007</ele>
        <time>2018-12-26T15:04:03.000Z</time>
      </trkpt>
      <trkpt lat="43.2372750" lon="-3.2935900">
        <ele>457.108002</ele>
        <time>2018-12-26T15:04:04.000Z</time>
      </trkpt>
      <trkpt lat="43.2373410" lon="-3.2935730">
        <ele>456.154999</ele>
        <time>2018-12-26T15:04:05.000Z</time>
      </trkpt>
      <trkpt lat="43.2373970" lon="-3.2935580">
        <ele>455.942993</ele>
        <time>2018-12-26T15:04:06.000Z</time>
      </trkpt>
      <trkpt lat="43.2374820" lon="-3.2935130">
        <ele>454.947998</ele>
        <time>2018-12-26T15:04:08.000Z</time>
      </trkpt>
      <trkpt lat="43.2375250" lon="-3.2934710">
        <ele>454.375977</ele>
        <time>2018-12-26T15:04:09.000Z</time>
      </trkpt>
      <trkpt lat="43.2375630" lon="-3.2933910">
        <ele>452.362000</ele>
        <time>2018-12-26T15:04:50.000Z</time>
      </trkpt>
      <trkpt lat="43.2375660" lon="-3.2933260">
        <ele>452.324982</ele>
        <time>2018-12-26T15:04:53.000Z</time>
      </trkpt>
      <trkpt lat="43.2375810" lon="-3.2932640">
        <ele>452.647003</ele>
        <time>2018-12-26T15:04:55.000Z</time>
      </trkpt>
      <trkpt lat="43.2376070" lon="-3.2931720">
        <ele>453.110992</ele>
        <time>2018-12-26T15:04:56.000Z</time>
      </trkpt>
      <trkpt lat="43.2376430" lon="-3.2930980">
        <ele>453.881989</ele>
        <time>2018-12-26T15:04:58.000Z</time>
      </trkpt>
      <trkpt lat="43.2376700" lon="-3.2930190">
        <ele>453.742981</ele>
        <time>2018-12-26T15:05:00.000Z</time>
      </trkpt>
      <trkpt lat="43.2376910" lon="-3.2929640">
        <ele>454.016998</ele>
        <time>2018-12-26T15:05:01.000Z</time>
      </trkpt>
      <trkpt lat="43.2377130" lon="-3.2929080">
        <ele>453.408020</ele>
        <time>2018-12-26T15:05:02.000Z</time>
      </trkpt>
      <trkpt lat="43.2377330" lon="-3.2928500">
        <ele>453.941010</ele>
        <time>2018-12-26T15:05:03.000Z</time>
      </trkpt>
      <trkpt lat="43.2377580" lon="-3.2927780">
        <ele>453.869019</ele>
        <time>2018-12-26T15:05:04.000Z</time>
      </trkpt>
      <trkpt lat="43.2377730" lon="-3.2927170">
        <ele>453.483978</ele>
        <time>2018-12-26T15:05:05.000Z</time>
      </trkpt>
      <trkpt lat="43.2377960" lon="-3.2926480">
        <ele>452.641998</ele>
        <time>2018-12-26T15:05:06.000Z</time>
      </trkpt>
      <trkpt lat="43.2378130" lon="-3.2925870">
        <ele>452.137970</ele>
        <time>2018-12-26T15:05:07.000Z</time>
      </trkpt>
      <trkpt lat="43.2378370" lon="-3.2925170">
        <ele>451.830994</ele>
        <time>2018-12-26T15:05:08.000Z</time>
      </trkpt>
      <trkpt lat="43.2378750" lon="-3.2924020">
        <ele>452.162994</ele>
        <time>2018-12-26T15:05:10.000Z</time>
      </trkpt>
      <trkpt lat="43.2379160" lon="-3.2922950">
        <ele>451.427002</ele>
        <time>2018-12-26T15:05:12.000Z</time>
      </trkpt>
      <trkpt lat="43.2379490" lon="-3.2921970">
        <ele>450.432007</ele>
        <time>2018-12-26T15:05:14.000Z</time>
      </trkpt>
      <trkpt lat="43.2379790" lon="-3.2921450">
        <ele>451.291992</ele>
        <time>2018-12-26T15:05:15.000Z</time>
      </trkpt>
      <trkpt lat="43.2380170" lon="-3.2920800">
        <ele>451.811005</ele>
        <time>2018-12-26T15:05:16.000Z</time>
      </trkpt>
      <trkpt lat="43.2380450" lon="-3.2920300">
        <ele>452.007996</ele>
        <time>2018-12-26T15:05:17.000Z</time>
      </trkpt>
      <trkpt lat="43.2380930" lon="-3.2919590">
        <ele>451.395996</ele>
        <time>2018-12-26T15:05:18.000Z</time>
      </trkpt>
      <trkpt lat="43.2381270" lon="-3.2919110">
        <ele>450.654022</ele>
        <time>2018-12-26T15:05:19.000Z</time>
      </trkpt>
      <trkpt lat="43.2381710" lon="-3.2918480">
        <ele>451.179016</ele>
        <time>2018-12-26T15:05:20.000Z</time>
      </trkpt>
      <trkpt lat="43.2382420" lon="-3.2917620">
        <ele>450.816986</ele>
        <time>2018-12-26T15:05:22.000Z</time>
      </trkpt>
      <trkpt lat="43.2382780" lon="-3.2917150">
        <ele>450.712982</ele>
        <time>2018-12-26T15:05:23.000Z</time>
      </trkpt>
      <trkpt lat="43.2383200" lon="-3.2916560">
        <ele>451.186005</ele>
        <time>2018-12-26T15:05:24.000Z</time>
      </trkpt>
      <trkpt lat="43.2383560" lon="-3.2916030">
        <ele>451.878021</ele>
        <time>2018-12-26T15:05:25.000Z</time>
      </trkpt>
      <trkpt lat="43.2383950" lon="-3.2915450">
        <ele>451.162018</ele>
        <time>2018-12-26T15:05:26.000Z</time>
      </trkpt>
      <trkpt lat="43.2384320" lon="-3.2914940">
        <ele>451.330994</ele>
        <time>2018-12-26T15:05:27.000Z</time>
      </trkpt>
      <trkpt lat="43.2384720" lon="-3.2914420">
        <ele>451.161011</ele>
        <time>2018-12-26T15:05:28.000Z</time>
      </trkpt>
      <trkpt lat="43.2385090" lon="-3.2913920">
        <ele>450.606995</ele>
        <time>2018-12-26T15:05:29.000Z</time>
      </trkpt>
      <trkpt lat="43.2385470" lon="-3.2913420">
        <ele>450.608002</ele>
        <time>2018-12-26T15:05:30.000Z</time>
      </trkpt>
      <trkpt lat="43.2385800" lon="-3.2912960">
        <ele>450.386017</ele>
        <time>2018-12-26T15:05:31.000Z</time>
      </trkpt>
      <trkpt lat="43.2386450" lon="-3.2912100">
        <ele>449.993988</ele>
        <time>2018-12-26T15:05:33.000Z</time>
      </trkpt>
      <trkpt lat="43.2386840" lon="-3.2911640">
        <ele>449.429016</ele>
        <time>2018-12-26T15:05:34.000Z</time>
      </trkpt>
      <trkpt lat="43.2387190" lon="-3.2911220">
        <ele>449.897003</ele>
        <time>2018-12-26T15:05:35.000Z</time>
      </trkpt>
      <trkpt lat="43.2387590" lon="-3.2910790">
        <ele>449.432983</ele>
        <time>2018-12-26T15:05:36.000Z</time>
      </trkpt>
      <trkpt lat="43.2388000" lon="-3.2910510">
        <ele>449.195984</ele>
        <time>2018-12-26T15:05:37.000Z</time>
      </trkpt>
      <trkpt lat="43.2388490" lon="-3.2910290">
        <ele>449.157990</ele>
        <time>2018-12-26T15:05:38.000Z</time>
      </trkpt>
      <trkpt lat="43.2388940" lon="-3.2910110">
        <ele>449.011993</ele>
        <time>2018-12-26T15:05:39.000Z</time>
      </trkpt>
      <trkpt lat="43.2389430" lon="-3.2910170">
        <ele>448.938995</ele>
        <time>2018-12-26T15:05:40.000Z</time>
      </trkpt>
      <trkpt lat="43.2389880" lon="-3.2910180">
        <ele>449.501007</ele>
        <time>2018-12-26T15:05:41.000Z</time>
      </trkpt>
      <trkpt lat="43.2390750" lon="-3.2910050">
        <ele>449.621002</ele>
        <time>2018-12-26T15:05:43.000Z</time>
      </trkpt>
      <trkpt lat="43.2391220" lon="-3.2910060">
        <ele>449.008026</ele>
        <time>2018-12-26T15:05:44.000Z</time>
      </trkpt>
      <trkpt lat="43.2391690" lon="-3.2909950">
        <ele>448.566010</ele>
        <time>2018-12-26T15:05:45.000Z</time>
      </trkpt>
      <trkpt lat="43.2392190" lon="-3.2909750">
        <ele>448.973999</ele>
        <time>2018-12-26T15:05:46.000Z</time>
      </trkpt>
      <trkpt lat="43.2393030" lon="-3.2909350">
        <ele>450.499023</ele>
        <time>2018-12-26T15:05:48.000Z</time>
      </trkpt>
      <trkpt lat="43.2393840" lon="-3.2909130">
        <ele>449.557007</ele>
        <time>2018-12-26T15:05:50.000Z</time>
      </trkpt>
      <trkpt lat="43.2394420" lon="-3.2908980">
        <ele>450.932983</ele>
        <time>2018-12-26T15:05:52.000Z</time>
      </trkpt>
      <trkpt lat="43.2395020" lon="-3.2908870">
        <ele>450.466003</ele>
        <time>2018-12-26T15:05:54.000Z</time>
      </trkpt>
      <trkpt lat="43.2395600" lon="-3.2908820">
        <ele>449.827972</ele>
        <time>2018-12-26T15:05:56.000Z</time>
      </trkpt>
      <trkpt lat="43.2396270" lon="-3.2908770">
        <ele>449.842010</ele>
        <time>2018-12-26T15:05:58.000Z</time>
      </trkpt>
      <trkpt lat="43.2397010" lon="-3.2908740">
        <ele>449.285980</ele>
        <time>2018-12-26T15:05:59.000Z</time>
      </trkpt>
      <trkpt lat="43.2397840" lon="-3.2908920">
        <ele>449.559998</ele>
        <time>2018-12-26T15:06:01.000Z</time>
      </trkpt>
      <trkpt lat="43.2398310" lon="-3.2908970">
        <ele>449.325989</ele>
        <time>2018-12-26T15:06:02.000Z</time>
      </trkpt>
      <trkpt lat="43.2398880" lon="-3.2909070">
        <ele>449.208008</ele>
        <time>2018-12-26T15:06:03.000Z</time>
      </trkpt>
      <trkpt lat="43.2399440" lon="-3.2909060">
        <ele>449.040985</ele>
        <time>2018-12-26T15:06:04.000Z</time>
      </trkpt>
      <trkpt lat="43.2399970" lon="-3.2909040">
        <ele>449.539001</ele>
        <time>2018-12-26T15:06:05.000Z</time>
      </trkpt>
      <trkpt lat="43.2400550" lon="-3.2908990">
        <ele>450.013977</ele>
        <time>2018-12-26T15:06:06.000Z</time>
      </trkpt>
      <trkpt lat="43.2401150" lon="-3.2908930">
        <ele>449.312012</ele>
        <time>2018-12-26T15:06:07.000Z</time>
      </trkpt>
      <trkpt lat="43.2401750" lon="-3.2908910">
        <ele>448.167999</ele>
        <time>2018-12-26T15:06:08.000Z</time>
      </trkpt>
      <trkpt lat="43.2402350" lon="-3.2908880">
        <ele>447.241028</ele>
        <time>2018-12-26T15:06:09.000Z</time>
      </trkpt>
      <trkpt lat="43.2402970" lon="-3.2908870">
        <ele>445.482971</ele>
        <time>2018-12-26T15:06:10.000Z</time>
      </trkpt>
      <trkpt lat="43.2403630" lon="-3.2908900">
        <ele>445.437012</ele>
        <time>2018-12-26T15:06:11.000Z</time>
      </trkpt>
      <trkpt lat="43.2404310" lon="-3.2908920">
        <ele>445.481018</ele>
        <time>2018-12-26T15:06:12.000Z</time>
      </trkpt>
      <trkpt lat="43.2405010" lon="-3.2909020">
        <ele>445.460999</ele>
        <time>2018-12-26T15:06:13.000Z</time>
      </trkpt>
      <trkpt lat="43.2405710" lon="-3.2909050">
        <ele>444.717010</ele>
        <time>2018-12-26T15:06:14.000Z</time>
      </trkpt>
      <trkpt lat="43.2406440" lon="-3.2909130">
        <ele>444.407990</ele>
        <time>2018-12-26T15:06:15.000Z</time>
      </trkpt>
      <trkpt lat="43.2407130" lon="-3.2909270">
        <ele>444.151001</ele>
        <time>2018-12-26T15:06:16.000Z</time>
      </trkpt>
      <trkpt lat="43.2407790" lon="-3.2909450">
        <ele>443.219025</ele>
        <time>2018-12-26T15:06:17.000Z</time>
      </trkpt>
      <trkpt lat="43.2408420" lon="-3.2909860">
        <ele>443.893982</ele>
        <time>2018-12-26T15:06:18.000Z</time>
      </trkpt>
      <trkpt lat="43.2409090" lon="-3.2910020">
        <ele>444.562012</ele>
        <time>2018-12-26T15:06:19.000Z</time>
      </trkpt>
      <trkpt lat="43.2409660" lon="-3.2910160">
        <ele>444.678009</ele>
        <time>2018-12-26T15:06:20.000Z</time>
      </trkpt>
      <trkpt lat="43.2410200" lon="-3.2910240">
        <ele>444.210999</ele>
        <time>2018-12-26T15:06:21.000Z</time>
      </trkpt>
      <trkpt lat="43.2410760" lon="-3.2910340">
        <ele>444.252991</ele>
        <time>2018-12-26T15:06:22.000Z</time>
      </trkpt>
      <trkpt lat="43.2411650" lon="-3.2910500">
        <ele>445.187012</ele>
        <time>2018-12-26T15:06:24.000Z</time>
      </trkpt>
      <trkpt lat="43.2412130" lon="-3.2910690">
        <ele>445.830994</ele>
        <time>2018-12-26T15:06:25.000Z</time>
      </trkpt>
      <trkpt lat="43.2412610" lon="-3.2910780">
        <ele>445.660980</ele>
        <time>2018-12-26T15:06:26.000Z</time>
      </trkpt>
      <trkpt lat="43.2413090" lon="-3.2910910">
        <ele>446.406982</ele>
        <time>2018-12-26T15:06:27.000Z</time>
      </trkpt>
      <trkpt lat="43.2413520" lon="-3.2911120">
        <ele>447.407990</ele>
        <time>2018-12-26T15:06:28.000Z</time>
      </trkpt>
      <trkpt lat="43.2413980" lon="-3.2911280">
        <ele>447.865997</ele>
        <time>2018-12-26T15:06:29.000Z</time>
      </trkpt>
      <trkpt lat="43.2414430" lon="-3.2911420">
        <ele>448.173981</ele>
        <time>2018-12-26T15:06:30.000Z</time>
      </trkpt>
      <trkpt lat="43.2415280" lon="-3.2911640">
        <ele>448.088989</ele>
        <time>2018-12-26T15:06:32.000Z</time>
      </trkpt>
      <trkpt lat="43.2416110" lon="-3.2911880">
        <ele>449.486969</ele>
        <time>2018-12-26T15:06:34.000Z</time>
      </trkpt>
      <trkpt lat="43.2416940" lon="-3.2912240">
        <ele>449.873016</ele>
        <time>2018-12-26T15:06:36.000Z</time>
      </trkpt>
      <trkpt lat="43.2417670" lon="-3.2912470">
        <ele>451.125977</ele>
        <time>2018-12-26T15:06:38.000Z</time>
      </trkpt>
      <trkpt lat="43.2418230" lon="-3.2912670">
        <ele>451.537994</ele>
        <time>2018-12-26T15:06:40.000Z</time>
      </trkpt>
      <trkpt lat="43.2418750" lon="-3.2912890">
        <ele>452.092010</ele>
        <time>2018-12-26T15:06:41.000Z</time>
      </trkpt>
      <trkpt lat="43.2419400" lon="-3.2913080">
        <ele>452.761017</ele>
        <time>2018-12-26T15:06:43.000Z</time>
      </trkpt>
      <trkpt lat="43.2419850" lon="-3.2913270">
        <ele>452.921021</ele>
        <time>2018-12-26T15:06:44.000Z</time>
      </trkpt>
      <trkpt lat="43.2420470" lon="-3.2913580">
        <ele>453.813019</ele>
        <time>2018-12-26T15:06:46.000Z</time>
      </trkpt>
      <trkpt lat="43.2421010" lon="-3.2913900">
        <ele>453.907990</ele>
        <time>2018-12-26T15:06:48.000Z</time>
      </trkpt>
      <trkpt lat="43.2421680" lon="-3.2914200">
        <ele>454.649017</ele>
        <time>2018-12-26T15:06:50.000Z</time>
      </trkpt>
      <trkpt lat="43.2422310" lon="-3.2914450">
        <ele>455.416992</ele>
        <time>2018-12-26T15:06:52.000Z</time>
      </trkpt>
      <trkpt lat="43.2422890" lon="-3.2914760">
        <ele>456.332001</ele>
        <time>2018-12-26T15:06:54.000Z</time>
      </trkpt>
      <trkpt lat="43.2423530" lon="-3.2915050">
        <ele>456.730011</ele>
        <time>2018-12-26T15:06:56.000Z</time>
      </trkpt>
      <trkpt lat="43.2424190" lon="-3.2915310">
        <ele>457.295990</ele>
        <time>2018-12-26T15:06:58.000Z</time>
      </trkpt>
      <trkpt lat="43.2424710" lon="-3.2915570">
        <ele>457.299011</ele>
        <time>2018-12-26T15:07:00.000Z</time>
      </trkpt>
      <trkpt lat="43.2425180" lon="-3.2915800">
        <ele>457.830994</ele>
        <time>2018-12-26T15:07:02.000Z</time>
      </trkpt>
      <trkpt lat="43.2425710" lon="-3.2916070">
        <ele>458.355011</ele>
        <time>2018-12-26T15:07:04.000Z</time>
      </trkpt>
      <trkpt lat="43.2426310" lon="-3.2916340">
        <ele>459.880981</ele>
        <time>2018-12-26T15:07:06.000Z</time>
      </trkpt>
      <trkpt lat="43.2426980" lon="-3.2916720">
        <ele>460.360992</ele>
        <time>2018-12-26T15:07:08.000Z</time>
      </trkpt>
      <trkpt lat="43.2427650" lon="-3.2917100">
        <ele>461.316986</ele>
        <time>2018-12-26T15:07:10.000Z</time>
      </trkpt>
      <trkpt lat="43.2428250" lon="-3.2917440">
        <ele>461.508026</ele>
        <time>2018-12-26T15:07:12.000Z</time>
      </trkpt>
      <trkpt lat="43.2428780" lon="-3.2917850">
        <ele>462.651001</ele>
        <time>2018-12-26T15:07:14.000Z</time>
      </trkpt>
      <trkpt lat="43.2429260" lon="-3.2918250">
        <ele>462.558990</ele>
        <time>2018-12-26T15:07:16.000Z</time>
      </trkpt>
      <trkpt lat="43.2429750" lon="-3.2918580">
        <ele>463.444000</ele>
        <time>2018-12-26T15:07:18.000Z</time>
      </trkpt>
      <trkpt lat="43.2430190" lon="-3.2918980">
        <ele>463.712006</ele>
        <time>2018-12-26T15:07:20.000Z</time>
      </trkpt>
      <trkpt lat="43.2430660" lon="-3.2919410">
        <ele>463.837982</ele>
        <time>2018-12-26T15:07:22.000Z</time>
      </trkpt>
      <trkpt lat="43.2431140" lon="-3.2919880">
        <ele>464.160980</ele>
        <time>2018-12-26T15:07:24.000Z</time>
      </trkpt>
      <trkpt lat="43.2431570" lon="-3.2920180">
        <ele>464.942993</ele>
        <time>2018-12-26T15:07:26.000Z</time>
      </trkpt>
      <trkpt lat="43.2432000" lon="-3.2920530">
        <ele>465.636993</ele>
        <time>2018-12-26T15:07:28.000Z</time>
      </trkpt>
      <trkpt lat="43.2432580" lon="-3.2920910">
        <ele>465.158997</ele>
        <time>2018-12-26T15:07:31.000Z</time>
      </trkpt>
      <trkpt lat="43.2433050" lon="-3.2921240">
        <ele>466.403015</ele>
        <time>2018-12-26T15:07:33.000Z</time>
      </trkpt>
      <trkpt lat="43.2433530" lon="-3.2921560">
        <ele>466.722992</ele>
        <time>2018-12-26T15:07:35.000Z</time>
      </trkpt>
      <trkpt lat="43.2434010" lon="-3.2921850">
        <ele>466.708008</ele>
        <time>2018-12-26T15:07:37.000Z</time>
      </trkpt>
      <trkpt lat="43.2434460" lon="-3.2922070">
        <ele>467.018005</ele>
        <time>2018-12-26T15:07:39.000Z</time>
      </trkpt>
      <trkpt lat="43.2434910" lon="-3.2922390">
        <ele>467.296021</ele>
        <time>2018-12-26T15:07:41.000Z</time>
      </trkpt>
      <trkpt lat="43.2435520" lon="-3.2922750">
        <ele>467.571014</ele>
        <time>2018-12-26T15:07:44.000Z</time>
      </trkpt>
      <trkpt lat="43.2435960" lon="-3.2922990">
        <ele>467.588989</ele>
        <time>2018-12-26T15:07:46.000Z</time>
      </trkpt>
      <trkpt lat="43.2436450" lon="-3.2923380">
        <ele>467.285004</ele>
        <time>2018-12-26T15:07:48.000Z</time>
      </trkpt>
      <trkpt lat="43.2436880" lon="-3.2923800">
        <ele>467.197998</ele>
        <time>2018-12-26T15:07:50.000Z</time>
      </trkpt>
      <trkpt lat="43.2437350" lon="-3.2924140">
        <ele>466.819977</ele>
        <time>2018-12-26T15:07:52.000Z</time>
      </trkpt>
      <trkpt lat="43.2437830" lon="-3.2924410">
        <ele>467.214020</ele>
        <time>2018-12-26T15:07:54.000Z</time>
      </trkpt>
      <trkpt lat="43.2438290" lon="-3.2924730">
        <ele>467.054993</ele>
        <time>2018-12-26T15:07:56.000Z</time>
      </trkpt>
      <trkpt lat="43.2438730" lon="-3.2925160">
        <ele>467.207031</ele>
        <time>2018-12-26T15:07:58.000Z</time>
      </trkpt>
      <trkpt lat="43.2439140" lon="-3.2925500">
        <ele>467.216980</ele>
        <time>2018-12-26T15:08:00.000Z</time>
      </trkpt>
      <trkpt lat="43.2439600" lon="-3.2925880">
        <ele>468.507996</ele>
        <time>2018-12-26T15:08:02.000Z</time>
      </trkpt>
      <trkpt lat="43.2440080" lon="-3.2926230">
        <ele>468.167999</ele>
        <time>2018-12-26T15:08:04.000Z</time>
      </trkpt>
      <trkpt lat="43.2440610" lon="-3.2926620">
        <ele>469.046021</ele>
        <time>2018-12-26T15:08:06.000Z</time>
      </trkpt>
      <trkpt lat="43.2441130" lon="-3.2926970">
        <ele>469.571014</ele>
        <time>2018-12-26T15:08:08.000Z</time>
      </trkpt>
      <trkpt lat="43.2441630" lon="-3.2927340">
        <ele>469.688995</ele>
        <time>2018-12-26T15:08:10.000Z</time>
      </trkpt>
      <trkpt lat="43.2442160" lon="-3.2927700">
        <ele>469.924988</ele>
        <time>2018-12-26T15:08:12.000Z</time>
      </trkpt>
      <trkpt lat="43.2442730" lon="-3.2928080">
        <ele>470.937988</ele>
        <time>2018-12-26T15:08:14.000Z</time>
      </trkpt>
      <trkpt lat="43.2443260" lon="-3.2928510">
        <ele>470.879974</ele>
        <time>2018-12-26T15:08:16.000Z</time>
      </trkpt>
      <trkpt lat="43.2443800" lon="-3.2929000">
        <ele>470.914001</ele>
        <time>2018-12-26T15:08:18.000Z</time>
      </trkpt>
      <trkpt lat="43.2444250" lon="-3.2929590">
        <ele>471.390991</ele>
        <time>2018-12-26T15:08:20.000Z</time>
      </trkpt>
      <trkpt lat="43.2444690" lon="-3.2930180">
        <ele>471.681000</ele>
        <time>2018-12-26T15:08:22.000Z</time>
      </trkpt>
      <trkpt lat="43.2445190" lon="-3.2930880">
        <ele>471.618988</ele>
        <time>2018-12-26T15:08:24.000Z</time>
      </trkpt>
      <trkpt lat="43.2445910" lon="-3.2931750">
        <ele>471.407990</ele>
        <time>2018-12-26T15:08:26.000Z</time>
      </trkpt>
      <trkpt lat="43.2446880" lon="-3.2932480">
        <ele>471.162018</ele>
        <time>2018-12-26T15:08:27.000Z</time>
      </trkpt>
      <trkpt lat="43.2447430" lon="-3.2932570">
        <ele>470.879974</ele>
        <time>2018-12-26T15:08:28.000Z</time>
      </trkpt>
      <trkpt lat="43.2447890" lon="-3.2932600">
        <ele>470.925018</ele>
        <time>2018-12-26T15:08:29.000Z</time>
      </trkpt>
      <trkpt lat="43.2448540" lon="-3.2932560">
        <ele>472.352997</ele>
        <time>2018-12-26T15:08:31.000Z</time>
      </trkpt>
      <trkpt lat="43.2449190" lon="-3.2932510">
        <ele>473.319031</ele>
        <time>2018-12-26T15:08:33.000Z</time>
      </trkpt>
      <trkpt lat="43.2449760" lon="-3.2932610">
        <ele>474.471985</ele>
        <time>2018-12-26T15:08:35.000Z</time>
      </trkpt>
      <trkpt lat="43.2450380" lon="-3.2933000">
        <ele>476.444000</ele>
        <time>2018-12-26T15:08:38.000Z</time>
      </trkpt>
      <trkpt lat="43.2450800" lon="-3.2933390">
        <ele>477.928009</ele>
        <time>2018-12-26T15:08:40.000Z</time>
      </trkpt>
      <trkpt lat="43.2451280" lon="-3.2933810">
        <ele>477.956970</ele>
        <time>2018-12-26T15:08:42.000Z</time>
      </trkpt>
      <trkpt lat="43.2451720" lon="-3.2934270">
        <ele>478.600006</ele>
        <time>2018-12-26T15:08:44.000Z</time>
      </trkpt>
      <trkpt lat="43.2452140" lon="-3.2934620">
        <ele>478.220001</ele>
        <time>2018-12-26T15:08:46.000Z</time>
      </trkpt>
      <trkpt lat="43.2452580" lon="-3.2934960">
        <ele>479.107971</ele>
        <time>2018-12-26T15:08:48.000Z</time>
      </trkpt>
      <trkpt lat="43.2452990" lon="-3.2935290">
        <ele>479.678009</ele>
        <time>2018-12-26T15:08:50.000Z</time>
      </trkpt>
      <trkpt lat="43.2453400" lon="-3.2935590">
        <ele>479.696014</ele>
        <time>2018-12-26T15:08:52.000Z</time>
      </trkpt>
      <trkpt lat="43.2453920" lon="-3.2935920">
        <ele>480.531006</ele>
        <time>2018-12-26T15:08:54.000Z</time>
      </trkpt>
      <trkpt lat="43.2454370" lon="-3.2936230">
        <ele>481.519012</ele>
        <time>2018-12-26T15:08:56.000Z</time>
      </trkpt>
      <trkpt lat="43.2454830" lon="-3.2936520">
        <ele>481.795013</ele>
        <time>2018-12-26T15:08:58.000Z</time>
      </trkpt>
      <trkpt lat="43.2455270" lon="-3.2936860">
        <ele>482.017975</ele>
        <time>2018-12-26T15:09:00.000Z</time>
      </trkpt>
      <trkpt lat="43.2455740" lon="-3.2937230">
        <ele>482.170013</ele>
        <time>2018-12-26T15:09:02.000Z</time>
      </trkpt>
      <trkpt lat="43.2456210" lon="-3.2937550">
        <ele>483.164001</ele>
        <time>2018-12-26T15:09:04.000Z</time>
      </trkpt>
      <trkpt lat="43.2456690" lon="-3.2937840">
        <ele>483.590973</ele>
        <time>2018-12-26T15:09:06.000Z</time>
      </trkpt>
      <trkpt lat="43.2457140" lon="-3.2938170">
        <ele>484.481018</ele>
        <time>2018-12-26T15:09:08.000Z</time>
      </trkpt>
      <trkpt lat="43.2457560" lon="-3.2938430">
        <ele>483.719025</ele>
        <time>2018-12-26T15:09:10.000Z</time>
      </trkpt>
      <trkpt lat="43.2458150" lon="-3.2938800">
        <ele>483.708008</ele>
        <time>2018-12-26T15:09:13.000Z</time>
      </trkpt>
      <trkpt lat="43.2458570" lon="-3.2939040">
        <ele>483.971985</ele>
        <time>2018-12-26T15:09:19.000Z</time>
      </trkpt>
      <trkpt lat="43.2459040" lon="-3.2939130">
        <ele>483.059998</ele>
        <time>2018-12-26T15:10:00.000Z</time>
      </trkpt>
      <trkpt lat="43.2459610" lon="-3.2939350">
        <ele>482.955017</ele>
        <time>2018-12-26T15:10:02.000Z</time>
      </trkpt>
      <trkpt lat="43.2460490" lon="-3.2939570">
        <ele>482.652985</ele>
        <time>2018-12-26T15:10:03.000Z</time>
      </trkpt>
      <trkpt lat="43.2461030" lon="-3.2939790">
        <ele>481.688995</ele>
        <time>2018-12-26T15:10:04.000Z</time>
      </trkpt>
      <trkpt lat="43.2461650" lon="-3.2939980">
        <ele>481.171997</ele>
        <time>2018-12-26T15:10:05.000Z</time>
      </trkpt>
      <trkpt lat="43.2462270" lon="-3.2940280">
        <ele>481.544006</ele>
        <time>2018-12-26T15:10:06.000Z</time>
      </trkpt>
      <trkpt lat="43.2462910" lon="-3.2940620">
        <ele>481.068024</ele>
        <time>2018-12-26T15:10:07.000Z</time>
      </trkpt>
      <trkpt lat="43.2463540" lon="-3.2940930">
        <ele>480.886993</ele>
        <time>2018-12-26T15:10:08.000Z</time>
      </trkpt>
      <trkpt lat="43.2464250" lon="-3.2941210">
        <ele>479.742004</ele>
        <time>2018-12-26T15:10:09.000Z</time>
      </trkpt>
      <trkpt lat="43.2464940" lon="-3.2941490">
        <ele>479.326019</ele>
        <time>2018-12-26T15:10:10.000Z</time>
      </trkpt>
      <trkpt lat="43.2465710" lon="-3.2941850">
        <ele>479.007996</ele>
        <time>2018-12-26T15:10:11.000Z</time>
      </trkpt>
      <trkpt lat="43.2466480" lon="-3.2942140">
        <ele>478.540985</ele>
        <time>2018-12-26T15:10:12.000Z</time>
      </trkpt>
      <trkpt lat="43.2467230" lon="-3.2942450">
        <ele>479.338989</ele>
        <time>2018-12-26T15:10:13.000Z</time>
      </trkpt>
      <trkpt lat="43.2467950" lon="-3.2942700">
        <ele>477.064026</ele>
        <time>2018-12-26T15:10:14.000Z</time>
      </trkpt>
      <trkpt lat="43.2468620" lon="-3.2942940">
        <ele>476.592010</ele>
        <time>2018-12-26T15:10:15.000Z</time>
      </trkpt>
      <trkpt lat="43.2469290" lon="-3.2943130">
        <ele>477.967987</ele>
        <time>2018-12-26T15:10:16.000Z</time>
      </trkpt>
      <trkpt lat="43.2469940" lon="-3.2943270">
        <ele>478.110992</ele>
        <time>2018-12-26T15:10:17.000Z</time>
      </trkpt>
      <trkpt lat="43.2470560" lon="-3.2943460">
        <ele>478.263000</ele>
        <time>2018-12-26T15:10:18.000Z</time>
      </trkpt>
      <trkpt lat="43.2471140" lon="-3.2943660">
        <ele>478.117004</ele>
        <time>2018-12-26T15:10:19.000Z</time>
      </trkpt>
      <trkpt lat="43.2471660" lon="-3.2943820">
        <ele>477.522003</ele>
        <time>2018-12-26T15:10:20.000Z</time>
      </trkpt>
      <trkpt lat="43.2472170" lon="-3.2944030">
        <ele>477.662018</ele>
        <time>2018-12-26T15:10:21.000Z</time>
      </trkpt>
      <trkpt lat="43.2473040" lon="-3.2944480">
        <ele>477.607971</ele>
        <time>2018-12-26T15:10:23.000Z</time>
      </trkpt>
      <trkpt lat="43.2473500" lon="-3.2944930">
        <ele>477.307983</ele>
        <time>2018-12-26T15:10:24.000Z</time>
      </trkpt>
      <trkpt lat="43.2474000" lon="-3.2945360">
        <ele>477.714996</ele>
        <time>2018-12-26T15:10:25.000Z</time>
      </trkpt>
      <trkpt lat="43.2474470" lon="-3.2945720">
        <ele>478.053009</ele>
        <time>2018-12-26T15:10:26.000Z</time>
      </trkpt>
      <trkpt lat="43.2474950" lon="-3.2946070">
        <ele>477.747986</ele>
        <time>2018-12-26T15:10:27.000Z</time>
      </trkpt>
      <trkpt lat="43.2475410" lon="-3.2946540">
        <ele>477.175995</ele>
        <time>2018-12-26T15:10:28.000Z</time>
      </trkpt>
      <trkpt lat="43.2475810" lon="-3.2947070">
        <ele>478.531982</ele>
        <time>2018-12-26T15:10:29.000Z</time>
      </trkpt>
      <trkpt lat="43.2476250" lon="-3.2947340">
        <ele>478.914978</ele>
        <time>2018-12-26T15:10:30.000Z</time>
      </trkpt>
      <trkpt lat="43.2476730" lon="-3.2947690">
        <ele>478.946991</ele>
        <time>2018-12-26T15:10:31.000Z</time>
      </trkpt>
      <trkpt lat="43.2477170" lon="-3.2948100">
        <ele>478.970978</ele>
        <time>2018-12-26T15:10:32.000Z</time>
      </trkpt>
      <trkpt lat="43.2477630" lon="-3.2948450">
        <ele>479.294983</ele>
        <time>2018-12-26T15:10:33.000Z</time>
      </trkpt>
      <trkpt lat="43.2478090" lon="-3.2948820">
        <ele>478.648987</ele>
        <time>2018-12-26T15:10:34.000Z</time>
      </trkpt>
      <trkpt lat="43.2478520" lon="-3.2949220">
        <ele>478.622986</ele>
        <time>2018-12-26T15:10:35.000Z</time>
      </trkpt>
      <trkpt lat="43.2478980" lon="-3.2949660">
        <ele>479.007996</ele>
        <time>2018-12-26T15:10:36.000Z</time>
      </trkpt>
      <trkpt lat="43.2479420" lon="-3.2950030">
        <ele>479.261993</ele>
        <time>2018-12-26T15:10:37.000Z</time>
      </trkpt>
      <trkpt lat="43.2479850" lon="-3.2950390">
        <ele>479.090027</ele>
        <time>2018-12-26T15:10:38.000Z</time>
      </trkpt>
      <trkpt lat="43.2480280" lon="-3.2950760">
        <ele>478.175018</ele>
        <time>2018-12-26T15:10:39.000Z</time>
      </trkpt>
      <trkpt lat="43.2480660" lon="-3.2951120">
        <ele>479.493011</ele>
        <time>2018-12-26T15:10:40.000Z</time>
      </trkpt>
      <trkpt lat="43.2480960" lon="-3.2951640">
        <ele>479.928986</ele>
        <time>2018-12-26T15:10:41.000Z</time>
      </trkpt>
      <trkpt lat="43.2481090" lon="-3.2952270">
        <ele>480.112030</ele>
        <time>2018-12-26T15:10:42.000Z</time>
      </trkpt>
      <trkpt lat="43.2481140" lon="-3.2953400">
        <ele>480.583984</ele>
        <time>2018-12-26T15:10:44.000Z</time>
      </trkpt>
      <trkpt lat="43.2481040" lon="-3.2954010">
        <ele>482.117981</ele>
        <time>2018-12-26T15:10:46.000Z</time>
      </trkpt>
      <trkpt lat="43.2480830" lon="-3.2954660">
        <ele>482.941010</ele>
        <time>2018-12-26T15:10:48.000Z</time>
      </trkpt>
      <trkpt lat="43.2480630" lon="-3.2955460">
        <ele>483.380981</ele>
        <time>2018-12-26T15:10:50.000Z</time>
      </trkpt>
      <trkpt lat="43.2480450" lon="-3.2956270">
        <ele>484.409027</ele>
        <time>2018-12-26T15:10:52.000Z</time>
      </trkpt>
      <trkpt lat="43.2480280" lon="-3.2957040">
        <ele>485.208008</ele>
        <time>2018-12-26T15:10:54.000Z</time>
      </trkpt>
      <trkpt lat="43.2480110" lon="-3.2957850">
        <ele>486.457001</ele>
        <time>2018-12-26T15:10:56.000Z</time>
      </trkpt>
      <trkpt lat="43.2480030" lon="-3.2958590">
        <ele>486.265015</ele>
        <time>2018-12-26T15:10:58.000Z</time>
      </trkpt>
      <trkpt lat="43.2479920" lon="-3.2959280">
        <ele>487.839996</ele>
        <time>2018-12-26T15:11:00.000Z</time>
      </trkpt>
      <trkpt lat="43.2479820" lon="-3.2960050">
        <ele>488.447998</ele>
        <time>2018-12-26T15:11:02.000Z</time>
      </trkpt>
      <trkpt lat="43.2479740" lon="-3.2960790">
        <ele>489.033997</ele>
        <time>2018-12-26T15:11:04.000Z</time>
      </trkpt>
      <trkpt lat="43.2479680" lon="-3.2961480">
        <ele>490.586975</ele>
        <time>2018-12-26T15:11:06.000Z</time>
      </trkpt>
      <trkpt lat="43.2479650" lon="-3.2962210">
        <ele>490.569000</ele>
        <time>2018-12-26T15:11:08.000Z</time>
      </trkpt>
      <trkpt lat="43.2479650" lon="-3.2962890">
        <ele>491.183014</ele>
        <time>2018-12-26T15:11:10.000Z</time>
      </trkpt>
      <trkpt lat="43.2479580" lon="-3.2963590">
        <ele>492.483032</ele>
        <time>2018-12-26T15:11:12.000Z</time>
      </trkpt>
      <trkpt lat="43.2479480" lon="-3.2964220">
        <ele>493.424988</ele>
        <time>2018-12-26T15:11:14.000Z</time>
      </trkpt>
      <trkpt lat="43.2479350" lon="-3.2964950">
        <ele>494.416992</ele>
        <time>2018-12-26T15:11:16.000Z</time>
      </trkpt>
      <trkpt lat="43.2479270" lon="-3.2965930">
        <ele>494.607971</ele>
        <time>2018-12-26T15:11:19.000Z</time>
      </trkpt>
      <trkpt lat="43.2479240" lon="-3.2966600">
        <ele>495.051025</ele>
        <time>2018-12-26T15:11:21.000Z</time>
      </trkpt>
      <trkpt lat="43.2479240" lon="-3.2967220">
        <ele>495.768982</ele>
        <time>2018-12-26T15:11:23.000Z</time>
      </trkpt>
      <trkpt lat="43.2479230" lon="-3.2967920">
        <ele>496.533997</ele>
        <time>2018-12-26T15:11:25.000Z</time>
      </trkpt>
      <trkpt lat="43.2479160" lon="-3.2968830">
        <ele>497.161987</ele>
        <time>2018-12-26T15:11:28.000Z</time>
      </trkpt>
      <trkpt lat="43.2479120" lon="-3.2969560">
        <ele>497.718018</ele>
        <time>2018-12-26T15:11:30.000Z</time>
      </trkpt>
      <trkpt lat="43.2479070" lon="-3.2970250">
        <ele>498.460999</ele>
        <time>2018-12-26T15:11:32.000Z</time>
      </trkpt>
      <trkpt lat="43.2479000" lon="-3.2970960">
        <ele>498.962982</ele>
        <time>2018-12-26T15:11:34.000Z</time>
      </trkpt>
      <trkpt lat="43.2479050" lon="-3.2971600">
        <ele>499.817017</ele>
        <time>2018-12-26T15:11:36.000Z</time>
      </trkpt>
      <trkpt lat="43.2479240" lon="-3.2972200">
        <ele>499.791992</ele>
        <time>2018-12-26T15:11:39.000Z</time>
      </trkpt>
      <trkpt lat="43.2479650" lon="-3.2972710">
        <ele>499.373016</ele>
        <time>2018-12-26T15:11:42.000Z</time>
      </trkpt>
      <trkpt lat="43.2480110" lon="-3.2973100">
        <ele>498.919983</ele>
        <time>2018-12-26T15:11:44.000Z</time>
      </trkpt>
      <trkpt lat="43.2480900" lon="-3.2973560">
        <ele>497.907990</ele>
        <time>2018-12-26T15:11:46.000Z</time>
      </trkpt>
      <trkpt lat="43.2481420" lon="-3.2973690">
        <ele>498.271973</ele>
        <time>2018-12-26T15:11:47.000Z</time>
      </trkpt>
      <trkpt lat="43.2481930" lon="-3.2973750">
        <ele>498.220001</ele>
        <time>2018-12-26T15:11:48.000Z</time>
      </trkpt>
      <trkpt lat="43.2482460" lon="-3.2973790">
        <ele>497.815002</ele>
        <time>2018-12-26T15:11:49.000Z</time>
      </trkpt>
      <trkpt lat="43.2482990" lon="-3.2973830">
        <ele>497.692993</ele>
        <time>2018-12-26T15:11:50.000Z</time>
      </trkpt>
      <trkpt lat="43.2483440" lon="-3.2973880">
        <ele>497.679016</ele>
        <time>2018-12-26T15:11:51.000Z</time>
      </trkpt>
      <trkpt lat="43.2484630" lon="-3.2974020">
        <ele>497.641998</ele>
        <time>2018-12-26T15:11:52.000Z</time>
      </trkpt>
      <trkpt lat="43.2485130" lon="-3.2974090">
        <ele>497.314026</ele>
        <time>2018-12-26T15:11:53.000Z</time>
      </trkpt>
      <trkpt lat="43.2485650" lon="-3.2974160">
        <ele>496.888000</ele>
        <time>2018-12-26T15:11:54.000Z</time>
      </trkpt>
      <trkpt lat="43.2486140" lon="-3.2974250">
        <ele>497.753998</ele>
        <time>2018-12-26T15:11:55.000Z</time>
      </trkpt>
      <trkpt lat="43.2486800" lon="-3.2974560">
        <ele>497.856018</ele>
        <time>2018-12-26T15:11:57.000Z</time>
      </trkpt>
      <trkpt lat="43.2487520" lon="-3.2974700">
        <ele>498.210999</ele>
        <time>2018-12-26T15:11:59.000Z</time>
      </trkpt>
      <trkpt lat="43.2488200" lon="-3.2974890">
        <ele>497.608002</ele>
        <time>2018-12-26T15:12:01.000Z</time>
      </trkpt>
      <trkpt lat="43.2488830" lon="-3.2975070">
        <ele>497.768005</ele>
        <time>2018-12-26T15:12:03.000Z</time>
      </trkpt>
      <trkpt lat="43.2489320" lon="-3.2975230">
        <ele>498.066010</ele>
        <time>2018-12-26T15:12:05.000Z</time>
      </trkpt>
      <trkpt lat="43.2489910" lon="-3.2975480">
        <ele>498.410980</ele>
        <time>2018-12-26T15:12:07.000Z</time>
      </trkpt>
      <trkpt lat="43.2490470" lon="-3.2975690">
        <ele>498.248993</ele>
        <time>2018-12-26T15:12:09.000Z</time>
      </trkpt>
      <trkpt lat="43.2490970" lon="-3.2975950">
        <ele>497.825012</ele>
        <time>2018-12-26T15:12:11.000Z</time>
      </trkpt>
      <trkpt lat="43.2491450" lon="-3.2976210">
        <ele>498.227997</ele>
        <time>2018-12-26T15:12:13.000Z</time>
      </trkpt>
      <trkpt lat="43.2491980" lon="-3.2976520">
        <ele>498.270020</ele>
        <time>2018-12-26T15:12:15.000Z</time>
      </trkpt>
      <trkpt lat="43.2492570" lon="-3.2976860">
        <ele>498.393982</ele>
        <time>2018-12-26T15:12:18.000Z</time>
      </trkpt>
      <trkpt lat="43.2493160" lon="-3.2977280">
        <ele>498.057007</ele>
        <time>2018-12-26T15:12:21.000Z</time>
      </trkpt>
      <trkpt lat="43.2493560" lon="-3.2977580">
        <ele>497.500000</ele>
        <time>2018-12-26T15:12:23.000Z</time>
      </trkpt>
      <trkpt lat="43.2494100" lon="-3.2977900">
        <ele>497.320007</ele>
        <time>2018-12-26T15:12:26.000Z</time>
      </trkpt>
      <trkpt lat="43.2494520" lon="-3.2978140">
        <ele>497.208008</ele>
        <time>2018-12-26T15:12:28.000Z</time>
      </trkpt>
      <trkpt lat="43.2495030" lon="-3.2978470">
        <ele>496.967987</ele>
        <time>2018-12-26T15:12:30.000Z</time>
      </trkpt>
      <trkpt lat="43.2495730" lon="-3.2978940">
        <ele>496.295990</ele>
        <time>2018-12-26T15:12:32.000Z</time>
      </trkpt>
      <trkpt lat="43.2496450" lon="-3.2979520">
        <ele>496.520996</ele>
        <time>2018-12-26T15:12:34.000Z</time>
      </trkpt>
      <trkpt lat="43.2497100" lon="-3.2980390">
        <ele>495.678986</ele>
        <time>2018-12-26T15:12:36.000Z</time>
      </trkpt>
      <trkpt lat="43.2497390" lon="-3.2980910">
        <ele>495.555023</ele>
        <time>2018-12-26T15:12:37.000Z</time>
      </trkpt>
      <trkpt lat="43.2497760" lon="-3.2981610">
        <ele>495.858002</ele>
        <time>2018-12-26T15:12:38.000Z</time>
      </trkpt>
      <trkpt lat="43.2498610" lon="-3.2982920">
        <ele>495.809998</ele>
        <time>2018-12-26T15:12:39.000Z</time>
      </trkpt>
      <trkpt lat="43.2499070" lon="-3.2983390">
        <ele>495.694000</ele>
        <time>2018-12-26T15:12:40.000Z</time>
      </trkpt>
      <trkpt lat="43.2499440" lon="-3.2983830">
        <ele>495.652985</ele>
        <time>2018-12-26T15:12:41.000Z</time>
      </trkpt>
      <trkpt lat="43.2500140" lon="-3.2984440">
        <ele>495.804016</ele>
        <time>2018-12-26T15:12:43.000Z</time>
      </trkpt>
      <trkpt lat="43.2500870" lon="-3.2984820">
        <ele>495.214020</ele>
        <time>2018-12-26T15:12:45.000Z</time>
      </trkpt>
      <trkpt lat="43.2501570" lon="-3.2985100">
        <ele>495.207977</ele>
        <time>2018-12-26T15:12:47.000Z</time>
      </trkpt>
      <trkpt lat="43.2502230" lon="-3.2985260">
        <ele>495.817993</ele>
        <time>2018-12-26T15:12:49.000Z</time>
      </trkpt>
      <trkpt lat="43.2502840" lon="-3.2985310">
        <ele>496.746002</ele>
        <time>2018-12-26T15:12:51.000Z</time>
      </trkpt>
      <trkpt lat="43.2503410" lon="-3.2985050">
        <ele>498.210999</ele>
        <time>2018-12-26T15:12:54.000Z</time>
      </trkpt>
      <trkpt lat="43.2503820" lon="-3.2984790">
        <ele>498.749023</ele>
        <time>2018-12-26T15:12:56.000Z</time>
      </trkpt>
      <trkpt lat="43.2504260" lon="-3.2984470">
        <ele>499.355011</ele>
        <time>2018-12-26T15:12:58.000Z</time>
      </trkpt>
      <trkpt lat="43.2504730" lon="-3.2984130">
        <ele>500.398010</ele>
        <time>2018-12-26T15:13:00.000Z</time>
      </trkpt>
      <trkpt lat="43.2505220" lon="-3.2983900">
        <ele>501.539978</ele>
        <time>2018-12-26T15:13:02.000Z</time>
      </trkpt>
      <trkpt lat="43.2505730" lon="-3.2983860">
        <ele>502.283997</ele>
        <time>2018-12-26T15:13:04.000Z</time>
      </trkpt>
      <trkpt lat="43.2506330" lon="-3.2983880">
        <ele>503.199005</ele>
        <time>2018-12-26T15:13:07.000Z</time>
      </trkpt>
      <trkpt lat="43.2506840" lon="-3.2983990">
        <ele>503.006989</ele>
        <time>2018-12-26T15:13:09.000Z</time>
      </trkpt>
      <trkpt lat="43.2507360" lon="-3.2984130">
        <ele>503.527008</ele>
        <time>2018-12-26T15:13:11.000Z</time>
      </trkpt>
      <trkpt lat="43.2507820" lon="-3.2984240">
        <ele>504.407990</ele>
        <time>2018-12-26T15:13:13.000Z</time>
      </trkpt>
      <trkpt lat="43.2508270" lon="-3.2984210">
        <ele>504.032013</ele>
        <time>2018-12-26T15:13:17.000Z</time>
      </trkpt>
      <trkpt lat="43.2508820" lon="-3.2984460">
        <ele>504.369995</ele>
        <time>2018-12-26T15:13:52.000Z</time>
      </trkpt>
      <trkpt lat="43.2509310" lon="-3.2984470">
        <ele>504.675018</ele>
        <time>2018-12-26T15:13:55.000Z</time>
      </trkpt>
      <trkpt lat="43.2509770" lon="-3.2984610">
        <ele>505.332977</ele>
        <time>2018-12-26T15:14:02.000Z</time>
      </trkpt>
      <trkpt lat="43.2510360" lon="-3.2984660">
        <ele>505.428986</ele>
        <time>2018-12-26T15:14:05.000Z</time>
      </trkpt>
      <trkpt lat="43.2510950" lon="-3.2984530">
        <ele>505.981995</ele>
        <time>2018-12-26T15:14:08.000Z</time>
      </trkpt>
      <trkpt lat="43.2511430" lon="-3.2984360">
        <ele>506.344025</ele>
        <time>2018-12-26T15:14:10.000Z</time>
      </trkpt>
      <trkpt lat="43.2511870" lon="-3.2984190">
        <ele>506.377991</ele>
        <time>2018-12-26T15:14:12.000Z</time>
      </trkpt>
      <trkpt lat="43.2512500" lon="-3.2983780">
        <ele>506.945984</ele>
        <time>2018-12-26T15:14:15.000Z</time>
      </trkpt>
      <trkpt lat="43.2513060" lon="-3.2983240">
        <ele>507.787994</ele>
        <time>2018-12-26T15:14:18.000Z</time>
      </trkpt>
      <trkpt lat="43.2513470" lon="-3.2982740">
        <ele>508.615997</ele>
        <time>2018-12-26T15:14:20.000Z</time>
      </trkpt>
      <trkpt lat="43.2514040" lon="-3.2982230">
        <ele>509.608002</ele>
        <time>2018-12-26T15:14:22.000Z</time>
      </trkpt>
      <trkpt lat="43.2514670" lon="-3.2981890">
        <ele>511.127014</ele>
        <time>2018-12-26T15:14:24.000Z</time>
      </trkpt>
      <trkpt lat="43.2515400" lon="-3.2981630">
        <ele>511.574982</ele>
        <time>2018-12-26T15:14:26.000Z</time>
      </trkpt>
      <trkpt lat="43.2516080" lon="-3.2981500">
        <ele>512.969971</ele>
        <time>2018-12-26T15:14:28.000Z</time>
      </trkpt>
      <trkpt lat="43.2516870" lon="-3.2981370">
        <ele>513.418030</ele>
        <time>2018-12-26T15:14:30.000Z</time>
      </trkpt>
      <trkpt lat="43.2517480" lon="-3.2981280">
        <ele>514.824036</ele>
        <time>2018-12-26T15:14:32.000Z</time>
      </trkpt>
      <trkpt lat="43.2518160" lon="-3.2981260">
        <ele>515.497009</ele>
        <time>2018-12-26T15:14:34.000Z</time>
      </trkpt>
      <trkpt lat="43.2518710" lon="-3.2981400">
        <ele>516.558960</ele>
        <time>2018-12-26T15:14:36.000Z</time>
      </trkpt>
      <trkpt lat="43.2519320" lon="-3.2981530">
        <ele>517.622986</ele>
        <time>2018-12-26T15:14:38.000Z</time>
      </trkpt>
      <trkpt lat="43.2519970" lon="-3.2981760">
        <ele>518.763977</ele>
        <time>2018-12-26T15:14:40.000Z</time>
      </trkpt>
      <trkpt lat="43.2520620" lon="-3.2981980">
        <ele>519.406006</ele>
        <time>2018-12-26T15:14:42.000Z</time>
      </trkpt>
      <trkpt lat="43.2521150" lon="-3.2982300">
        <ele>519.615967</ele>
        <time>2018-12-26T15:14:44.000Z</time>
      </trkpt>
      <trkpt lat="43.2521700" lon="-3.2982700">
        <ele>520.408020</ele>
        <time>2018-12-26T15:14:47.000Z</time>
      </trkpt>
      <trkpt lat="43.2522090" lon="-3.2983020">
        <ele>520.749023</ele>
        <time>2018-12-26T15:14:51.000Z</time>
      </trkpt>
      <trkpt lat="43.2521880" lon="-3.2984030">
        <ele>520.927002</ele>
        <time>2018-12-26T15:15:02.000Z</time>
      </trkpt>
      <trkpt lat="43.2521780" lon="-3.2984670">
        <ele>521.742004</ele>
        <time>2018-12-26T15:15:04.000Z</time>
      </trkpt>
      <trkpt lat="43.2521980" lon="-3.2985480">
        <ele>523.059998</ele>
        <time>2018-12-26T15:15:07.000Z</time>
      </trkpt>
      <trkpt lat="43.2522410" lon="-3.2985730">
        <ele>523.385986</ele>
        <time>2018-12-26T15:16:14.000Z</time>
      </trkpt>
      <trkpt lat="43.2522900" lon="-3.2986090">
        <ele>523.468994</ele>
        <time>2018-12-26T15:16:18.000Z</time>
      </trkpt>
      <trkpt lat="43.2523420" lon="-3.2986500">
        <ele>524.031006</ele>
        <time>2018-12-26T15:16:21.000Z</time>
      </trkpt>
      <trkpt lat="43.2523970" lon="-3.2986890">
        <ele>524.334961</ele>
        <time>2018-12-26T15:16:24.000Z</time>
      </trkpt>
      <trkpt lat="43.2524400" lon="-3.2987380">
        <ele>525.973022</ele>
        <time>2018-12-26T15:16:26.000Z</time>
      </trkpt>
      <trkpt lat="43.2524960" lon="-3.2987970">
        <ele>526.885010</ele>
        <time>2018-12-26T15:16:28.000Z</time>
      </trkpt>
      <trkpt lat="43.2525460" lon="-3.2988520">
        <ele>527.213013</ele>
        <time>2018-12-26T15:16:30.000Z</time>
      </trkpt>
      <trkpt lat="43.2525970" lon="-3.2989000">
        <ele>527.507996</ele>
        <time>2018-12-26T15:16:32.000Z</time>
      </trkpt>
      <trkpt lat="43.2526590" lon="-3.2989130">
        <ele>527.960022</ele>
        <time>2018-12-26T15:16:34.000Z</time>
      </trkpt>
      <trkpt lat="43.2527080" lon="-3.2989050">
        <ele>528.467957</ele>
        <time>2018-12-26T15:16:36.000Z</time>
      </trkpt>
      <trkpt lat="43.2527610" lon="-3.2988850">
        <ele>528.072998</ele>
        <time>2018-12-26T15:16:38.000Z</time>
      </trkpt>
      <trkpt lat="43.2528130" lon="-3.2988610">
        <ele>529.360962</ele>
        <time>2018-12-26T15:16:40.000Z</time>
      </trkpt>
      <trkpt lat="43.2528620" lon="-3.2988340">
        <ele>529.156982</ele>
        <time>2018-12-26T15:16:42.000Z</time>
      </trkpt>
      <trkpt lat="43.2529120" lon="-3.2988010">
        <ele>530.440002</ele>
        <time>2018-12-26T15:16:44.000Z</time>
      </trkpt>
      <trkpt lat="43.2529680" lon="-3.2987710">
        <ele>530.911987</ele>
        <time>2018-12-26T15:16:46.000Z</time>
      </trkpt>
      <trkpt lat="43.2530250" lon="-3.2987210">
        <ele>531.085999</ele>
        <time>2018-12-26T15:16:48.000Z</time>
      </trkpt>
      <trkpt lat="43.2530800" lon="-3.2987000">
        <ele>531.731995</ele>
        <time>2018-12-26T15:16:50.000Z</time>
      </trkpt>
      <trkpt lat="43.2531260" lon="-3.2986740">
        <ele>532.892029</ele>
        <time>2018-12-26T15:16:52.000Z</time>
      </trkpt>
      <trkpt lat="43.2531740" lon="-3.2986580">
        <ele>533.310974</ele>
        <time>2018-12-26T15:16:54.000Z</time>
      </trkpt>
      <trkpt lat="43.2532270" lon="-3.2986500">
        <ele>532.908020</ele>
        <time>2018-12-26T15:16:56.000Z</time>
      </trkpt>
      <trkpt lat="43.2532920" lon="-3.2986550">
        <ele>534.246033</ele>
        <time>2018-12-26T15:16:58.000Z</time>
      </trkpt>
      <trkpt lat="43.2533620" lon="-3.2986730">
        <ele>535.263977</ele>
        <time>2018-12-26T15:17:00.000Z</time>
      </trkpt>
      <trkpt lat="43.2534290" lon="-3.2986890">
        <ele>535.528992</ele>
        <time>2018-12-26T15:17:02.000Z</time>
      </trkpt>
      <trkpt lat="43.2534950" lon="-3.2986840">
        <ele>536.816956</ele>
        <time>2018-12-26T15:17:04.000Z</time>
      </trkpt>
      <trkpt lat="43.2535560" lon="-3.2986510">
        <ele>536.963013</ele>
        <time>2018-12-26T15:17:06.000Z</time>
      </trkpt>
      <trkpt lat="43.2536070" lon="-3.2986230">
        <ele>537.496033</ele>
        <time>2018-12-26T15:17:08.000Z</time>
      </trkpt>
      <trkpt lat="43.2536560" lon="-3.2985710">
        <ele>539.467957</ele>
        <time>2018-12-26T15:17:10.000Z</time>
      </trkpt>
      <trkpt lat="43.2537070" lon="-3.2984970">
        <ele>539.132019</ele>
        <time>2018-12-26T15:17:12.000Z</time>
      </trkpt>
      <trkpt lat="43.2537340" lon="-3.2984360">
        <ele>540.764954</ele>
        <time>2018-12-26T15:17:14.000Z</time>
      </trkpt>
      <trkpt lat="43.2537620" lon="-3.2983880">
        <ele>541.268005</ele>
        <time>2018-12-26T15:17:16.000Z</time>
      </trkpt>
      <trkpt lat="43.2538100" lon="-3.2983380">
        <ele>542.514038</ele>
        <time>2018-12-26T15:17:19.000Z</time>
      </trkpt>
      <trkpt lat="43.2538630" lon="-3.2982930">
        <ele>543.908020</ele>
        <time>2018-12-26T15:17:22.000Z</time>
      </trkpt>
      <trkpt lat="43.2539070" lon="-3.2982650">
        <ele>544.989014</ele>
        <time>2018-12-26T15:17:24.000Z</time>
      </trkpt>
      <trkpt lat="43.2539450" lon="-3.2982240">
        <ele>545.437012</ele>
        <time>2018-12-26T15:17:26.000Z</time>
      </trkpt>
      <trkpt lat="43.2539840" lon="-3.2981860">
        <ele>545.612000</ele>
        <time>2018-12-26T15:17:28.000Z</time>
      </trkpt>
      <trkpt lat="43.2540370" lon="-3.2981180">
        <ele>547.669983</ele>
        <time>2018-12-26T15:17:31.000Z</time>
      </trkpt>
      <trkpt lat="43.2540690" lon="-3.2980700">
        <ele>548.445984</ele>
        <time>2018-12-26T15:17:33.000Z</time>
      </trkpt>
      <trkpt lat="43.2541040" lon="-3.2979910">
        <ele>549.768982</ele>
        <time>2018-12-26T15:17:36.000Z</time>
      </trkpt>
      <trkpt lat="43.2541370" lon="-3.2979260">
        <ele>550.531006</ele>
        <time>2018-12-26T15:17:39.000Z</time>
      </trkpt>
      <trkpt lat="43.2541800" lon="-3.2978490">
        <ele>551.544983</ele>
        <time>2018-12-26T15:17:42.000Z</time>
      </trkpt>
      <trkpt lat="43.2542020" lon="-3.2977690">
        <ele>552.669006</ele>
        <time>2018-12-26T15:17:45.000Z</time>
      </trkpt>
      <trkpt lat="43.2542190" lon="-3.2976860">
        <ele>555.004028</ele>
        <time>2018-12-26T15:17:48.000Z</time>
      </trkpt>
      <trkpt lat="43.2542330" lon="-3.2976070">
        <ele>556.924011</ele>
        <time>2018-12-26T15:17:51.000Z</time>
      </trkpt>
      <trkpt lat="43.2542670" lon="-3.2975280">
        <ele>557.908020</ele>
        <time>2018-12-26T15:17:54.000Z</time>
      </trkpt>
      <trkpt lat="43.2543110" lon="-3.2974610">
        <ele>558.889038</ele>
        <time>2018-12-26T15:17:57.000Z</time>
      </trkpt>
      <trkpt lat="43.2543670" lon="-3.2974160">
        <ele>560.257019</ele>
        <time>2018-12-26T15:18:00.000Z</time>
      </trkpt>
      <trkpt lat="43.2544300" lon="-3.2973890">
        <ele>561.581970</ele>
        <time>2018-12-26T15:18:03.000Z</time>
      </trkpt>
      <trkpt lat="43.2544750" lon="-3.2973830">
        <ele>562.719971</ele>
        <time>2018-12-26T15:18:05.000Z</time>
      </trkpt>
      <trkpt lat="43.2545380" lon="-3.2973780">
        <ele>562.756042</ele>
        <time>2018-12-26T15:18:08.000Z</time>
      </trkpt>
      <trkpt lat="43.2545830" lon="-3.2973720">
        <ele>563.129028</ele>
        <time>2018-12-26T15:18:10.000Z</time>
      </trkpt>
      <trkpt lat="43.2546350" lon="-3.2973790">
        <ele>564.621033</ele>
        <time>2018-12-26T15:18:12.000Z</time>
      </trkpt>
      <trkpt lat="43.2546860" lon="-3.2973860">
        <ele>564.945007</ele>
        <time>2018-12-26T15:18:14.000Z</time>
      </trkpt>
      <trkpt lat="43.2547340" lon="-3.2973940">
        <ele>565.059021</ele>
        <time>2018-12-26T15:18:16.000Z</time>
      </trkpt>
      <trkpt lat="43.2547820" lon="-3.2973990">
        <ele>566.403015</ele>
        <time>2018-12-26T15:18:18.000Z</time>
      </trkpt>
      <trkpt lat="43.2548310" lon="-3.2974060">
        <ele>567.122986</ele>
        <time>2018-12-26T15:18:20.000Z</time>
      </trkpt>
      <trkpt lat="43.2548780" lon="-3.2974010">
        <ele>567.708008</ele>
        <time>2018-12-26T15:18:22.000Z</time>
      </trkpt>
      <trkpt lat="43.2549270" lon="-3.2974040">
        <ele>567.898010</ele>
        <time>2018-12-26T15:18:24.000Z</time>
      </trkpt>
      <trkpt lat="43.2549800" lon="-3.2974130">
        <ele>568.375977</ele>
        <time>2018-12-26T15:18:26.000Z</time>
      </trkpt>
      <trkpt lat="43.2550250" lon="-3.2974250">
        <ele>569.481018</ele>
        <time>2018-12-26T15:18:28.000Z</time>
      </trkpt>
      <trkpt lat="43.2550730" lon="-3.2974500">
        <ele>569.639038</ele>
        <time>2018-12-26T15:18:30.000Z</time>
      </trkpt>
      <trkpt lat="43.2551350" lon="-3.2974800">
        <ele>569.755005</ele>
        <time>2018-12-26T15:18:33.000Z</time>
      </trkpt>
      <trkpt lat="43.2551990" lon="-3.2975190">
        <ele>570.648010</ele>
        <time>2018-12-26T15:18:36.000Z</time>
      </trkpt>
      <trkpt lat="43.2552610" lon="-3.2975480">
        <ele>571.250000</ele>
        <time>2018-12-26T15:18:39.000Z</time>
      </trkpt>
      <trkpt lat="43.2553020" lon="-3.2975730">
        <ele>571.174011</ele>
        <time>2018-12-26T15:18:41.000Z</time>
      </trkpt>
      <trkpt lat="43.2553480" lon="-3.2975820">
        <ele>571.286011</ele>
        <time>2018-12-26T15:18:45.000Z</time>
      </trkpt>
      <trkpt lat="43.2553950" lon="-3.2976220">
        <ele>571.760010</ele>
        <time>2018-12-26T15:20:16.000Z</time>
      </trkpt>
      <trkpt lat="43.2554250" lon="-3.2976680">
        <ele>572.726013</ele>
        <time>2018-12-26T15:20:18.000Z</time>
      </trkpt>
      <trkpt lat="43.2554690" lon="-3.2977440">
        <ele>573.208008</ele>
        <time>2018-12-26T15:20:21.000Z</time>
      </trkpt>
      <trkpt lat="43.2554990" lon="-3.2977920">
        <ele>573.120972</ele>
        <time>2018-12-26T15:20:23.000Z</time>
      </trkpt>
      <trkpt lat="43.2555330" lon="-3.2978640">
        <ele>573.238953</ele>
        <time>2018-12-26T15:20:26.000Z</time>
      </trkpt>
      <trkpt lat="43.2555650" lon="-3.2979160">
        <ele>573.133972</ele>
        <time>2018-12-26T15:20:28.000Z</time>
      </trkpt>
      <trkpt lat="43.2556000" lon="-3.2979720">
        <ele>573.981995</ele>
        <time>2018-12-26T15:20:30.000Z</time>
      </trkpt>
      <trkpt lat="43.2556250" lon="-3.2980250">
        <ele>573.847961</ele>
        <time>2018-12-26T15:20:32.000Z</time>
      </trkpt>
      <trkpt lat="43.2556530" lon="-3.2980890">
        <ele>573.651001</ele>
        <time>2018-12-26T15:20:34.000Z</time>
      </trkpt>
      <trkpt lat="43.2556820" lon="-3.2981600">
        <ele>574.752991</ele>
        <time>2018-12-26T15:20:36.000Z</time>
      </trkpt>
      <trkpt lat="43.2557170" lon="-3.2982250">
        <ele>573.927002</ele>
        <time>2018-12-26T15:20:38.000Z</time>
      </trkpt>
      <trkpt lat="43.2557610" lon="-3.2982940">
        <ele>574.794006</ele>
        <time>2018-12-26T15:20:40.000Z</time>
      </trkpt>
      <trkpt lat="43.2558100" lon="-3.2983530">
        <ele>574.456970</ele>
        <time>2018-12-26T15:20:42.000Z</time>
      </trkpt>
      <trkpt lat="43.2558630" lon="-3.2983970">
        <ele>573.921997</ele>
        <time>2018-12-26T15:20:44.000Z</time>
      </trkpt>
      <trkpt lat="43.2559250" lon="-3.2984230">
        <ele>573.807983</ele>
        <time>2018-12-26T15:20:46.000Z</time>
      </trkpt>
      <trkpt lat="43.2559920" lon="-3.2984450">
        <ele>574.261963</ele>
        <time>2018-12-26T15:20:48.000Z</time>
      </trkpt>
      <trkpt lat="43.2560740" lon="-3.2984700">
        <ele>574.710022</ele>
        <time>2018-12-26T15:20:50.000Z</time>
      </trkpt>
      <trkpt lat="43.2561390" lon="-3.2984860">
        <ele>574.164978</ele>
        <time>2018-12-26T15:20:52.000Z</time>
      </trkpt>
      <trkpt lat="43.2561980" lon="-3.2984970">
        <ele>573.593018</ele>
        <time>2018-12-26T15:20:54.000Z</time>
      </trkpt>
      <trkpt lat="43.2562560" lon="-3.2985170">
        <ele>573.498962</ele>
        <time>2018-12-26T15:20:56.000Z</time>
      </trkpt>
      <trkpt lat="43.2563170" lon="-3.2985260">
        <ele>573.522034</ele>
        <time>2018-12-26T15:20:58.000Z</time>
      </trkpt>
      <trkpt lat="43.2563790" lon="-3.2985470">
        <ele>574.564026</ele>
        <time>2018-12-26T15:21:00.000Z</time>
      </trkpt>
      <trkpt lat="43.2564370" lon="-3.2985620">
        <ele>574.447998</ele>
        <time>2018-12-26T15:21:02.000Z</time>
      </trkpt>
      <trkpt lat="43.2564990" lon="-3.2985820">
        <ele>575.591003</ele>
        <time>2018-12-26T15:21:04.000Z</time>
      </trkpt>
      <trkpt lat="43.2565580" lon="-3.2986030">
        <ele>576.481018</ele>
        <time>2018-12-26T15:21:06.000Z</time>
      </trkpt>
      <trkpt lat="43.2566230" lon="-3.2986310">
        <ele>577.018982</ele>
        <time>2018-12-26T15:21:08.000Z</time>
      </trkpt>
      <trkpt lat="43.2566900" lon="-3.2986580">
        <ele>577.708008</ele>
        <time>2018-12-26T15:21:10.000Z</time>
      </trkpt>
      <trkpt lat="43.2567630" lon="-3.2986840">
        <ele>578.341980</ele>
        <time>2018-12-26T15:21:12.000Z</time>
      </trkpt>
      <trkpt lat="43.2568220" lon="-3.2987040">
        <ele>578.869995</ele>
        <time>2018-12-26T15:21:14.000Z</time>
      </trkpt>
      <trkpt lat="43.2568780" lon="-3.2987280">
        <ele>579.665039</ele>
        <time>2018-12-26T15:21:16.000Z</time>
      </trkpt>
      <trkpt lat="43.2569300" lon="-3.2987540">
        <ele>579.853027</ele>
        <time>2018-12-26T15:21:18.000Z</time>
      </trkpt>
      <trkpt lat="43.2569850" lon="-3.2987760">
        <ele>580.489014</ele>
        <time>2018-12-26T15:21:20.000Z</time>
      </trkpt>
      <trkpt lat="43.2570410" lon="-3.2988070">
        <ele>580.531982</ele>
        <time>2018-12-26T15:21:22.000Z</time>
      </trkpt>
      <trkpt lat="43.2570910" lon="-3.2988420">
        <ele>581.384033</ele>
        <time>2018-12-26T15:21:24.000Z</time>
      </trkpt>
      <trkpt lat="43.2571370" lon="-3.2988690">
        <ele>581.778015</ele>
        <time>2018-12-26T15:21:26.000Z</time>
      </trkpt>
      <trkpt lat="43.2571850" lon="-3.2989050">
        <ele>582.151978</ele>
        <time>2018-12-26T15:21:28.000Z</time>
      </trkpt>
      <trkpt lat="43.2572410" lon="-3.2989460">
        <ele>582.153015</ele>
        <time>2018-12-26T15:21:30.000Z</time>
      </trkpt>
      <trkpt lat="43.2572900" lon="-3.2989830">
        <ele>582.708008</ele>
        <time>2018-12-26T15:21:32.000Z</time>
      </trkpt>
      <trkpt lat="43.2573520" lon="-3.2990080">
        <ele>583.007996</ele>
        <time>2018-12-26T15:21:34.000Z</time>
      </trkpt>
      <trkpt lat="43.2573950" lon="-3.2990360">
        <ele>583.728027</ele>
        <time>2018-12-26T15:21:36.000Z</time>
      </trkpt>
      <trkpt lat="43.2574510" lon="-3.2990610">
        <ele>584.026001</ele>
        <time>2018-12-26T15:21:39.000Z</time>
      </trkpt>
      <trkpt lat="43.2574920" lon="-3.2990960">
        <ele>584.551025</ele>
        <time>2018-12-26T15:21:41.000Z</time>
      </trkpt>
      <trkpt lat="43.2575360" lon="-3.2991200">
        <ele>584.979004</ele>
        <time>2018-12-26T15:21:43.000Z</time>
      </trkpt>
      <trkpt lat="43.2575870" lon="-3.2991450">
        <ele>585.085022</ele>
        <time>2018-12-26T15:21:45.000Z</time>
      </trkpt>
      <trkpt lat="43.2576420" lon="-3.2991720">
        <ele>585.127991</ele>
        <time>2018-12-26T15:21:47.000Z</time>
      </trkpt>
      <trkpt lat="43.2576860" lon="-3.2991610">
        <ele>584.419983</ele>
        <time>2018-12-26T15:21:49.000Z</time>
      </trkpt>
      <trkpt lat="43.2577350" lon="-3.2991380">
        <ele>585.973999</ele>
        <time>2018-12-26T15:21:51.000Z</time>
      </trkpt>
      <trkpt lat="43.2577890" lon="-3.2990980">
        <ele>585.627014</ele>
        <time>2018-12-26T15:21:53.000Z</time>
      </trkpt>
      <trkpt lat="43.2578390" lon="-3.2990540">
        <ele>586.567993</ele>
        <time>2018-12-26T15:21:55.000Z</time>
      </trkpt>
      <trkpt lat="43.2578830" lon="-3.2990170">
        <ele>586.814026</ele>
        <time>2018-12-26T15:21:57.000Z</time>
      </trkpt>
      <trkpt lat="43.2579350" lon="-3.2989870">
        <ele>587.507996</ele>
        <time>2018-12-26T15:21:59.000Z</time>
      </trkpt>
      <trkpt lat="43.2579860" lon="-3.2989650">
        <ele>587.534973</ele>
        <time>2018-12-26T15:22:01.000Z</time>
      </trkpt>
      <trkpt lat="43.2580380" lon="-3.2989360">
        <ele>588.062988</ele>
        <time>2018-12-26T15:22:03.000Z</time>
      </trkpt>
      <trkpt lat="43.2581040" lon="-3.2989100">
        <ele>588.937988</ele>
        <time>2018-12-26T15:22:05.000Z</time>
      </trkpt>
      <trkpt lat="43.2581620" lon="-3.2988910">
        <ele>588.876038</ele>
        <time>2018-12-26T15:22:07.000Z</time>
      </trkpt>
      <trkpt lat="43.2582390" lon="-3.2989060">
        <ele>589.442017</ele>
        <time>2018-12-26T15:22:09.000Z</time>
      </trkpt>
      <trkpt lat="43.2582940" lon="-3.2989230">
        <ele>589.994995</ele>
        <time>2018-12-26T15:22:11.000Z</time>
      </trkpt>
      <trkpt lat="43.2583460" lon="-3.2989170">
        <ele>590.017029</ele>
        <time>2018-12-26T15:22:13.000Z</time>
      </trkpt>
      <trkpt lat="43.2584130" lon="-3.2988880">
        <ele>589.950989</ele>
        <time>2018-12-26T15:22:15.000Z</time>
      </trkpt>
      <trkpt lat="43.2584650" lon="-3.2988320">
        <ele>589.658020</ele>
        <time>2018-12-26T15:22:17.000Z</time>
      </trkpt>
      <trkpt lat="43.2585180" lon="-3.2987670">
        <ele>589.052002</ele>
        <time>2018-12-26T15:22:19.000Z</time>
      </trkpt>
      <trkpt lat="43.2585850" lon="-3.2986960">
        <ele>588.817017</ele>
        <time>2018-12-26T15:22:21.000Z</time>
      </trkpt>
      <trkpt lat="43.2586260" lon="-3.2986630">
        <ele>588.308044</ele>
        <time>2018-12-26T15:22:22.000Z</time>
      </trkpt>
      <trkpt lat="43.2586680" lon="-3.2986320">
        <ele>588.867981</ele>
        <time>2018-12-26T15:22:23.000Z</time>
      </trkpt>
      <trkpt lat="43.2587170" lon="-3.2985920">
        <ele>588.596008</ele>
        <time>2018-12-26T15:22:24.000Z</time>
      </trkpt>
      <trkpt lat="43.2587770" lon="-3.2985510">
        <ele>588.031006</ele>
        <time>2018-12-26T15:22:25.000Z</time>
      </trkpt>
      <trkpt lat="43.2589060" lon="-3.2984490">
        <ele>587.398987</ele>
        <time>2018-12-26T15:22:26.000Z</time>
      </trkpt>
      <trkpt lat="43.2589610" lon="-3.2983950">
        <ele>586.974976</ele>
        <time>2018-12-26T15:22:27.000Z</time>
      </trkpt>
      <trkpt lat="43.2590180" lon="-3.2983580">
        <ele>585.888000</ele>
        <time>2018-12-26T15:22:28.000Z</time>
      </trkpt>
      <trkpt lat="43.2590740" lon="-3.2983060">
        <ele>585.570007</ele>
        <time>2018-12-26T15:22:29.000Z</time>
      </trkpt>
      <trkpt lat="43.2591400" lon="-3.2982520">
        <ele>584.984009</ele>
        <time>2018-12-26T15:22:30.000Z</time>
      </trkpt>
      <trkpt lat="43.2592200" lon="-3.2982020">
        <ele>583.483032</ele>
        <time>2018-12-26T15:22:31.000Z</time>
      </trkpt>
      <trkpt lat="43.2593030" lon="-3.2981450">
        <ele>582.924988</ele>
        <time>2018-12-26T15:22:32.000Z</time>
      </trkpt>
      <trkpt lat="43.2594050" lon="-3.2980960">
        <ele>582.817017</ele>
        <time>2018-12-26T15:22:33.000Z</time>
      </trkpt>
      <trkpt lat="43.2595050" lon="-3.2980400">
        <ele>581.807983</ele>
        <time>2018-12-26T15:22:34.000Z</time>
      </trkpt>
      <trkpt lat="43.2595810" lon="-3.2979860">
        <ele>581.661011</ele>
        <time>2018-12-26T15:22:35.000Z</time>
      </trkpt>
      <trkpt lat="43.2596630" lon="-3.2979290">
        <ele>580.958984</ele>
        <time>2018-12-26T15:22:36.000Z</time>
      </trkpt>
      <trkpt lat="43.2597360" lon="-3.2978810">
        <ele>579.263977</ele>
        <time>2018-12-26T15:22:37.000Z</time>
      </trkpt>
      <trkpt lat="43.2597960" lon="-3.2978330">
        <ele>578.382019</ele>
        <time>2018-12-26T15:22:38.000Z</time>
      </trkpt>
      <trkpt lat="43.2598430" lon="-3.2977770">
        <ele>577.528015</ele>
        <time>2018-12-26T15:22:39.000Z</time>
      </trkpt>
      <trkpt lat="43.2598970" lon="-3.2977060">
        <ele>576.291016</ele>
        <time>2018-12-26T15:22:41.000Z</time>
      </trkpt>
      <trkpt lat="43.2599400" lon="-3.2976540">
        <ele>575.523010</ele>
        <time>2018-12-26T15:22:43.000Z</time>
      </trkpt>
      <trkpt lat="43.2599890" lon="-3.2975820">
        <ele>575.247009</ele>
        <time>2018-12-26T15:22:53.000Z</time>
      </trkpt>
      <trkpt lat="43.2600240" lon="-3.2975200">
        <ele>574.586975</ele>
        <time>2018-12-26T15:22:55.000Z</time>
      </trkpt>
      <trkpt lat="43.2600570" lon="-3.2973980">
        <ele>574.041992</ele>
        <time>2018-12-26T15:22:57.000Z</time>
      </trkpt>
      <trkpt lat="43.2600720" lon="-3.2973250">
        <ele>574.226013</ele>
        <time>2018-12-26T15:22:58.000Z</time>
      </trkpt>
      <trkpt lat="43.2601010" lon="-3.2972380">
        <ele>573.708008</ele>
        <time>2018-12-26T15:22:59.000Z</time>
      </trkpt>
      <trkpt lat="43.2601310" lon="-3.2971510">
        <ele>572.190979</ele>
        <time>2018-12-26T15:23:00.000Z</time>
      </trkpt>
      <trkpt lat="43.2601540" lon="-3.2970560">
        <ele>569.929016</ele>
        <time>2018-12-26T15:23:01.000Z</time>
      </trkpt>
      <trkpt lat="43.2601760" lon="-3.2969580">
        <ele>568.893982</ele>
        <time>2018-12-26T15:23:02.000Z</time>
      </trkpt>
      <trkpt lat="43.2601970" lon="-3.2968760">
        <ele>566.731995</ele>
        <time>2018-12-26T15:23:03.000Z</time>
      </trkpt>
      <trkpt lat="43.2602240" lon="-3.2968070">
        <ele>565.918030</ele>
        <time>2018-12-26T15:23:04.000Z</time>
      </trkpt>
      <trkpt lat="43.2602540" lon="-3.2967480">
        <ele>566.111023</ele>
        <time>2018-12-26T15:23:05.000Z</time>
      </trkpt>
      <trkpt lat="43.2602980" lon="-3.2967020">
        <ele>565.393005</ele>
        <time>2018-12-26T15:23:07.000Z</time>
      </trkpt>
      <trkpt lat="43.2603710" lon="-3.2965770">
        <ele>564.062012</ele>
        <time>2018-12-26T15:23:11.000Z</time>
      </trkpt>
      <trkpt lat="43.2604090" lon="-3.2965390">
        <ele>563.283020</ele>
        <time>2018-12-26T15:23:29.000Z</time>
      </trkpt>
      <trkpt lat="43.2604750" lon="-3.2965840">
        <ele>563.111023</ele>
        <time>2018-12-26T15:23:32.000Z</time>
      </trkpt>
      <trkpt lat="43.2605440" lon="-3.2966470">
        <ele>562.307983</ele>
        <time>2018-12-26T15:23:34.000Z</time>
      </trkpt>
      <trkpt lat="43.2605930" lon="-3.2967110">
        <ele>561.338989</ele>
        <time>2018-12-26T15:23:36.000Z</time>
      </trkpt>
      <trkpt lat="43.2606230" lon="-3.2967750">
        <ele>560.567017</ele>
        <time>2018-12-26T15:23:38.000Z</time>
      </trkpt>
      <trkpt lat="43.2606440" lon="-3.2968500">
        <ele>560.332031</ele>
        <time>2018-12-26T15:23:41.000Z</time>
      </trkpt>
      <trkpt lat="43.2606210" lon="-3.2968160">
        <ele>548.019043</ele>
        <time>2015-11-07T10:16:17.000Z</time>
      </trkpt>
      <trkpt lat="43.2605250" lon="-3.2967680">
        <ele>550.098999</ele>
        <time>2015-11-07T10:16:22.000Z</time>
      </trkpt>
      <trkpt lat="43.2604310" lon="-3.2967760">
        <ele>553.041016</ele>
        <time>2015-11-07T10:16:28.000Z</time>
      </trkpt>
      <trkpt lat="43.2603640" lon="-3.2968730">
        <ele>555.069031</ele>
        <time>2015-11-07T10:16:38.000Z</time>
      </trkpt>
      <trkpt lat="43.2603280" lon="-3.2970110">
        <ele>556.020020</ele>
        <time>2015-11-07T10:16:47.000Z</time>
      </trkpt>
      <trkpt lat="43.2603370" lon="-3.2971560">
        <ele>557.010010</ele>
        <time>2015-11-07T10:16:55.000Z</time>
      </trkpt>
      <trkpt lat="43.2603440" lon="-3.2972800">
        <ele>555.039001</ele>
        <time>2015-11-07T10:17:00.000Z</time>
      </trkpt>
      <trkpt lat="43.2603540" lon="-3.2974160">
        <ele>555.056030</ele>
        <time>2015-11-07T10:17:07.000Z</time>
      </trkpt>
      <trkpt lat="43.2603210" lon="-3.2975450">
        <ele>555.028992</ele>
        <time>2015-11-07T10:17:15.000Z</time>
      </trkpt>
      <trkpt lat="43.2603080" lon="-3.2976770">
        <ele>555.000000</ele>
        <time>2015-11-07T10:17:19.000Z</time>
      </trkpt>
      <trkpt lat="43.2602870" lon="-3.2978020">
        <ele>556.020020</ele>
        <time>2015-11-07T10:17:24.000Z</time>
      </trkpt>
      <trkpt lat="43.2602720" lon="-3.2979460">
        <ele>557.007996</ele>
        <time>2015-11-07T10:17:29.000Z</time>
      </trkpt>
      <trkpt lat="43.2602450" lon="-3.2980760">
        <ele>558.023010</ele>
        <time>2015-11-07T10:17:35.000Z</time>
      </trkpt>
      <trkpt lat="43.2602300" lon="-3.2982230">
        <ele>560.023010</ele>
        <time>2015-11-07T10:17:42.000Z</time>
      </trkpt>
      <trkpt lat="43.2602180" lon="-3.2983560">
        <ele>558.085022</ele>
        <time>2015-11-07T10:17:50.000Z</time>
      </trkpt>
      <trkpt lat="43.2602430" lon="-3.2984890">
        <ele>558.062988</ele>
        <time>2015-11-07T10:18:01.000Z</time>
      </trkpt>
      <trkpt lat="43.2603170" lon="-3.2985970">
        <ele>562.023987</ele>
        <time>2015-11-07T10:18:08.000Z</time>
      </trkpt>
      <trkpt lat="43.2603600" lon="-3.2987170">
        <ele>562.013977</ele>
        <time>2015-11-07T10:18:16.000Z</time>
      </trkpt>
      <trkpt lat="43.2604130" lon="-3.2988370">
        <ele>566.083008</ele>
        <time>2015-11-07T10:18:20.000Z</time>
      </trkpt>
      <trkpt lat="43.2604270" lon="-3.2989830">
        <ele>567.059998</ele>
        <time>2015-11-07T10:18:24.000Z</time>
      </trkpt>
      <trkpt lat="43.2604750" lon="-3.2991100">
        <ele>568.096008</ele>
        <time>2015-11-07T10:18:29.000Z</time>
      </trkpt>
      <trkpt lat="43.2605020" lon="-3.2992370">
        <ele>569.031006</ele>
        <time>2015-11-07T10:18:33.000Z</time>
      </trkpt>
      <trkpt lat="43.2605090" lon="-3.2993640">
        <ele>572.023987</ele>
        <time>2015-11-07T10:18:40.000Z</time>
      </trkpt>
      <trkpt lat="43.2605320" lon="-3.2994870">
        <ele>573.007996</ele>
        <time>2015-11-07T10:18:47.000Z</time>
      </trkpt>
      <trkpt lat="43.2605520" lon="-3.2996130">
        <ele>574.040039</ele>
        <time>2015-11-07T10:18:54.000Z</time>
      </trkpt>
      <trkpt lat="43.2605270" lon="-3.2997330">
        <ele>575.089966</ele>
        <time>2015-11-07T10:18:59.000Z</time>
      </trkpt>
      <trkpt lat="43.2605170" lon="-3.2998770">
        <ele>577.091980</ele>
        <time>2015-11-07T10:19:04.000Z</time>
      </trkpt>
      <trkpt lat="43.2605190" lon="-3.3000030">
        <ele>579.039978</ele>
        <time>2015-11-07T10:19:08.000Z</time>
      </trkpt>
      <trkpt lat="43.2605150" lon="-3.3001330">
        <ele>581.020996</ele>
        <time>2015-11-07T10:19:16.000Z</time>
      </trkpt>
      <trkpt lat="43.2605510" lon="-3.3002490">
        <ele>581.051025</ele>
        <time>2015-11-07T10:19:22.000Z</time>
      </trkpt>
      <trkpt lat="43.2606080" lon="-3.3003730">
        <ele>581.010010</ele>
        <time>2015-11-07T10:19:30.000Z</time>
      </trkpt>
      <trkpt lat="43.2606300" lon="-3.3005050">
        <ele>582.036987</ele>
        <time>2015-11-07T10:19:37.000Z</time>
      </trkpt>
      <trkpt lat="43.2606800" lon="-3.3006130">
        <ele>583.067017</ele>
        <time>2015-11-07T10:19:42.000Z</time>
      </trkpt>
      <trkpt lat="43.2607090" lon="-3.3007330">
        <ele>583.080994</ele>
        <time>2015-11-07T10:19:48.000Z</time>
      </trkpt>
      <trkpt lat="43.2607650" lon="-3.3008360">
        <ele>583.018982</ele>
        <time>2015-11-07T10:19:54.000Z</time>
      </trkpt>
      <trkpt lat="43.2608270" lon="-3.3009440">
        <ele>584.007996</ele>
        <time>2015-11-07T10:20:01.000Z</time>
      </trkpt>
      <trkpt lat="43.2608650" lon="-3.3010600">
        <ele>585.017029</ele>
        <time>2015-11-07T10:20:07.000Z</time>
      </trkpt>
      <trkpt lat="43.2608820" lon="-3.3011920">
        <ele>585.046997</ele>
        <time>2015-11-07T10:20:12.000Z</time>
      </trkpt>
      <trkpt lat="43.2608850" lon="-3.3013330">
        <ele>586.088989</ele>
        <time>2015-11-07T10:20:17.000Z</time>
      </trkpt>
      <trkpt lat="43.2608810" lon="-3.3014750">
        <ele>588.036987</ele>
        <time>2015-11-07T10:20:22.000Z</time>
      </trkpt>
      <trkpt lat="43.2608720" lon="-3.3016100">
        <ele>588.028015</ele>
        <time>2015-11-07T10:20:27.000Z</time>
      </trkpt>
      <trkpt lat="43.2608440" lon="-3.3017290">
        <ele>588.038025</ele>
        <time>2015-11-07T10:20:31.000Z</time>
      </trkpt>
      <trkpt lat="43.2608470" lon="-3.3018660">
        <ele>591.016968</ele>
        <time>2015-11-07T10:20:36.000Z</time>
      </trkpt>
      <trkpt lat="43.2608110" lon="-3.3019820">
        <ele>592.033997</ele>
        <time>2015-11-07T10:20:40.000Z</time>
      </trkpt>
      <trkpt lat="43.2607470" lon="-3.3020770">
        <ele>595.036011</ele>
        <time>2015-11-07T10:20:47.000Z</time>
      </trkpt>
      <trkpt lat="43.2606550" lon="-3.3021470">
        <ele>596.017029</ele>
        <time>2015-11-07T10:20:53.000Z</time>
      </trkpt>
      <trkpt lat="43.2605730" lon="-3.3022200">
        <ele>595.018005</ele>
        <time>2015-11-07T10:20:58.000Z</time>
      </trkpt>
      <trkpt lat="43.2605020" lon="-3.3023440">
        <ele>594.007996</ele>
        <time>2015-11-07T10:21:04.000Z</time>
      </trkpt>
      <trkpt lat="43.2604450" lon="-3.3024470">
        <ele>597.033997</ele>
        <time>2015-11-07T10:21:07.000Z</time>
      </trkpt>
      <trkpt lat="43.2603980" lon="-3.3025760">
        <ele>600.033997</ele>
        <time>2015-11-07T10:21:12.000Z</time>
      </trkpt>
      <trkpt lat="43.2603150" lon="-3.3026330">
        <ele>600.046021</ele>
        <time>2015-11-07T10:21:16.000Z</time>
      </trkpt>
      <trkpt lat="43.2602150" lon="-3.3026480">
        <ele>602.054016</ele>
        <time>2015-11-07T10:21:25.000Z</time>
      </trkpt>
      <trkpt lat="43.2601500" lon="-3.3027720">
        <ele>603.015015</ele>
        <time>2015-11-07T10:21:31.000Z</time>
      </trkpt>
      <trkpt lat="43.2601070" lon="-3.3028980">
        <ele>603.094971</ele>
        <time>2015-11-07T10:21:37.000Z</time>
      </trkpt>
      <trkpt lat="43.2600740" lon="-3.3027710">
        <ele>608.063965</ele>
        <time>2015-11-07T10:21:57.000Z</time>
      </trkpt>
      <trkpt lat="43.2601740" lon="-3.3027570">
        <ele>608.010986</ele>
        <time>2015-11-07T10:22:22.000Z</time>
      </trkpt>
      <trkpt lat="43.2601030" lon="-3.3026500">
        <ele>611.036987</ele>
        <time>2015-11-07T10:22:31.000Z</time>
      </trkpt>
      <trkpt lat="43.2600380" lon="-3.3025450">
        <ele>611.049011</ele>
        <time>2015-11-07T10:22:40.000Z</time>
      </trkpt>
      <trkpt lat="43.2600330" lon="-3.3024070">
        <ele>613.013000</ele>
        <time>2015-11-07T10:22:49.000Z</time>
      </trkpt>
      <trkpt lat="43.2600110" lon="-3.3022710">
        <ele>615.007996</ele>
        <time>2015-11-07T10:22:55.000Z</time>
      </trkpt>
      <trkpt lat="43.2599630" lon="-3.3021640">
        <ele>615.044006</ele>
        <time>2015-11-07T10:23:04.000Z</time>
      </trkpt>
      <trkpt lat="43.2599010" lon="-3.3020590">
        <ele>616.064026</ele>
        <time>2015-11-07T10:23:13.000Z</time>
      </trkpt>
      <trkpt lat="43.2598660" lon="-3.3019250">
        <ele>616.015991</ele>
        <time>2015-11-07T10:23:19.000Z</time>
      </trkpt>
      <trkpt lat="43.2598370" lon="-3.3017960">
        <ele>619.083984</ele>
        <time>2015-11-07T10:23:25.000Z</time>
      </trkpt>
      <trkpt lat="43.2597730" lon="-3.3016990">
        <ele>618.025024</ele>
        <time>2015-11-07T10:23:32.000Z</time>
      </trkpt>
      <trkpt lat="43.2596870" lon="-3.3016260">
        <ele>618.075012</ele>
        <time>2015-11-07T10:23:41.000Z</time>
      </trkpt>
      <trkpt lat="43.2596140" lon="-3.3017090">
        <ele>621.093994</ele>
        <time>2015-11-07T10:23:55.000Z</time>
      </trkpt>
      <trkpt lat="43.2596220" lon="-3.3018380">
        <ele>620.031006</ele>
        <time>2015-11-07T10:24:08.000Z</time>
      </trkpt>
      <trkpt lat="43.2596130" lon="-3.3019770">
        <ele>617.023987</ele>
        <time>2015-11-07T10:24:19.000Z</time>
      </trkpt>
      <trkpt lat="43.2596050" lon="-3.3021200">
        <ele>615.003967</ele>
        <time>2015-11-07T10:24:24.000Z</time>
      </trkpt>
      <trkpt lat="43.2595990" lon="-3.3022450">
        <ele>616.014038</ele>
        <time>2015-11-07T10:24:29.000Z</time>
      </trkpt>
      <trkpt lat="43.2595560" lon="-3.3023790">
        <ele>620.007996</ele>
        <time>2015-11-07T10:24:35.000Z</time>
      </trkpt>
      <trkpt lat="43.2595510" lon="-3.3025040">
        <ele>619.042969</ele>
        <time>2015-11-07T10:24:39.000Z</time>
      </trkpt>
      <trkpt lat="43.2595620" lon="-3.3026480">
        <ele>620.033020</ele>
        <time>2015-11-07T10:24:44.000Z</time>
      </trkpt>
      <trkpt lat="43.2595650" lon="-3.3027840">
        <ele>618.094971</ele>
        <time>2015-11-07T10:24:48.000Z</time>
      </trkpt>
      <trkpt lat="43.2595550" lon="-3.3029250">
        <ele>618.062988</ele>
        <time>2015-11-07T10:24:53.000Z</time>
      </trkpt>
      <trkpt lat="43.2595500" lon="-3.3030680">
        <ele>618.013977</ele>
        <time>2015-11-07T10:24:58.000Z</time>
      </trkpt>
      <trkpt lat="43.2595320" lon="-3.3031950">
        <ele>619.054016</ele>
        <time>2015-11-07T10:25:05.000Z</time>
      </trkpt>
      <trkpt lat="43.2595630" lon="-3.3033390">
        <ele>620.062988</ele>
        <time>2015-11-07T10:25:11.000Z</time>
      </trkpt>
      <trkpt lat="43.2596570" lon="-3.3033950">
        <ele>622.070007</ele>
        <time>2015-11-07T10:25:15.000Z</time>
      </trkpt>
      <trkpt lat="43.2597560" lon="-3.3034100">
        <ele>624.080994</ele>
        <time>2015-11-07T10:25:19.000Z</time>
      </trkpt>
      <trkpt lat="43.2598210" lon="-3.3034990">
        <ele>626.060974</ele>
        <time>2015-11-07T10:25:24.000Z</time>
      </trkpt>
      <trkpt lat="43.2598500" lon="-3.3036300">
        <ele>629.017029</ele>
        <time>2015-11-07T10:25:28.000Z</time>
      </trkpt>
      <trkpt lat="43.2599090" lon="-3.3037550">
        <ele>632.007996</ele>
        <time>2015-11-07T10:25:33.000Z</time>
      </trkpt>
      <trkpt lat="43.2599590" lon="-3.3038730">
        <ele>633.078979</ele>
        <time>2015-11-07T10:25:37.000Z</time>
      </trkpt>
      <trkpt lat="43.2600390" lon="-3.3039720">
        <ele>637.059021</ele>
        <time>2015-11-07T10:25:41.000Z</time>
      </trkpt>
      <trkpt lat="43.2601010" lon="-3.3040700">
        <ele>638.031006</ele>
        <time>2015-11-07T10:25:46.000Z</time>
      </trkpt>
      <trkpt lat="43.2601710" lon="-3.3041640">
        <ele>640.068970</ele>
        <time>2015-11-07T10:25:51.000Z</time>
      </trkpt>
      <trkpt lat="43.2602330" lon="-3.3042880">
        <ele>641.079956</ele>
        <time>2015-11-07T10:25:56.000Z</time>
      </trkpt>
      <trkpt lat="43.2603110" lon="-3.3043770">
        <ele>643.080017</ele>
        <time>2015-11-07T10:26:02.000Z</time>
      </trkpt>
      <trkpt lat="43.2603680" lon="-3.3044910">
        <ele>642.018982</ele>
        <time>2015-11-07T10:26:07.000Z</time>
      </trkpt>
      <trkpt lat="43.2603970" lon="-3.3046160">
        <ele>641.015991</ele>
        <time>2015-11-07T10:26:11.000Z</time>
      </trkpt>
      <trkpt lat="43.2604080" lon="-3.3047480">
        <ele>641.013977</ele>
        <time>2015-11-07T10:26:17.000Z</time>
      </trkpt>
      <trkpt lat="43.2604250" lon="-3.3048930">
        <ele>637.054016</ele>
        <time>2015-11-07T10:26:22.000Z</time>
      </trkpt>
      <trkpt lat="43.2604380" lon="-3.3050170">
        <ele>642.009033</ele>
        <time>2015-11-07T10:26:27.000Z</time>
      </trkpt>
      <trkpt lat="43.2604550" lon="-3.3051500">
        <ele>641.007996</ele>
        <time>2015-11-07T10:26:32.000Z</time>
      </trkpt>
      <trkpt lat="43.2604680" lon="-3.3052770">
        <ele>642.062012</ele>
        <time>2015-11-07T10:26:36.000Z</time>
      </trkpt>
      <trkpt lat="43.2605040" lon="-3.3054010">
        <ele>640.082031</ele>
        <time>2015-11-07T10:26:40.000Z</time>
      </trkpt>
      <trkpt lat="43.2605280" lon="-3.3055480">
        <ele>640.013977</ele>
        <time>2015-11-07T10:26:47.000Z</time>
      </trkpt>
      <trkpt lat="43.2605320" lon="-3.3056730">
        <ele>642.032043</ele>
        <time>2015-11-07T10:26:52.000Z</time>
      </trkpt>
      <trkpt lat="43.2605360" lon="-3.3058230">
        <ele>642.042969</ele>
        <time>2015-11-07T10:26:57.000Z</time>
      </trkpt>
      <trkpt lat="43.2605480" lon="-3.3059490">
        <ele>640.013000</ele>
        <time>2015-11-07T10:27:03.000Z</time>
      </trkpt>
      <trkpt lat="43.2605150" lon="-3.3060730">
        <ele>640.082031</ele>
        <time>2015-11-07T10:27:10.000Z</time>
      </trkpt>
      <trkpt lat="43.2604240" lon="-3.3061330">
        <ele>640.018982</ele>
        <time>2015-11-07T10:27:17.000Z</time>
      </trkpt>
      <trkpt lat="43.2603690" lon="-3.3060250">
        <ele>639.069031</ele>
        <time>2015-11-07T10:27:22.000Z</time>
      </trkpt>
      <trkpt lat="43.2604680" lon="-3.3060220">
        <ele>637.004028</ele>
        <time>2015-11-07T10:34:40.000Z</time>
      </trkpt>
      <trkpt lat="43.2605550" lon="-3.3059700">
        <ele>639.023987</ele>
        <time>2015-11-07T10:36:39.000Z</time>
      </trkpt>
      <trkpt lat="43.2605930" lon="-3.3060930">
        <ele>643.007996</ele>
        <time>2015-11-07T10:36:45.000Z</time>
      </trkpt>
      <trkpt lat="43.2605690" lon="-3.3062180">
        <ele>643.066956</ele>
        <time>2015-11-07T10:36:52.000Z</time>
      </trkpt>
      <trkpt lat="43.2606050" lon="-3.3063350">
        <ele>646.036987</ele>
        <time>2015-11-07T10:36:58.000Z</time>
      </trkpt>
      <trkpt lat="43.2606270" lon="-3.3064800">
        <ele>644.098999</ele>
        <time>2015-11-07T10:37:03.000Z</time>
      </trkpt>
      <trkpt lat="43.2606820" lon="-3.3066050">
        <ele>646.027039</ele>
        <time>2015-11-07T10:37:09.000Z</time>
      </trkpt>
      <trkpt lat="43.2607270" lon="-3.3067360">
        <ele>645.078003</ele>
        <time>2015-11-07T10:37:15.000Z</time>
      </trkpt>
      <trkpt lat="43.2607920" lon="-3.3068220">
        <ele>646.078003</ele>
        <time>2015-11-07T10:37:20.000Z</time>
      </trkpt>
      <trkpt lat="43.2608570" lon="-3.3069300">
        <ele>645.017029</ele>
        <time>2015-11-07T10:37:25.000Z</time>
      </trkpt>
      <trkpt lat="43.2609250" lon="-3.3070170">
        <ele>646.084045</ele>
        <time>2015-11-07T10:37:29.000Z</time>
      </trkpt>
      <trkpt lat="43.2609850" lon="-3.3071260">
        <ele>644.047974</ele>
        <time>2015-11-07T10:37:35.000Z</time>
      </trkpt>
      <trkpt lat="43.2610470" lon="-3.3072280">
        <ele>643.061035</ele>
        <time>2015-11-07T10:37:40.000Z</time>
      </trkpt>
      <trkpt lat="43.2611040" lon="-3.3073450">
        <ele>644.017029</ele>
        <time>2015-11-07T10:37:46.000Z</time>
      </trkpt>
      <trkpt lat="43.2611380" lon="-3.3074620">
        <ele>645.007996</ele>
        <time>2015-11-07T10:37:49.000Z</time>
      </trkpt>
      <trkpt lat="43.2611750" lon="-3.3075960">
        <ele>645.055054</ele>
        <time>2015-11-07T10:37:53.000Z</time>
      </trkpt>
      <trkpt lat="43.2612610" lon="-3.3076520">
        <ele>649.034973</ele>
        <time>2015-11-07T10:38:01.000Z</time>
      </trkpt>
      <trkpt lat="43.2613630" lon="-3.3076730">
        <ele>650.036987</ele>
        <time>2015-11-07T10:38:06.000Z</time>
      </trkpt>
      <trkpt lat="43.2614530" lon="-3.3076930">
        <ele>652.075012</ele>
        <time>2015-11-07T10:38:10.000Z</time>
      </trkpt>
      <trkpt lat="43.2615540" lon="-3.3077260">
        <ele>649.026001</ele>
        <time>2015-11-07T10:38:14.000Z</time>
      </trkpt>
      <trkpt lat="43.2616580" lon="-3.3077590">
        <ele>650.075989</ele>
        <time>2015-11-07T10:38:19.000Z</time>
      </trkpt>
      <trkpt lat="43.2617550" lon="-3.3077740">
        <ele>650.075012</ele>
        <time>2015-11-07T10:38:24.000Z</time>
      </trkpt>
      <trkpt lat="43.2618660" lon="-3.3077960">
        <ele>651.012024</ele>
        <time>2015-11-07T10:38:29.000Z</time>
      </trkpt>
      <trkpt lat="43.2619700" lon="-3.3078300">
        <ele>651.053040</ele>
        <time>2015-11-07T10:38:34.000Z</time>
      </trkpt>
      <trkpt lat="43.2620530" lon="-3.3078810">
        <ele>653.004028</ele>
        <time>2015-11-07T10:38:39.000Z</time>
      </trkpt>
      <trkpt lat="43.2621480" lon="-3.3079250">
        <ele>656.013977</ele>
        <time>2015-11-07T10:38:44.000Z</time>
      </trkpt>
      <trkpt lat="43.2622310" lon="-3.3079770">
        <ele>654.007996</ele>
        <time>2015-11-07T10:38:48.000Z</time>
      </trkpt>
      <trkpt lat="43.2623230" lon="-3.3080320">
        <ele>656.045959</ele>
        <time>2015-11-07T10:38:54.000Z</time>
      </trkpt>
      <trkpt lat="43.2623950" lon="-3.3081160">
        <ele>655.075989</ele>
        <time>2015-11-07T10:39:00.000Z</time>
      </trkpt>
      <trkpt lat="43.2624600" lon="-3.3082430">
        <ele>650.067993</ele>
        <time>2015-11-07T10:39:06.000Z</time>
      </trkpt>
      <trkpt lat="43.2625410" lon="-3.3083290">
        <ele>654.015991</ele>
        <time>2015-11-07T10:39:10.000Z</time>
      </trkpt>
      <trkpt lat="43.2626290" lon="-3.3083990">
        <ele>658.016968</ele>
        <time>2015-11-07T10:39:13.000Z</time>
      </trkpt>
      <trkpt lat="43.2627380" lon="-3.3084400">
        <ele>656.036987</ele>
        <time>2015-11-07T10:39:17.000Z</time>
      </trkpt>
      <trkpt lat="43.2628370" lon="-3.3084610">
        <ele>659.045959</ele>
        <time>2015-11-07T10:39:21.000Z</time>
      </trkpt>
      <trkpt lat="43.2629400" lon="-3.3084760">
        <ele>657.013000</ele>
        <time>2015-11-07T10:39:25.000Z</time>
      </trkpt>
      <trkpt lat="43.2630430" lon="-3.3084770">
        <ele>661.087036</ele>
        <time>2015-11-07T10:39:28.000Z</time>
      </trkpt>
      <trkpt lat="43.2631350" lon="-3.3084590">
        <ele>661.041992</ele>
        <time>2015-11-07T10:39:31.000Z</time>
      </trkpt>
      <trkpt lat="43.2632380" lon="-3.3084550">
        <ele>660.026001</ele>
        <time>2015-11-07T10:39:36.000Z</time>
      </trkpt>
      <trkpt lat="43.2633330" lon="-3.3084680">
        <ele>663.007996</ele>
        <time>2015-11-07T10:39:40.000Z</time>
      </trkpt>
      <trkpt lat="43.2634170" lon="-3.3085240">
        <ele>662.029053</ele>
        <time>2015-11-07T10:39:44.000Z</time>
      </trkpt>
      <trkpt lat="43.2635060" lon="-3.3085910">
        <ele>663.038940</ele>
        <time>2015-11-07T10:39:48.000Z</time>
      </trkpt>
      <trkpt lat="43.2636010" lon="-3.3086540">
        <ele>663.051025</ele>
        <time>2015-11-07T10:39:52.000Z</time>
      </trkpt>
      <trkpt lat="43.2636790" lon="-3.3087160">
        <ele>668.068970</ele>
        <time>2015-11-07T10:39:56.000Z</time>
      </trkpt>
      <trkpt lat="43.2637680" lon="-3.3088070">
        <ele>669.040039</ele>
        <time>2015-11-07T10:40:00.000Z</time>
      </trkpt>
      <trkpt lat="43.2638550" lon="-3.3088820">
        <ele>672.040039</ele>
        <time>2015-11-07T10:40:04.000Z</time>
      </trkpt>
      <trkpt lat="43.2639300" lon="-3.3089650">
        <ele>673.098999</ele>
        <time>2015-11-07T10:40:08.000Z</time>
      </trkpt>
      <trkpt lat="43.2640090" lon="-3.3090360">
        <ele>678.045959</ele>
        <time>2015-11-07T10:40:11.000Z</time>
      </trkpt>
      <trkpt lat="43.2641020" lon="-3.3090850">
        <ele>680.012939</ele>
        <time>2015-11-07T10:40:15.000Z</time>
      </trkpt>
      <trkpt lat="43.2641950" lon="-3.3090980">
        <ele>680.043030</ele>
        <time>2015-11-07T10:40:19.000Z</time>
      </trkpt>
      <trkpt lat="43.2642990" lon="-3.3090800">
        <ele>679.006958</ele>
        <time>2015-11-07T10:40:23.000Z</time>
      </trkpt>
      <trkpt lat="43.2643940" lon="-3.3090260">
        <ele>680.007996</ele>
        <time>2015-11-07T10:40:27.000Z</time>
      </trkpt>
      <trkpt lat="43.2645030" lon="-3.3089770">
        <ele>680.091980</ele>
        <time>2015-11-07T10:40:31.000Z</time>
      </trkpt>
      <trkpt lat="43.2646160" lon="-3.3089270">
        <ele>680.052063</ele>
        <time>2015-11-07T10:40:35.000Z</time>
      </trkpt>
      <trkpt lat="43.2647290" lon="-3.3089150">
        <ele>683.023987</ele>
        <time>2015-11-07T10:40:38.000Z</time>
      </trkpt>
      <trkpt lat="43.2648260" lon="-3.3088720">
        <ele>686.051941</ele>
        <time>2015-11-07T10:40:42.000Z</time>
      </trkpt>
      <trkpt lat="43.2649270" lon="-3.3087970">
        <ele>685.072998</ele>
        <time>2015-11-07T10:40:48.000Z</time>
      </trkpt>
      <trkpt lat="43.2650070" lon="-3.3087400">
        <ele>686.023010</ele>
        <time>2015-11-07T10:40:51.000Z</time>
      </trkpt>
      <trkpt lat="43.2651000" lon="-3.3086800">
        <ele>687.062012</ele>
        <time>2015-11-07T10:40:56.000Z</time>
      </trkpt>
      <trkpt lat="43.2651920" lon="-3.3087280">
        <ele>688.058960</ele>
        <time>2015-11-07T10:41:13.000Z</time>
      </trkpt>
      <trkpt lat="43.2652880" lon="-3.3087580">
        <ele>688.069031</ele>
        <time>2015-11-07T10:41:31.000Z</time>
      </trkpt>
      <trkpt lat="43.2653850" lon="-3.3088040">
        <ele>689.003967</ele>
        <time>2015-11-07T10:41:37.000Z</time>
      </trkpt>
      <trkpt lat="43.2654680" lon="-3.3088780">
        <ele>691.023987</ele>
        <time>2015-11-07T10:41:43.000Z</time>
      </trkpt>
      <trkpt lat="43.2655110" lon="-3.3090010">
        <ele>691.007996</ele>
        <time>2015-11-07T10:41:50.000Z</time>
      </trkpt>
      <trkpt lat="43.2655480" lon="-3.3091170">
        <ele>693.016968</ele>
        <time>2015-11-07T10:41:54.000Z</time>
      </trkpt>
      <trkpt lat="43.2656050" lon="-3.3092370">
        <ele>693.016968</ele>
        <time>2015-11-07T10:41:59.000Z</time>
      </trkpt>
      <trkpt lat="43.2656490" lon="-3.3093630">
        <ele>693.088989</ele>
        <time>2015-11-07T10:42:05.000Z</time>
      </trkpt>
      <trkpt lat="43.2657200" lon="-3.3094470">
        <ele>695.087036</ele>
        <time>2015-11-07T10:42:12.000Z</time>
      </trkpt>
      <trkpt lat="43.2658010" lon="-3.3095300">
        <ele>698.048035</ele>
        <time>2015-11-07T10:42:18.000Z</time>
      </trkpt>
      <trkpt lat="43.2658820" lon="-3.3096260">
        <ele>699.048035</ele>
        <time>2015-11-07T10:42:23.000Z</time>
      </trkpt>
      <trkpt lat="43.2659580" lon="-3.3097320">
        <ele>700.036987</ele>
        <time>2015-11-07T10:42:30.000Z</time>
      </trkpt>
      <trkpt lat="43.2660160" lon="-3.3098480">
        <ele>701.074036</ele>
        <time>2015-11-07T10:42:35.000Z</time>
      </trkpt>
      <trkpt lat="43.2660800" lon="-3.3099560">
        <ele>702.065002</ele>
        <time>2015-11-07T10:42:40.000Z</time>
      </trkpt>
      <trkpt lat="43.2661440" lon="-3.3100440">
        <ele>703.067993</ele>
        <time>2015-11-07T10:42:47.000Z</time>
      </trkpt>
      <trkpt lat="43.2662110" lon="-3.3101370">
        <ele>705.014038</ele>
        <time>2015-11-07T10:42:54.000Z</time>
      </trkpt>
      <trkpt lat="43.2662960" lon="-3.3102290">
        <ele>705.007996</ele>
        <time>2015-11-07T10:43:01.000Z</time>
      </trkpt>
      <trkpt lat="43.2663620" lon="-3.3103170">
        <ele>705.057007</ele>
        <time>2015-11-07T10:43:06.000Z</time>
      </trkpt>
      <trkpt lat="43.2664080" lon="-3.3104270">
        <ele>707.046997</ele>
        <time>2015-11-07T10:43:10.000Z</time>
      </trkpt>
      <trkpt lat="43.2664610" lon="-3.3105470">
        <ele>706.018982</ele>
        <time>2015-11-07T10:43:15.000Z</time>
      </trkpt>
      <trkpt lat="43.2665210" lon="-3.3106770">
        <ele>705.027039</ele>
        <time>2015-11-07T10:43:20.000Z</time>
      </trkpt>
      <trkpt lat="43.2665620" lon="-3.3108110">
        <ele>706.038025</ele>
        <time>2015-11-07T10:43:25.000Z</time>
      </trkpt>
      <trkpt lat="43.2666260" lon="-3.3109080">
        <ele>707.058044</ele>
        <time>2015-11-07T10:43:29.000Z</time>
      </trkpt>
      <trkpt lat="43.2666790" lon="-3.3110130">
        <ele>707.037048</ele>
        <time>2015-11-07T10:43:33.000Z</time>
      </trkpt>
      <trkpt lat="43.2667290" lon="-3.3111350">
        <ele>706.093994</ele>
        <time>2015-11-07T10:43:38.000Z</time>
      </trkpt>
      <trkpt lat="43.2668060" lon="-3.3112400">
        <ele>705.041016</ele>
        <time>2015-11-07T10:43:43.000Z</time>
      </trkpt>
      <trkpt lat="43.2668870" lon="-3.3113090">
        <ele>704.080994</ele>
        <time>2015-11-07T10:43:47.000Z</time>
      </trkpt>
      <trkpt lat="43.2669760" lon="-3.3113840">
        <ele>707.008972</ele>
        <time>2015-11-07T10:43:52.000Z</time>
      </trkpt>
      <trkpt lat="43.2670470" lon="-3.3114660">
        <ele>711.007996</ele>
        <time>2015-11-07T10:43:56.000Z</time>
      </trkpt>
      <trkpt lat="43.2671330" lon="-3.3115530">
        <ele>714.044983</ele>
        <time>2015-11-07T10:44:01.000Z</time>
      </trkpt>
      <trkpt lat="43.2672260" lon="-3.3116370">
        <ele>713.075012</ele>
        <time>2015-11-07T10:44:08.000Z</time>
      </trkpt>
      <trkpt lat="43.2672790" lon="-3.3117590">
        <ele>716.077026</ele>
        <time>2015-11-07T10:44:12.000Z</time>
      </trkpt>
      <trkpt lat="43.2673370" lon="-3.3118900">
        <ele>716.024963</ele>
        <time>2015-11-07T10:44:16.000Z</time>
      </trkpt>
      <trkpt lat="43.2673780" lon="-3.3120250">
        <ele>717.046021</ele>
        <time>2015-11-07T10:44:19.000Z</time>
      </trkpt>
      <trkpt lat="43.2674120" lon="-3.3121690">
        <ele>716.045959</ele>
        <time>2015-11-07T10:44:22.000Z</time>
      </trkpt>
      <trkpt lat="43.2674540" lon="-3.3123030">
        <ele>721.054993</ele>
        <time>2015-11-07T10:44:25.000Z</time>
      </trkpt>
      <trkpt lat="43.2675020" lon="-3.3124400">
        <ele>720.062012</ele>
        <time>2015-11-07T10:44:28.000Z</time>
      </trkpt>
      <trkpt lat="43.2675540" lon="-3.3125600">
        <ele>718.093994</ele>
        <time>2015-11-07T10:44:31.000Z</time>
      </trkpt>
      <trkpt lat="43.2676380" lon="-3.3126100">
        <ele>720.057007</ele>
        <time>2015-11-07T10:44:34.000Z</time>
      </trkpt>
      <trkpt lat="43.2677210" lon="-3.3127110">
        <ele>719.022034</ele>
        <time>2015-11-07T10:44:38.000Z</time>
      </trkpt>
      <trkpt lat="43.2677840" lon="-3.3128240">
        <ele>720.007996</ele>
        <time>2015-11-07T10:44:45.000Z</time>
      </trkpt>
      <trkpt lat="43.2678730" lon="-3.3128800">
        <ele>720.049988</ele>
        <time>2015-11-07T10:44:50.000Z</time>
      </trkpt>
      <trkpt lat="43.2679280" lon="-3.3129880">
        <ele>720.070007</ele>
        <time>2015-11-07T10:44:54.000Z</time>
      </trkpt>
      <trkpt lat="43.2679720" lon="-3.3131150">
        <ele>721.071960</ele>
        <time>2015-11-07T10:44:58.000Z</time>
      </trkpt>
      <trkpt lat="43.2680010" lon="-3.3132530">
        <ele>723.030029</ele>
        <time>2015-11-07T10:45:01.000Z</time>
      </trkpt>
      <trkpt lat="43.2680020" lon="-3.3133940">
        <ele>724.061035</ele>
        <time>2015-11-07T10:45:04.000Z</time>
      </trkpt>
      <trkpt lat="43.2680270" lon="-3.3135400">
        <ele>725.081055</ele>
        <time>2015-11-07T10:45:07.000Z</time>
      </trkpt>
      <trkpt lat="43.2680860" lon="-3.3136580">
        <ele>727.089966</ele>
        <time>2015-11-07T10:45:10.000Z</time>
      </trkpt>
      <trkpt lat="43.2681600" lon="-3.3137550">
        <ele>729.046997</ele>
        <time>2015-11-07T10:45:13.000Z</time>
      </trkpt>
      <trkpt lat="43.2682640" lon="-3.3138520">
        <ele>730.021973</ele>
        <time>2015-11-07T10:45:16.000Z</time>
      </trkpt>
      <trkpt lat="43.2683700" lon="-3.3138900">
        <ele>730.062012</ele>
        <time>2015-11-07T10:45:19.000Z</time>
      </trkpt>
      <trkpt lat="43.2684730" lon="-3.3138910">
        <ele>731.008057</ele>
        <time>2015-11-07T10:45:22.000Z</time>
      </trkpt>
      <trkpt lat="43.2685790" lon="-3.3138660">
        <ele>730.007996</ele>
        <time>2015-11-07T10:45:25.000Z</time>
      </trkpt>
      <trkpt lat="43.2686790" lon="-3.3138190">
        <ele>732.013000</ele>
        <time>2015-11-07T10:45:28.000Z</time>
      </trkpt>
      <trkpt lat="43.2687680" lon="-3.3137570">
        <ele>733.052979</ele>
        <time>2015-11-07T10:45:31.000Z</time>
      </trkpt>
      <trkpt lat="43.2688490" lon="-3.3136480">
        <ele>736.065002</ele>
        <time>2015-11-07T10:45:34.000Z</time>
      </trkpt>
      <trkpt lat="43.2689210" lon="-3.3135410">
        <ele>737.093018</ele>
        <time>2015-11-07T10:45:37.000Z</time>
      </trkpt>
      <trkpt lat="43.2689740" lon="-3.3134360">
        <ele>738.023987</ele>
        <time>2015-11-07T10:45:40.000Z</time>
      </trkpt>
      <trkpt lat="43.2690380" lon="-3.3133460">
        <ele>738.074036</ele>
        <time>2015-11-07T10:45:43.000Z</time>
      </trkpt>
      <trkpt lat="43.2691130" lon="-3.3132340">
        <ele>740.043030</ele>
        <time>2015-11-07T10:45:46.000Z</time>
      </trkpt>
      <trkpt lat="43.2691880" lon="-3.3131350">
        <ele>741.010010</ele>
        <time>2015-11-07T10:45:49.000Z</time>
      </trkpt>
      <trkpt lat="43.2692660" lon="-3.3130420">
        <ele>742.032043</ele>
        <time>2015-11-07T10:45:52.000Z</time>
      </trkpt>
      <trkpt lat="43.2693480" lon="-3.3129560">
        <ele>742.091980</ele>
        <time>2015-11-07T10:45:55.000Z</time>
      </trkpt>
      <trkpt lat="43.2694290" lon="-3.3128600">
        <ele>742.010986</ele>
        <time>2015-11-07T10:45:58.000Z</time>
      </trkpt>
      <trkpt lat="43.2694950" lon="-3.3127600">
        <ele>741.007996</ele>
        <time>2015-11-07T10:46:01.000Z</time>
      </trkpt>
      <trkpt lat="43.2695480" lon="-3.3126450">
        <ele>743.023987</ele>
        <time>2015-11-07T10:46:04.000Z</time>
      </trkpt>
      <trkpt lat="43.2695920" lon="-3.3125200">
        <ele>744.024048</ele>
        <time>2015-11-07T10:46:07.000Z</time>
      </trkpt>
      <trkpt lat="43.2696460" lon="-3.3124120">
        <ele>744.076050</ele>
        <time>2015-11-07T10:46:10.000Z</time>
      </trkpt>
      <trkpt lat="43.2697130" lon="-3.3122760">
        <ele>745.073975</ele>
        <time>2015-11-07T10:46:13.000Z</time>
      </trkpt>
      <trkpt lat="43.2698070" lon="-3.3120820">
        <ele>744.015015</ele>
        <time>2015-11-07T10:46:16.000Z</time>
      </trkpt>
      <trkpt lat="43.2698820" lon="-3.3119700">
        <ele>745.015015</ele>
        <time>2015-11-07T10:46:19.000Z</time>
      </trkpt>
      <trkpt lat="43.2699310" lon="-3.3118530">
        <ele>745.073975</ele>
        <time>2015-11-07T10:46:23.000Z</time>
      </trkpt>
      <trkpt lat="43.2700070" lon="-3.3117440">
        <ele>746.030945</ele>
        <time>2015-11-07T10:46:26.000Z</time>
      </trkpt>
      <trkpt lat="43.2700860" lon="-3.3116370">
        <ele>747.093018</ele>
        <time>2015-11-07T10:46:30.000Z</time>
      </trkpt>
      <trkpt lat="43.2701720" lon="-3.3115600">
        <ele>748.065002</ele>
        <time>2015-11-07T10:46:33.000Z</time>
      </trkpt>
      <trkpt lat="43.2702740" lon="-3.3115000">
        <ele>749.020996</ele>
        <time>2015-11-07T10:46:36.000Z</time>
      </trkpt>
      <trkpt lat="43.2703950" lon="-3.3114920">
        <ele>750.007996</ele>
        <time>2015-11-07T10:46:39.000Z</time>
      </trkpt>
      <trkpt lat="43.2704980" lon="-3.3115220">
        <ele>748.059998</ele>
        <time>2015-11-07T10:46:42.000Z</time>
      </trkpt>
      <trkpt lat="43.2705930" lon="-3.3115610">
        <ele>746.010010</ele>
        <time>2015-11-07T10:46:45.000Z</time>
      </trkpt>
      <trkpt lat="43.2706870" lon="-3.3116080">
        <ele>747.031982</ele>
        <time>2015-11-07T10:46:48.000Z</time>
      </trkpt>
      <trkpt lat="43.2707940" lon="-3.3116490">
        <ele>748.090027</ele>
        <time>2015-11-07T10:46:52.000Z</time>
      </trkpt>
      <trkpt lat="43.2708830" lon="-3.3116940">
        <ele>750.051025</ele>
        <time>2015-11-07T10:46:55.000Z</time>
      </trkpt>
      <trkpt lat="43.2709860" lon="-3.3117050">
        <ele>750.041016</ele>
        <time>2015-11-07T10:46:58.000Z</time>
      </trkpt>
      <trkpt lat="43.2710950" lon="-3.3117040">
        <ele>751.010010</ele>
        <time>2015-11-07T10:47:01.000Z</time>
      </trkpt>
      <trkpt lat="43.2711960" lon="-3.3117190">
        <ele>752.036987</ele>
        <time>2015-11-07T10:47:04.000Z</time>
      </trkpt>
      <trkpt lat="43.2712900" lon="-3.3117480">
        <ele>754.013000</ele>
        <time>2015-11-07T10:47:07.000Z</time>
      </trkpt>
      <trkpt lat="43.2713900" lon="-3.3117560">
        <ele>753.043030</ele>
        <time>2015-11-07T10:47:10.000Z</time>
      </trkpt>
      <trkpt lat="43.2715070" lon="-3.3117760">
        <ele>753.006958</ele>
        <time>2015-11-07T10:47:14.000Z</time>
      </trkpt>
      <trkpt lat="43.2716040" lon="-3.3118040">
        <ele>755.007996</ele>
        <time>2015-11-07T10:47:17.000Z</time>
      </trkpt>
      <trkpt lat="43.2717160" lon="-3.3118320">
        <ele>754.092041</ele>
        <time>2015-11-07T10:47:20.000Z</time>
      </trkpt>
      <trkpt lat="43.2718240" lon="-3.3118620">
        <ele>754.012024</ele>
        <time>2015-11-07T10:47:23.000Z</time>
      </trkpt>
      <trkpt lat="43.2719300" lon="-3.3118880">
        <ele>756.033997</ele>
        <time>2015-11-07T10:47:26.000Z</time>
      </trkpt>
      <trkpt lat="43.2720360" lon="-3.3119160">
        <ele>756.011963</ele>
        <time>2015-11-07T10:47:29.000Z</time>
      </trkpt>
      <trkpt lat="43.2721300" lon="-3.3119420">
        <ele>756.093018</ele>
        <time>2015-11-07T10:47:32.000Z</time>
      </trkpt>
      <trkpt lat="43.2722380" lon="-3.3119780">
        <ele>756.033020</ele>
        <time>2015-11-07T10:47:35.000Z</time>
      </trkpt>
      <trkpt lat="43.2723330" lon="-3.3120200">
        <ele>759.041992</ele>
        <time>2015-11-07T10:47:38.000Z</time>
      </trkpt>
      <trkpt lat="43.2724240" lon="-3.3120500">
        <ele>759.079041</ele>
        <time>2015-11-07T10:47:41.000Z</time>
      </trkpt>
      <trkpt lat="43.2725080" lon="-3.3121010">
        <ele>759.025940</ele>
        <time>2015-11-07T10:47:44.000Z</time>
      </trkpt>
      <trkpt lat="43.2725920" lon="-3.3121560">
        <ele>759.046997</ele>
        <time>2015-11-07T10:47:47.000Z</time>
      </trkpt>
      <trkpt lat="43.2727030" lon="-3.3121930">
        <ele>760.010986</ele>
        <time>2015-11-07T10:47:51.000Z</time>
      </trkpt>
      <trkpt lat="43.2727920" lon="-3.3122220">
        <ele>760.007996</ele>
        <time>2015-11-07T10:47:54.000Z</time>
      </trkpt>
      <trkpt lat="43.2729100" lon="-3.3122370">
        <ele>763.072998</ele>
        <time>2015-11-07T10:47:58.000Z</time>
      </trkpt>
      <trkpt lat="43.2729990" lon="-3.3122620">
        <ele>763.013000</ele>
        <time>2015-11-07T10:48:01.000Z</time>
      </trkpt>
      <trkpt lat="43.2730970" lon="-3.3123100">
        <ele>763.095032</ele>
        <time>2015-11-07T10:48:05.000Z</time>
      </trkpt>
      <trkpt lat="43.2731920" lon="-3.3123640">
        <ele>764.083008</ele>
        <time>2015-11-07T10:48:09.000Z</time>
      </trkpt>
      <trkpt lat="43.2732750" lon="-3.3124160">
        <ele>764.034058</ele>
        <time>2015-11-07T10:48:12.000Z</time>
      </trkpt>
      <trkpt lat="43.2733730" lon="-3.3124520">
        <ele>766.054016</ele>
        <time>2015-11-07T10:48:15.000Z</time>
      </trkpt>
      <trkpt lat="43.2734670" lon="-3.3124940">
        <ele>767.092957</ele>
        <time>2015-11-07T10:48:18.000Z</time>
      </trkpt>
      <trkpt lat="43.2735590" lon="-3.3125420">
        <ele>768.080017</ele>
        <time>2015-11-07T10:48:21.000Z</time>
      </trkpt>
      <trkpt lat="43.2736580" lon="-3.3125810">
        <ele>770.023987</ele>
        <time>2015-11-07T10:48:25.000Z</time>
      </trkpt>
      <trkpt lat="43.2737590" lon="-3.3125890">
        <ele>771.004028</ele>
        <time>2015-11-07T10:48:28.000Z</time>
      </trkpt>
      <trkpt lat="43.2738480" lon="-3.3126110">
        <ele>774.013977</ele>
        <time>2015-11-07T10:48:31.000Z</time>
      </trkpt>
      <trkpt lat="43.2739440" lon="-3.3126450">
        <ele>773.007996</ele>
        <time>2015-11-07T10:48:34.000Z</time>
      </trkpt>
      <trkpt lat="43.2740510" lon="-3.3127070">
        <ele>774.052979</ele>
        <time>2015-11-07T10:48:38.000Z</time>
      </trkpt>
      <trkpt lat="43.2741240" lon="-3.3127990">
        <ele>776.072937</ele>
        <time>2015-11-07T10:48:41.000Z</time>
      </trkpt>
      <trkpt lat="43.2741940" lon="-3.3128830">
        <ele>776.074951</ele>
        <time>2015-11-07T10:48:44.000Z</time>
      </trkpt>
      <trkpt lat="43.2742890" lon="-3.3129560">
        <ele>778.083008</ele>
        <time>2015-11-07T10:48:48.000Z</time>
      </trkpt>
      <trkpt lat="43.2743080" lon="-3.3129530">
        <ele>782.052002</ele>
        <time>2015-11-07T10:53:09.000Z</time>
      </trkpt>
      <trkpt lat="43.2743840" lon="-3.3130200">
        <ele>782.053040</ele>
        <time>2015-11-07T10:53:14.000Z</time>
      </trkpt>
      <trkpt lat="43.2744780" lon="-3.3130930">
        <ele>782.007996</ele>
        <time>2015-11-07T10:53:19.000Z</time>
      </trkpt>
      <trkpt lat="43.2745660" lon="-3.3131640">
        <ele>782.007996</ele>
        <time>2015-11-07T10:53:25.000Z</time>
      </trkpt>
      <trkpt lat="43.2746530" lon="-3.3132170">
        <ele>783.055969</ele>
        <time>2015-11-07T10:53:30.000Z</time>
      </trkpt>
      <trkpt lat="43.2747320" lon="-3.3132810">
        <ele>786.085999</ele>
        <time>2015-11-07T10:53:35.000Z</time>
      </trkpt>
      <trkpt lat="43.2748010" lon="-3.3133770">
        <ele>787.057983</ele>
        <time>2015-11-07T10:53:40.000Z</time>
      </trkpt>
      <trkpt lat="43.2748760" lon="-3.3134490">
        <ele>786.085999</ele>
        <time>2015-11-07T10:53:46.000Z</time>
      </trkpt>
      <trkpt lat="43.2749550" lon="-3.3135120">
        <ele>787.047058</ele>
        <time>2015-11-07T10:53:52.000Z</time>
      </trkpt>
      <trkpt lat="43.2750330" lon="-3.3135790">
        <ele>789.026978</ele>
        <time>2015-11-07T10:53:56.000Z</time>
      </trkpt>
      <trkpt lat="43.2751020" lon="-3.3136700">
        <ele>793.046021</ele>
        <time>2015-11-07T10:54:02.000Z</time>
      </trkpt>
      <trkpt lat="43.2751590" lon="-3.3137770">
        <ele>791.083008</ele>
        <time>2015-11-07T10:54:07.000Z</time>
      </trkpt>
      <trkpt lat="43.2752070" lon="-3.3139170">
        <ele>791.035034</ele>
        <time>2015-11-07T10:54:12.000Z</time>
      </trkpt>
      <trkpt lat="43.2752430" lon="-3.3140310">
        <ele>789.085999</ele>
        <time>2015-11-07T10:54:16.000Z</time>
      </trkpt>
      <trkpt lat="43.2752960" lon="-3.3141490">
        <ele>789.014038</ele>
        <time>2015-11-07T10:54:21.000Z</time>
      </trkpt>
      <trkpt lat="43.2753300" lon="-3.3142640">
        <ele>788.007996</ele>
        <time>2015-11-07T10:54:26.000Z</time>
      </trkpt>
      <trkpt lat="43.2753680" lon="-3.3144030">
        <ele>787.013977</ele>
        <time>2015-11-07T10:54:31.000Z</time>
      </trkpt>
      <trkpt lat="43.2753920" lon="-3.3145270">
        <ele>785.033997</ele>
        <time>2015-11-07T10:54:35.000Z</time>
      </trkpt>
      <trkpt lat="43.2754290" lon="-3.3146580">
        <ele>786.096008</ele>
        <time>2015-11-07T10:54:39.000Z</time>
      </trkpt>
      <trkpt lat="43.2754700" lon="-3.3147880">
        <ele>785.083984</ele>
        <time>2015-11-07T10:54:43.000Z</time>
      </trkpt>
      <trkpt lat="43.2754890" lon="-3.3149140">
        <ele>785.015015</ele>
        <time>2015-11-07T10:54:48.000Z</time>
      </trkpt>
      <trkpt lat="43.2755240" lon="-3.3150390">
        <ele>784.045044</ele>
        <time>2015-11-07T10:54:52.000Z</time>
      </trkpt>
      <trkpt lat="43.2755650" lon="-3.3151590">
        <ele>785.083984</ele>
        <time>2015-11-07T10:54:56.000Z</time>
      </trkpt>
      <trkpt lat="43.2756090" lon="-3.3152940">
        <ele>784.070984</ele>
        <time>2015-11-07T10:55:01.000Z</time>
      </trkpt>
      <trkpt lat="43.2756800" lon="-3.3154000">
        <ele>784.078003</ele>
        <time>2015-11-07T10:55:05.000Z</time>
      </trkpt>
      <trkpt lat="43.2757130" lon="-3.3155360">
        <ele>783.032959</ele>
        <time>2015-11-07T10:55:10.000Z</time>
      </trkpt>
      <trkpt lat="43.2757580" lon="-3.3156720">
        <ele>783.026001</ele>
        <time>2015-11-07T10:55:15.000Z</time>
      </trkpt>
      <trkpt lat="43.2757790" lon="-3.3158200">
        <ele>784.008057</ele>
        <time>2015-11-07T10:55:19.000Z</time>
      </trkpt>
      <trkpt lat="43.2757580" lon="-3.3159660">
        <ele>785.078003</ele>
        <time>2015-11-07T10:55:22.000Z</time>
      </trkpt>
      <trkpt lat="43.2757190" lon="-3.3161310">
        <ele>784.047974</ele>
        <time>2015-11-07T10:55:25.000Z</time>
      </trkpt>
      <trkpt lat="43.2756660" lon="-3.3162770">
        <ele>783.080017</ele>
        <time>2015-11-07T10:55:28.000Z</time>
      </trkpt>
      <trkpt lat="43.2756170" lon="-3.3163940">
        <ele>781.078003</ele>
        <time>2015-11-07T10:55:30.000Z</time>
      </trkpt>
      <trkpt lat="43.2755290" lon="-3.3165580">
        <ele>779.028992</ele>
        <time>2015-11-07T10:55:32.000Z</time>
      </trkpt>
      <trkpt lat="43.2754790" lon="-3.3166820">
        <ele>778.049011</ele>
        <time>2015-11-07T10:55:34.000Z</time>
      </trkpt>
      <trkpt lat="43.2754700" lon="-3.3168210">
        <ele>777.087952</ele>
        <time>2015-11-07T10:55:36.000Z</time>
      </trkpt>
      <trkpt lat="43.2754330" lon="-3.3169370">
        <ele>777.034973</ele>
        <time>2015-11-07T10:55:38.000Z</time>
      </trkpt>
      <trkpt lat="43.2754130" lon="-3.3170710">
        <ele>775.084961</ele>
        <time>2015-11-07T10:55:40.000Z</time>
      </trkpt>
      <trkpt lat="43.2754120" lon="-3.3172390">
        <ele>774.088989</ele>
        <time>2015-11-07T10:55:43.000Z</time>
      </trkpt>
      <trkpt lat="43.2754300" lon="-3.3173660">
        <ele>773.017029</ele>
        <time>2015-11-07T10:55:45.000Z</time>
      </trkpt>
      <trkpt lat="43.2754530" lon="-3.3174860">
        <ele>773.007996</ele>
        <time>2015-11-07T10:55:48.000Z</time>
      </trkpt>
      <trkpt lat="43.2754740" lon="-3.3176480">
        <ele>772.099060</ele>
        <time>2015-11-07T10:55:52.000Z</time>
      </trkpt>
      <trkpt lat="43.2754950" lon="-3.3177910">
        <ele>769.078979</ele>
        <time>2015-11-07T10:55:55.000Z</time>
      </trkpt>
      <trkpt lat="43.2755060" lon="-3.3179380">
        <ele>764.071045</ele>
        <time>2015-11-07T10:55:58.000Z</time>
      </trkpt>
      <trkpt lat="43.2755740" lon="-3.3180380">
        <ele>765.048950</ele>
        <time>2015-11-07T10:55:59.000Z</time>
      </trkpt>
      <trkpt lat="43.2756520" lon="-3.3181180">
        <ele>764.019958</ele>
        <time>2015-11-07T10:56:01.000Z</time>
      </trkpt>
      <trkpt lat="43.2757560" lon="-3.3183170">
        <ele>760.079956</ele>
        <time>2015-11-07T10:56:03.000Z</time>
      </trkpt>
      <trkpt lat="43.2758390" lon="-3.3184170">
        <ele>757.038940</ele>
        <time>2015-11-07T10:56:04.000Z</time>
      </trkpt>
      <trkpt lat="43.2759510" lon="-3.3186460">
        <ele>754.056030</ele>
        <time>2015-11-07T10:56:06.000Z</time>
      </trkpt>
      <trkpt lat="43.2760560" lon="-3.3187240">
        <ele>754.015991</ele>
        <time>2015-11-07T10:56:08.000Z</time>
      </trkpt>
      <trkpt lat="43.2761320" lon="-3.3188040">
        <ele>752.075989</ele>
        <time>2015-11-07T10:56:10.000Z</time>
      </trkpt>
      <trkpt lat="43.2762000" lon="-3.3189120">
        <ele>751.013000</ele>
        <time>2015-11-07T10:56:13.000Z</time>
      </trkpt>
      <trkpt lat="43.2762650" lon="-3.3190740">
        <ele>751.007996</ele>
        <time>2015-11-07T10:56:14.000Z</time>
      </trkpt>
      <trkpt lat="43.2762470" lon="-3.3192070">
        <ele>750.052002</ele>
        <time>2015-11-07T10:56:17.000Z</time>
      </trkpt>
      <trkpt lat="43.2763270" lon="-3.3193820">
        <ele>750.052002</ele>
        <time>2015-11-07T10:56:19.000Z</time>
      </trkpt>
      <trkpt lat="43.2763790" lon="-3.3194960">
        <ele>750.024048</ele>
        <time>2015-11-07T10:56:21.000Z</time>
      </trkpt>
      <trkpt lat="43.2764440" lon="-3.3197110">
        <ele>749.021973</ele>
        <time>2015-11-07T10:56:23.000Z</time>
      </trkpt>
      <trkpt lat="43.2765370" lon="-3.3198470">
        <ele>749.072998</ele>
        <time>2015-11-07T10:56:25.000Z</time>
      </trkpt>
      <trkpt lat="43.2766140" lon="-3.3200390">
        <ele>749.023010</ele>
        <time>2015-11-07T10:56:27.000Z</time>
      </trkpt>
      <trkpt lat="43.2766490" lon="-3.3201690">
        <ele>749.052002</ele>
        <time>2015-11-07T10:56:28.000Z</time>
      </trkpt>
      <trkpt lat="43.2767000" lon="-3.3203650">
        <ele>748.028992</ele>
        <time>2015-11-07T10:56:30.000Z</time>
      </trkpt>
      <trkpt lat="43.2767570" lon="-3.3205360">
        <ele>748.033997</ele>
        <time>2015-11-07T10:56:32.000Z</time>
      </trkpt>
      <trkpt lat="43.2768130" lon="-3.3207660">
        <ele>748.055054</ele>
        <time>2015-11-07T10:56:34.000Z</time>
      </trkpt>
      <trkpt lat="43.2768530" lon="-3.3209040">
        <ele>750.010010</ele>
        <time>2015-11-07T10:56:36.000Z</time>
      </trkpt>
      <trkpt lat="43.2768530" lon="-3.3210290">
        <ele>747.007996</ele>
        <time>2015-11-07T10:56:38.000Z</time>
      </trkpt>
      <trkpt lat="43.2768110" lon="-3.3212120">
        <ele>747.074036</ele>
        <time>2015-11-07T10:56:40.000Z</time>
      </trkpt>
      <trkpt lat="43.2767460" lon="-3.3213360">
        <ele>746.013977</ele>
        <time>2015-11-07T10:56:42.000Z</time>
      </trkpt>
      <trkpt lat="43.2767090" lon="-3.3214700">
        <ele>743.026001</ele>
        <time>2015-11-07T10:56:44.000Z</time>
      </trkpt>
      <trkpt lat="43.2766690" lon="-3.3216170">
        <ele>740.073975</ele>
        <time>2015-11-07T10:56:46.000Z</time>
      </trkpt>
      <trkpt lat="43.2766530" lon="-3.3217910">
        <ele>737.025024</ele>
        <time>2015-11-07T10:56:49.000Z</time>
      </trkpt>
      <trkpt lat="43.2766190" lon="-3.3219500">
        <ele>734.025024</ele>
        <time>2015-11-07T10:56:51.000Z</time>
      </trkpt>
      <trkpt lat="43.2765870" lon="-3.3220760">
        <ele>734.054016</ele>
        <time>2015-11-07T10:56:53.000Z</time>
      </trkpt>
      <trkpt lat="43.2765580" lon="-3.3222320">
        <ele>734.031006</ele>
        <time>2015-11-07T10:56:55.000Z</time>
      </trkpt>
      <trkpt lat="43.2765570" lon="-3.3224410">
        <ele>733.069031</ele>
        <time>2015-11-07T10:56:57.000Z</time>
      </trkpt>
      <trkpt lat="43.2765790" lon="-3.3225780">
        <ele>732.003967</ele>
        <time>2015-11-07T10:56:59.000Z</time>
      </trkpt>
      <trkpt lat="43.2766350" lon="-3.3226870">
        <ele>730.023987</ele>
        <time>2015-11-07T10:57:01.000Z</time>
      </trkpt>
      <trkpt lat="43.2766790" lon="-3.3228670">
        <ele>729.007996</ele>
        <time>2015-11-07T10:57:03.000Z</time>
      </trkpt>
      <trkpt lat="43.2767320" lon="-3.3230110">
        <ele>728.046997</ele>
        <time>2015-11-07T10:57:05.000Z</time>
      </trkpt>
      <trkpt lat="43.2767710" lon="-3.3231370">
        <ele>726.046997</ele>
        <time>2015-11-07T10:57:08.000Z</time>
      </trkpt>
      <trkpt lat="43.2767690" lon="-3.3233740">
        <ele>725.068970</ele>
        <time>2015-11-07T10:57:12.000Z</time>
      </trkpt>
      <trkpt lat="43.2767660" lon="-3.3235460">
        <ele>723.087036</ele>
        <time>2015-11-07T10:57:16.000Z</time>
      </trkpt>
      <trkpt lat="43.2767010" lon="-3.3236730">
        <ele>723.097961</ele>
        <time>2015-11-07T10:57:20.000Z</time>
      </trkpt>
      <trkpt lat="43.2767090" lon="-3.3238160">
        <ele>723.078003</ele>
        <time>2015-11-07T10:57:23.000Z</time>
      </trkpt>
      <trkpt lat="43.2767790" lon="-3.3239460">
        <ele>722.067017</ele>
        <time>2015-11-07T10:57:25.000Z</time>
      </trkpt>
      <trkpt lat="43.2768270" lon="-3.3240610">
        <ele>721.033997</ele>
        <time>2015-11-07T10:57:28.000Z</time>
      </trkpt>
      <trkpt lat="43.2769030" lon="-3.3241760">
        <ele>722.081970</ele>
        <time>2015-11-07T10:57:31.000Z</time>
      </trkpt>
      <trkpt lat="43.2769610" lon="-3.3242890">
        <ele>722.042969</ele>
        <time>2015-11-07T10:57:33.000Z</time>
      </trkpt>
      <trkpt lat="43.2770160" lon="-3.3244470">
        <ele>723.017029</ele>
        <time>2015-11-07T10:57:35.000Z</time>
      </trkpt>
      <trkpt lat="43.2771140" lon="-3.3245980">
        <ele>723.007996</ele>
        <time>2015-11-07T10:57:37.000Z</time>
      </trkpt>
      <trkpt lat="43.2771080" lon="-3.3247850">
        <ele>722.019043</ele>
        <time>2015-11-07T10:57:38.000Z</time>
      </trkpt>
      <trkpt lat="43.2771270" lon="-3.3250040">
        <ele>722.088989</ele>
        <time>2015-11-07T10:57:40.000Z</time>
      </trkpt>
      <trkpt lat="43.2771300" lon="-3.3251520">
        <ele>722.041016</ele>
        <time>2015-11-07T10:57:41.000Z</time>
      </trkpt>
      <trkpt lat="43.2771460" lon="-3.3253260">
        <ele>722.039001</ele>
        <time>2015-11-07T10:57:43.000Z</time>
      </trkpt>
      <trkpt lat="43.2771670" lon="-3.3255180">
        <ele>722.029968</ele>
        <time>2015-11-07T10:57:45.000Z</time>
      </trkpt>
      <trkpt lat="43.2772420" lon="-3.3256580">
        <ele>723.019958</ele>
        <time>2015-11-07T10:57:47.000Z</time>
      </trkpt>
      <trkpt lat="43.2773160" lon="-3.3257740">
        <ele>722.039001</ele>
        <time>2015-11-07T10:57:49.000Z</time>
      </trkpt>
      <trkpt lat="43.2774120" lon="-3.3259310">
        <ele>721.026001</ele>
        <time>2015-11-07T10:57:51.000Z</time>
      </trkpt>
      <trkpt lat="43.2775040" lon="-3.3260120">
        <ele>721.011047</ele>
        <time>2015-11-07T10:57:53.000Z</time>
      </trkpt>
      <trkpt lat="43.2775400" lon="-3.3261430">
        <ele>722.020996</ele>
        <time>2015-11-07T10:57:55.000Z</time>
      </trkpt>
      <trkpt lat="43.2775700" lon="-3.3263080">
        <ele>724.002991</ele>
        <time>2015-11-07T10:57:58.000Z</time>
      </trkpt>
      <trkpt lat="43.2775500" lon="-3.3264320">
        <ele>725.007996</ele>
        <time>2015-11-07T10:58:00.000Z</time>
      </trkpt>
      <trkpt lat="43.2775460" lon="-3.3265600">
        <ele>727.091980</ele>
        <time>2015-11-07T10:58:02.000Z</time>
      </trkpt>
      <trkpt lat="43.2775240" lon="-3.3266960">
        <ele>727.052002</ele>
        <time>2015-11-07T10:58:04.000Z</time>
      </trkpt>
      <trkpt lat="43.2775210" lon="-3.3268250">
        <ele>727.023987</ele>
        <time>2015-11-07T10:58:07.000Z</time>
      </trkpt>
      <trkpt lat="43.2775460" lon="-3.3269490">
        <ele>727.041992</ele>
        <time>2015-11-07T10:58:12.000Z</time>
      </trkpt>
      <trkpt lat="43.2775140" lon="-3.3270660">
        <ele>727.023010</ele>
        <time>2015-11-07T10:58:16.000Z</time>
      </trkpt>
      <trkpt lat="43.2775090" lon="-3.3272130">
        <ele>727.083008</ele>
        <time>2015-11-07T10:58:20.000Z</time>
      </trkpt>
      <trkpt lat="43.2775050" lon="-3.3273610">
        <ele>726.031982</ele>
        <time>2015-11-07T10:58:24.000Z</time>
      </trkpt>
      <trkpt lat="43.2774760" lon="-3.3274940">
        <ele>725.028992</ele>
        <time>2015-11-07T10:58:28.000Z</time>
      </trkpt>
      <trkpt lat="43.2774650" lon="-3.3276320">
        <ele>726.019043</ele>
        <time>2015-11-07T10:58:32.000Z</time>
      </trkpt>
      <trkpt lat="43.2774530" lon="-3.3277760">
        <ele>728.008972</ele>
        <time>2015-11-07T10:58:37.000Z</time>
      </trkpt>
      <trkpt lat="43.2774610" lon="-3.3279180">
        <ele>727.018982</ele>
        <time>2015-11-07T10:58:41.000Z</time>
      </trkpt>
      <trkpt lat="43.2774520" lon="-3.3280600">
        <ele>723.007996</ele>
        <time>2015-11-07T10:58:46.000Z</time>
      </trkpt>
      <trkpt lat="43.2774390" lon="-3.3281910">
        <ele>723.052002</ele>
        <time>2015-11-07T10:58:51.000Z</time>
      </trkpt>
      <trkpt lat="43.2774240" lon="-3.3283300">
        <ele>722.022034</ele>
        <time>2015-11-07T10:58:56.000Z</time>
      </trkpt>
      <trkpt lat="43.2774060" lon="-3.3284770">
        <ele>722.083984</ele>
        <time>2015-11-07T10:59:01.000Z</time>
      </trkpt>
      <trkpt lat="43.2773770" lon="-3.3286170">
        <ele>721.091980</ele>
        <time>2015-11-07T10:59:06.000Z</time>
      </trkpt>
      <trkpt lat="43.2773620" lon="-3.3287680">
        <ele>720.062988</ele>
        <time>2015-11-07T10:59:13.000Z</time>
      </trkpt>
      <trkpt lat="43.2773270" lon="-3.3289120">
        <ele>719.042969</ele>
        <time>2015-11-07T10:59:18.000Z</time>
      </trkpt>
      <trkpt lat="43.2773190" lon="-3.3290410">
        <ele>717.071960</ele>
        <time>2015-11-07T10:59:21.000Z</time>
      </trkpt>
      <trkpt lat="43.2773050" lon="-3.3291740">
        <ele>715.048950</ele>
        <time>2015-11-07T10:59:24.000Z</time>
      </trkpt>
      <trkpt lat="43.2773140" lon="-3.3293000">
        <ele>715.080994</ele>
        <time>2015-11-07T10:59:27.000Z</time>
      </trkpt>
      <trkpt lat="43.2773370" lon="-3.3294390">
        <ele>713.060974</ele>
        <time>2015-11-07T10:59:31.000Z</time>
      </trkpt>
      <trkpt lat="43.2773600" lon="-3.3295680">
        <ele>711.016968</ele>
        <time>2015-11-07T10:59:35.000Z</time>
      </trkpt>
      <trkpt lat="43.2773780" lon="-3.3297140">
        <ele>711.007996</ele>
        <time>2015-11-07T10:59:38.000Z</time>
      </trkpt>
      <trkpt lat="43.2773990" lon="-3.3298640">
        <ele>710.038940</ele>
        <time>2015-11-07T10:59:41.000Z</time>
      </trkpt>
      <trkpt lat="43.2774320" lon="-3.3300190">
        <ele>709.049011</ele>
        <time>2015-11-07T10:59:44.000Z</time>
      </trkpt>
      <trkpt lat="43.2774630" lon="-3.3301820">
        <ele>707.040955</ele>
        <time>2015-11-07T10:59:47.000Z</time>
      </trkpt>
      <trkpt lat="43.2774980" lon="-3.3303370">
        <ele>706.088989</ele>
        <time>2015-11-07T10:59:50.000Z</time>
      </trkpt>
      <trkpt lat="43.2775430" lon="-3.3304780">
        <ele>705.069946</ele>
        <time>2015-11-07T10:59:53.000Z</time>
      </trkpt>
      <trkpt lat="43.2775930" lon="-3.3306270">
        <ele>705.050049</ele>
        <time>2015-11-07T10:59:56.000Z</time>
      </trkpt>
      <trkpt lat="43.2776380" lon="-3.3308110">
        <ele>704.058960</ele>
        <time>2015-11-07T10:59:59.000Z</time>
      </trkpt>
      <trkpt lat="43.2776560" lon="-3.3309470">
        <ele>704.085999</ele>
        <time>2015-11-07T11:00:02.000Z</time>
      </trkpt>
      <trkpt lat="43.2776920" lon="-3.3311450">
        <ele>705.076965</ele>
        <time>2015-11-07T11:00:05.000Z</time>
      </trkpt>
      <trkpt lat="43.2777260" lon="-3.3313370">
        <ele>703.061035</ele>
        <time>2015-11-07T11:00:07.000Z</time>
      </trkpt>
      <trkpt lat="43.2777420" lon="-3.3315660">
        <ele>702.027039</ele>
        <time>2015-11-07T11:00:09.000Z</time>
      </trkpt>
      <trkpt lat="43.2777390" lon="-3.3317100">
        <ele>704.007996</ele>
        <time>2015-11-07T11:00:11.000Z</time>
      </trkpt>
      <trkpt lat="43.2777560" lon="-3.3319130">
        <ele>704.078003</ele>
        <time>2015-11-07T11:00:13.000Z</time>
      </trkpt>
      <trkpt lat="43.2777810" lon="-3.3321440">
        <ele>702.098022</ele>
        <time>2015-11-07T11:00:15.000Z</time>
      </trkpt>
      <trkpt lat="43.2777790" lon="-3.3323290">
        <ele>702.050049</ele>
        <time>2015-11-07T11:00:17.000Z</time>
      </trkpt>
      <trkpt lat="43.2777390" lon="-3.3325220">
        <ele>702.018005</ele>
        <time>2015-11-07T11:00:19.000Z</time>
      </trkpt>
      <trkpt lat="43.2777220" lon="-3.3326960">
        <ele>701.028992</ele>
        <time>2015-11-07T11:00:21.000Z</time>
      </trkpt>
      <trkpt lat="43.2777080" lon="-3.3328650">
        <ele>700.039001</ele>
        <time>2015-11-07T11:00:23.000Z</time>
      </trkpt>
      <trkpt lat="43.2776630" lon="-3.3330590">
        <ele>699.048035</ele>
        <time>2015-11-07T11:00:25.000Z</time>
      </trkpt>
      <trkpt lat="43.2776680" lon="-3.3331970">
        <ele>699.034973</ele>
        <time>2015-11-07T11:00:27.000Z</time>
      </trkpt>
      <trkpt lat="43.2776670" lon="-3.3333810">
        <ele>702.041992</ele>
        <time>2015-11-07T11:00:30.000Z</time>
      </trkpt>
      <trkpt lat="43.2776460" lon="-3.3335780">
        <ele>703.022034</ele>
        <time>2015-11-07T11:00:32.000Z</time>
      </trkpt>
      <trkpt lat="43.2776130" lon="-3.3337740">
        <ele>704.014038</ele>
        <time>2015-11-07T11:00:34.000Z</time>
      </trkpt>
      <trkpt lat="43.2776330" lon="-3.3339360">
        <ele>704.007996</ele>
        <time>2015-11-07T11:00:36.000Z</time>
      </trkpt>
      <trkpt lat="43.2776340" lon="-3.3340740">
        <ele>703.075012</ele>
        <time>2015-11-07T11:00:38.000Z</time>
      </trkpt>
      <trkpt lat="43.2776250" lon="-3.3342060">
        <ele>703.044983</ele>
        <time>2015-11-07T11:00:41.000Z</time>
      </trkpt>
      <trkpt lat="43.2776380" lon="-3.3343500">
        <ele>704.087036</ele>
        <time>2015-11-07T11:00:43.000Z</time>
      </trkpt>
      <trkpt lat="43.2776530" lon="-3.3344910">
        <ele>707.015015</ele>
        <time>2015-11-07T11:00:45.000Z</time>
      </trkpt>
      <trkpt lat="43.2776570" lon="-3.3346470">
        <ele>706.045959</ele>
        <time>2015-11-07T11:00:48.000Z</time>
      </trkpt>
      <trkpt lat="43.2776640" lon="-3.3347830">
        <ele>707.015991</ele>
        <time>2015-11-07T11:00:51.000Z</time>
      </trkpt>
      <trkpt lat="43.2776730" lon="-3.3349380">
        <ele>709.025024</ele>
        <time>2015-11-07T11:00:54.000Z</time>
      </trkpt>
      <trkpt lat="43.2776420" lon="-3.3350600">
        <ele>709.082031</ele>
        <time>2015-11-07T11:00:59.000Z</time>
      </trkpt>
      <trkpt lat="43.2775960" lon="-3.3351680">
        <ele>710.060974</ele>
        <time>2015-11-07T11:01:04.000Z</time>
      </trkpt>
      <trkpt lat="43.2775370" lon="-3.3352780">
        <ele>711.020996</ele>
        <time>2015-11-07T11:01:10.000Z</time>
      </trkpt>
      <trkpt lat="43.2774960" lon="-3.3353920">
        <ele>713.013000</ele>
        <time>2015-11-07T11:01:14.000Z</time>
      </trkpt>
      <trkpt lat="43.2774550" lon="-3.3355110">
        <ele>715.007996</ele>
        <time>2015-11-07T11:01:18.000Z</time>
      </trkpt>
      <trkpt lat="43.2774300" lon="-3.3356510">
        <ele>716.086975</ele>
        <time>2015-11-07T11:01:22.000Z</time>
      </trkpt>
      <trkpt lat="43.2774200" lon="-3.3358010">
        <ele>716.026978</ele>
        <time>2015-11-07T11:01:26.000Z</time>
      </trkpt>
      <trkpt lat="43.2774240" lon="-3.3359330">
        <ele>716.069031</ele>
        <time>2015-11-07T11:01:29.000Z</time>
      </trkpt>
      <trkpt lat="43.2774270" lon="-3.3360590">
        <ele>717.016968</ele>
        <time>2015-11-07T11:01:32.000Z</time>
      </trkpt>
      <trkpt lat="43.2774270" lon="-3.3362300">
        <ele>718.057983</ele>
        <time>2015-11-07T11:01:35.000Z</time>
      </trkpt>
      <trkpt lat="43.2774230" lon="-3.3363730">
        <ele>718.098022</ele>
        <time>2015-11-07T11:01:38.000Z</time>
      </trkpt>
      <trkpt lat="43.2773950" lon="-3.3365000">
        <ele>718.086975</ele>
        <time>2015-11-07T11:01:45.000Z</time>
      </trkpt>
      <trkpt lat="43.2773260" lon="-3.3365890">
        <ele>719.013977</ele>
        <time>2015-11-07T11:01:50.000Z</time>
      </trkpt>
      <trkpt lat="43.2772940" lon="-3.3367120">
        <ele>720.013000</ele>
        <time>2015-11-07T11:01:54.000Z</time>
      </trkpt>
      <trkpt lat="43.2772650" lon="-3.3368370">
        <ele>719.042969</ele>
        <time>2015-11-07T11:01:59.000Z</time>
      </trkpt>
      <trkpt lat="43.2772710" lon="-3.3369980">
        <ele>719.006958</ele>
        <time>2015-11-07T11:02:03.000Z</time>
      </trkpt>
      <trkpt lat="43.2773110" lon="-3.3371110">
        <ele>718.007996</ele>
        <time>2015-11-07T11:02:07.000Z</time>
      </trkpt>
      <trkpt lat="43.2773800" lon="-3.3372200">
        <ele>718.022034</ele>
        <time>2015-11-07T11:02:12.000Z</time>
      </trkpt>
      <trkpt lat="43.2774210" lon="-3.3373330">
        <ele>719.011963</ele>
        <time>2015-11-07T11:02:16.000Z</time>
      </trkpt>
      <trkpt lat="43.2774470" lon="-3.3374640">
        <ele>718.044006</ele>
        <time>2015-11-07T11:02:21.000Z</time>
      </trkpt>
      <trkpt lat="43.2774910" lon="-3.3375910">
        <ele>717.041992</ele>
        <time>2015-11-07T11:02:27.000Z</time>
      </trkpt>
      <trkpt lat="43.2774650" lon="-3.3377230">
        <ele>715.032959</ele>
        <time>2015-11-07T11:02:35.000Z</time>
      </trkpt>
      <trkpt lat="43.2773780" lon="-3.3377840">
        <ele>715.043030</ele>
        <time>2015-11-07T11:02:41.000Z</time>
      </trkpt>
      <trkpt lat="43.2774170" lon="-3.3379080">
        <ele>715.062012</ele>
        <time>2015-11-07T11:02:49.000Z</time>
      </trkpt>
      <trkpt lat="43.2774070" lon="-3.3380470">
        <ele>714.018982</ele>
        <time>2015-11-07T11:02:56.000Z</time>
      </trkpt>
      <trkpt lat="43.2774490" lon="-3.3381840">
        <ele>713.080994</ele>
        <time>2015-11-07T11:03:02.000Z</time>
      </trkpt>
      <trkpt lat="43.2774760" lon="-3.3383050">
        <ele>712.061035</ele>
        <time>2015-11-07T11:03:07.000Z</time>
      </trkpt>
      <trkpt lat="43.2775210" lon="-3.3384390">
        <ele>712.016968</ele>
        <time>2015-11-07T11:03:12.000Z</time>
      </trkpt>
      <trkpt lat="43.2775660" lon="-3.3385530">
        <ele>712.007935</ele>
        <time>2015-11-07T11:03:17.000Z</time>
      </trkpt>
      <trkpt lat="43.2776560" lon="-3.3385830">
        <ele>711.049011</ele>
        <time>2015-11-07T11:03:22.000Z</time>
      </trkpt>
      <trkpt lat="43.2777550" lon="-3.3386220">
        <ele>711.069031</ele>
        <time>2015-11-07T11:03:26.000Z</time>
      </trkpt>
      <trkpt lat="43.2778080" lon="-3.3387680">
        <ele>711.060974</ele>
        <time>2015-11-07T11:03:31.000Z</time>
      </trkpt>
      <trkpt lat="43.2778070" lon="-3.3389120">
        <ele>709.059021</ele>
        <time>2015-11-07T11:03:34.000Z</time>
      </trkpt>
      <trkpt lat="43.2778510" lon="-3.3390340">
        <ele>710.049988</ele>
        <time>2015-11-07T11:03:38.000Z</time>
      </trkpt>
      <trkpt lat="43.2779290" lon="-3.3391350">
        <ele>709.070007</ele>
        <time>2015-11-07T11:03:44.000Z</time>
      </trkpt>
      <trkpt lat="43.2779910" lon="-3.3392420">
        <ele>709.039001</ele>
        <time>2015-11-07T11:03:48.000Z</time>
      </trkpt>
      <trkpt lat="43.2780510" lon="-3.3393360">
        <ele>708.085999</ele>
        <time>2015-11-07T11:03:52.000Z</time>
      </trkpt>
      <trkpt lat="43.2780880" lon="-3.3394540">
        <ele>707.098999</ele>
        <time>2015-11-07T11:03:57.000Z</time>
      </trkpt>
      <trkpt lat="43.2781540" lon="-3.3395800">
        <ele>707.006958</ele>
        <time>2015-11-07T11:04:03.000Z</time>
      </trkpt>
      <trkpt lat="43.2782510" lon="-3.3396400">
        <ele>706.026978</ele>
        <time>2015-11-07T11:04:08.000Z</time>
      </trkpt>
      <trkpt lat="43.2783510" lon="-3.3396450">
        <ele>705.007996</ele>
        <time>2015-11-07T11:04:13.000Z</time>
      </trkpt>
      <trkpt lat="43.2784690" lon="-3.3396720">
        <ele>704.070007</ele>
        <time>2015-11-07T11:04:17.000Z</time>
      </trkpt>
      <trkpt lat="43.2785820" lon="-3.3396670">
        <ele>705.050049</ele>
        <time>2015-11-07T11:04:20.000Z</time>
      </trkpt>
      <trkpt lat="43.2787050" lon="-3.3396420">
        <ele>703.031982</ele>
        <time>2015-11-07T11:04:23.000Z</time>
      </trkpt>
      <trkpt lat="43.2788290" lon="-3.3395840">
        <ele>704.079956</ele>
        <time>2015-11-07T11:04:26.000Z</time>
      </trkpt>
      <trkpt lat="43.2789080" lon="-3.3394800">
        <ele>703.061035</ele>
        <time>2015-11-07T11:04:28.000Z</time>
      </trkpt>
      <trkpt lat="43.2789900" lon="-3.3393670">
        <ele>702.050964</ele>
        <time>2015-11-07T11:04:30.000Z</time>
      </trkpt>
      <trkpt lat="43.2790770" lon="-3.3392570">
        <ele>704.090027</ele>
        <time>2015-11-07T11:04:32.000Z</time>
      </trkpt>
      <trkpt lat="43.2791670" lon="-3.3391640">
        <ele>703.077026</ele>
        <time>2015-11-07T11:04:34.000Z</time>
      </trkpt>
      <trkpt lat="43.2792680" lon="-3.3390920">
        <ele>705.018005</ele>
        <time>2015-11-07T11:04:36.000Z</time>
      </trkpt>
      <trkpt lat="43.2794070" lon="-3.3390660">
        <ele>706.098022</ele>
        <time>2015-11-07T11:04:38.000Z</time>
      </trkpt>
      <trkpt lat="43.2795140" lon="-3.3391810">
        <ele>707.017029</ele>
        <time>2015-11-07T11:04:39.000Z</time>
      </trkpt>
      <trkpt lat="43.2796650" lon="-3.3392160">
        <ele>709.008057</ele>
        <time>2015-11-07T11:04:41.000Z</time>
      </trkpt>
      <trkpt lat="43.2797810" lon="-3.3392040">
        <ele>710.012024</ele>
        <time>2015-11-07T11:04:43.000Z</time>
      </trkpt>
      <trkpt lat="43.2799290" lon="-3.3392460">
        <ele>710.052002</ele>
        <time>2015-11-07T11:04:45.000Z</time>
      </trkpt>
      <trkpt lat="43.2800460" lon="-3.3393200">
        <ele>711.053955</ele>
        <time>2015-11-07T11:04:48.000Z</time>
      </trkpt>
      <trkpt lat="43.2801570" lon="-3.3393150">
        <ele>710.041992</ele>
        <time>2015-11-07T11:04:52.000Z</time>
      </trkpt>
      <trkpt lat="43.2802600" lon="-3.3393990">
        <ele>710.072998</ele>
        <time>2015-11-07T11:04:55.000Z</time>
      </trkpt>
      <trkpt lat="43.2804250" lon="-3.3394160">
        <ele>711.052979</ele>
        <time>2015-11-07T11:04:57.000Z</time>
      </trkpt>
      <trkpt lat="43.2805970" lon="-3.3394470">
        <ele>708.071960</ele>
        <time>2015-11-07T11:05:02.000Z</time>
      </trkpt>
      <trkpt lat="43.2807160" lon="-3.3394310">
        <ele>705.049011</ele>
        <time>2015-11-07T11:05:04.000Z</time>
      </trkpt>
      <trkpt lat="43.2808110" lon="-3.3394400">
        <ele>704.091003</ele>
        <time>2015-11-07T11:05:06.000Z</time>
      </trkpt>
      <trkpt lat="43.2809180" lon="-3.3394260">
        <ele>703.081055</ele>
        <time>2015-11-07T11:05:08.000Z</time>
      </trkpt>
      <trkpt lat="43.2810120" lon="-3.3394220">
        <ele>700.018982</ele>
        <time>2015-11-07T11:05:10.000Z</time>
      </trkpt>
      <trkpt lat="43.2811140" lon="-3.3393790">
        <ele>698.007996</ele>
        <time>2015-11-07T11:05:12.000Z</time>
      </trkpt>
      <trkpt lat="43.2812120" lon="-3.3393170">
        <ele>697.029968</ele>
        <time>2015-11-07T11:05:17.000Z</time>
      </trkpt>
      <trkpt lat="43.2812910" lon="-3.3392420">
        <ele>695.059998</ele>
        <time>2015-11-07T11:05:20.000Z</time>
      </trkpt>
      <trkpt lat="43.2813830" lon="-3.3391780">
        <ele>693.031982</ele>
        <time>2015-11-07T11:05:23.000Z</time>
      </trkpt>
      <trkpt lat="43.2814790" lon="-3.3391850">
        <ele>692.059998</ele>
        <time>2015-11-07T11:05:28.000Z</time>
      </trkpt>
      <trkpt lat="43.2815670" lon="-3.3392790">
        <ele>690.061035</ele>
        <time>2015-11-07T11:05:31.000Z</time>
      </trkpt>
      <trkpt lat="43.2816780" lon="-3.3393350">
        <ele>689.010986</ele>
        <time>2015-11-07T11:05:34.000Z</time>
      </trkpt>
      <trkpt lat="43.2817790" lon="-3.3393620">
        <ele>687.089966</ele>
        <time>2015-11-07T11:05:37.000Z</time>
      </trkpt>
      <trkpt lat="43.2818790" lon="-3.3394400">
        <ele>685.046997</ele>
        <time>2015-11-07T11:05:40.000Z</time>
      </trkpt>
      <trkpt lat="43.2819360" lon="-3.3395640">
        <ele>684.025940</ele>
        <time>2015-11-07T11:05:42.000Z</time>
      </trkpt>
      <trkpt lat="43.2820090" lon="-3.3396830">
        <ele>682.046997</ele>
        <time>2015-11-07T11:05:44.000Z</time>
      </trkpt>
      <trkpt lat="43.2821120" lon="-3.3397730">
        <ele>681.010986</ele>
        <time>2015-11-07T11:05:46.000Z</time>
      </trkpt>
      <trkpt lat="43.2822210" lon="-3.3398800">
        <ele>679.007996</ele>
        <time>2015-11-07T11:05:48.000Z</time>
      </trkpt>
      <trkpt lat="43.2823660" lon="-3.3399010">
        <ele>677.052979</ele>
        <time>2015-11-07T11:05:51.000Z</time>
      </trkpt>
      <trkpt lat="43.2824740" lon="-3.3398600">
        <ele>675.083008</ele>
        <time>2015-11-07T11:05:53.000Z</time>
      </trkpt>
      <trkpt lat="43.2825850" lon="-3.3398770">
        <ele>672.075012</ele>
        <time>2015-11-07T11:05:55.000Z</time>
      </trkpt>
      <trkpt lat="43.2826940" lon="-3.3399140">
        <ele>671.072998</ele>
        <time>2015-11-07T11:05:58.000Z</time>
      </trkpt>
      <trkpt lat="43.2828240" lon="-3.3399330">
        <ele>669.074036</ele>
        <time>2015-11-07T11:06:02.000Z</time>
      </trkpt>
      <trkpt lat="43.2829440" lon="-3.3399080">
        <ele>669.074036</ele>
        <time>2015-11-07T11:06:05.000Z</time>
      </trkpt>
      <trkpt lat="43.2830630" lon="-3.3398270">
        <ele>668.093018</ele>
        <time>2015-11-07T11:06:08.000Z</time>
      </trkpt>
      <trkpt lat="43.2831580" lon="-3.3397780">
        <ele>666.079956</ele>
        <time>2015-11-07T11:06:10.000Z</time>
      </trkpt>
      <trkpt lat="43.2832740" lon="-3.3397790">
        <ele>666.093018</ele>
        <time>2015-11-07T11:06:12.000Z</time>
      </trkpt>
      <trkpt lat="43.2833890" lon="-3.3398080">
        <ele>665.064941</ele>
        <time>2015-11-07T11:06:14.000Z</time>
      </trkpt>
      <trkpt lat="43.2834920" lon="-3.3398080">
        <ele>663.021057</ele>
        <time>2015-11-07T11:06:16.000Z</time>
      </trkpt>
      <trkpt lat="43.2836420" lon="-3.3398440">
        <ele>661.007996</ele>
        <time>2015-11-07T11:06:18.000Z</time>
      </trkpt>
      <trkpt lat="43.2837740" lon="-3.3398990">
        <ele>659.059998</ele>
        <time>2015-11-07T11:06:20.000Z</time>
      </trkpt>
      <trkpt lat="43.2838960" lon="-3.3399620">
        <ele>656.059998</ele>
        <time>2015-11-07T11:06:22.000Z</time>
      </trkpt>
      <trkpt lat="43.2840050" lon="-3.3400100">
        <ele>655.062012</ele>
        <time>2015-11-07T11:06:24.000Z</time>
      </trkpt>
      <trkpt lat="43.2841210" lon="-3.3400460">
        <ele>654.090027</ele>
        <time>2015-11-07T11:06:26.000Z</time>
      </trkpt>
      <trkpt lat="43.2842400" lon="-3.3400960">
        <ele>651.040955</ele>
        <time>2015-11-07T11:06:28.000Z</time>
      </trkpt>
      <trkpt lat="43.2843390" lon="-3.3401760">
        <ele>649.041016</ele>
        <time>2015-11-07T11:06:30.000Z</time>
      </trkpt>
      <trkpt lat="43.2844320" lon="-3.3402520">
        <ele>648.070007</ele>
        <time>2015-11-07T11:06:32.000Z</time>
      </trkpt>
      <trkpt lat="43.2845370" lon="-3.3403170">
        <ele>646.096985</ele>
        <time>2015-11-07T11:06:34.000Z</time>
      </trkpt>
      <trkpt lat="43.2846470" lon="-3.3403760">
        <ele>643.015991</ele>
        <time>2015-11-07T11:06:36.000Z</time>
      </trkpt>
      <trkpt lat="43.2847400" lon="-3.3404360">
        <ele>641.076050</ele>
        <time>2015-11-07T11:06:38.000Z</time>
      </trkpt>
      <trkpt lat="43.2848310" lon="-3.3405410">
        <ele>637.013000</ele>
        <time>2015-11-07T11:06:40.000Z</time>
      </trkpt>
      <trkpt lat="43.2849050" lon="-3.3406310">
        <ele>634.008057</ele>
        <time>2015-11-07T11:06:42.000Z</time>
      </trkpt>
      <trkpt lat="43.2849570" lon="-3.3407360">
        <ele>629.062012</ele>
        <time>2015-11-07T11:06:45.000Z</time>
      </trkpt>
      <trkpt lat="43.2850700" lon="-3.3408230">
        <ele>627.012024</ele>
        <time>2015-11-07T11:06:49.000Z</time>
      </trkpt>
      <trkpt lat="43.2851650" lon="-3.3408730">
        <ele>626.033997</ele>
        <time>2015-11-07T11:06:52.000Z</time>
      </trkpt>
      <trkpt lat="43.2852640" lon="-3.3409230">
        <ele>624.052002</ele>
        <time>2015-11-07T11:06:55.000Z</time>
      </trkpt>
      <trkpt lat="43.2853740" lon="-3.3409620">
        <ele>622.013000</ele>
        <time>2015-11-07T11:06:58.000Z</time>
      </trkpt>
      <trkpt lat="43.2854570" lon="-3.3410160">
        <ele>623.013000</ele>
        <time>2015-11-07T11:07:00.000Z</time>
      </trkpt>
      <trkpt lat="43.2855440" lon="-3.3410700">
        <ele>623.041992</ele>
        <time>2015-11-07T11:07:02.000Z</time>
      </trkpt>
      <trkpt lat="43.2856700" lon="-3.3411210">
        <ele>624.068970</ele>
        <time>2015-11-07T11:07:05.000Z</time>
      </trkpt>
      <trkpt lat="43.2858130" lon="-3.3411550">
        <ele>628.041016</ele>
        <time>2015-11-07T11:07:08.000Z</time>
      </trkpt>
      <trkpt lat="43.2859190" lon="-3.3411780">
        <ele>629.080994</ele>
        <time>2015-11-07T11:07:10.000Z</time>
      </trkpt>
      <trkpt lat="43.2860440" lon="-3.3411970">
        <ele>627.009033</ele>
        <time>2015-11-07T11:07:13.000Z</time>
      </trkpt>
      <trkpt lat="43.2861440" lon="-3.3412400">
        <ele>625.008057</ele>
        <time>2015-11-07T11:07:15.000Z</time>
      </trkpt>
      <trkpt lat="43.2862180" lon="-3.3413270">
        <ele>624.085022</ele>
        <time>2015-11-07T11:07:34.000Z</time>
      </trkpt>
      <trkpt lat="43.2862480" lon="-3.3411740">
        <ele>622.054993</ele>
        <time>2015-11-07T11:08:29.000Z</time>
      </trkpt>
      <trkpt lat="43.2863350" lon="-3.3411180">
        <ele>623.036987</ele>
        <time>2015-11-07T11:08:34.000Z</time>
      </trkpt>
      <trkpt lat="43.2864180" lon="-3.3410480">
        <ele>621.094971</ele>
        <time>2015-11-07T11:08:46.000Z</time>
      </trkpt>
      <trkpt lat="43.2864490" lon="-3.3409260">
        <ele>620.026001</ele>
        <time>2015-11-07T11:10:07.000Z</time>
      </trkpt>
      <trkpt lat="43.2864620" lon="-3.3410710">
        <ele>621.026001</ele>
        <time>2015-11-07T11:10:26.000Z</time>
      </trkpt>
      <trkpt lat="43.2863980" lon="-3.3411730">
        <ele>622.075012</ele>
        <time>2015-11-07T11:10:34.000Z</time>
      </trkpt>
      <trkpt lat="43.2863090" lon="-3.3412200">
        <ele>622.012024</ele>
        <time>2015-11-07T11:10:41.000Z</time>
      </trkpt>
      <trkpt lat="43.2862240" lon="-3.3412740">
        <ele>622.065979</ele>
        <time>2015-11-07T11:11:13.000Z</time>
      </trkpt>
      <trkpt lat="43.2863180" lon="-3.3411970">
        <ele>623.028992</ele>
        <time>2015-11-07T11:17:39.000Z</time>
      </trkpt>
      <trkpt lat="43.2864210" lon="-3.3411970">
        <ele>623.020996</ele>
        <time>2015-11-07T11:17:42.000Z</time>
      </trkpt>
      <trkpt lat="43.2865320" lon="-3.3411970">
        <ele>624.007996</ele>
        <time>2015-11-07T11:17:45.000Z</time>
      </trkpt>
      <trkpt lat="43.2866230" lon="-3.3411730">
        <ele>626.046997</ele>
        <time>2015-11-07T11:17:48.000Z</time>
      </trkpt>
      <trkpt lat="43.2867200" lon="-3.3411560">
        <ele>626.087036</ele>
        <time>2015-11-07T11:17:53.000Z</time>
      </trkpt>
      <trkpt lat="43.2868100" lon="-3.3411870">
        <ele>626.058960</ele>
        <time>2015-11-07T11:17:58.000Z</time>
      </trkpt>
      <trkpt lat="43.2868930" lon="-3.3412520">
        <ele>627.046997</ele>
        <time>2015-11-07T11:18:02.000Z</time>
      </trkpt>
      <trkpt lat="43.2869820" lon="-3.3412890">
        <ele>626.097961</ele>
        <time>2015-11-07T11:18:05.000Z</time>
      </trkpt>
      <trkpt lat="43.2870840" lon="-3.3413010">
        <ele>625.088013</ele>
        <time>2015-11-07T11:18:09.000Z</time>
      </trkpt>
      <trkpt lat="43.2871910" lon="-3.3413130">
        <ele>625.046997</ele>
        <time>2015-11-07T11:18:14.000Z</time>
      </trkpt>
      <trkpt lat="43.2872910" lon="-3.3413410">
        <ele>625.054016</ele>
        <time>2015-11-07T11:18:19.000Z</time>
      </trkpt>
      <trkpt lat="43.2873830" lon="-3.3413730">
        <ele>624.049011</ele>
        <time>2015-11-07T11:18:24.000Z</time>
      </trkpt>
      <trkpt lat="43.2874900" lon="-3.3413670">
        <ele>625.002014</ele>
        <time>2015-11-07T11:18:27.000Z</time>
      </trkpt>
      <trkpt lat="43.2875800" lon="-3.3413820">
        <ele>623.021973</ele>
        <time>2015-11-07T11:18:30.000Z</time>
      </trkpt>
      <trkpt lat="43.2876970" lon="-3.3413990">
        <ele>625.008057</ele>
        <time>2015-11-07T11:18:34.000Z</time>
      </trkpt>
      <trkpt lat="43.2878070" lon="-3.3414090">
        <ele>624.044983</ele>
        <time>2015-11-07T11:18:38.000Z</time>
      </trkpt>
      <trkpt lat="43.2879080" lon="-3.3414520">
        <ele>627.094971</ele>
        <time>2015-11-07T11:18:42.000Z</time>
      </trkpt>
      <trkpt lat="43.2879990" lon="-3.3414920">
        <ele>627.027039</ele>
        <time>2015-11-07T11:18:47.000Z</time>
      </trkpt>
      <trkpt lat="43.2880840" lon="-3.3415430">
        <ele>626.055054</ele>
        <time>2015-11-07T11:18:52.000Z</time>
      </trkpt>
      <trkpt lat="43.2881870" lon="-3.3416240">
        <ele>628.085999</ele>
        <time>2015-11-07T11:18:55.000Z</time>
      </trkpt>
      <trkpt lat="43.2883090" lon="-3.3417180">
        <ele>629.095947</ele>
        <time>2015-11-07T11:18:57.000Z</time>
      </trkpt>
      <trkpt lat="43.2884190" lon="-3.3417830">
        <ele>630.044983</ele>
        <time>2015-11-07T11:18:59.000Z</time>
      </trkpt>
      <trkpt lat="43.2885330" lon="-3.3418320">
        <ele>629.041992</ele>
        <time>2015-11-07T11:19:01.000Z</time>
      </trkpt>
      <trkpt lat="43.2886530" lon="-3.3418930">
        <ele>630.096008</ele>
        <time>2015-11-07T11:19:03.000Z</time>
      </trkpt>
      <trkpt lat="43.2887640" lon="-3.3419350">
        <ele>632.031006</ele>
        <time>2015-11-07T11:19:06.000Z</time>
      </trkpt>
      <trkpt lat="43.2888570" lon="-3.3419720">
        <ele>631.024048</ele>
        <time>2015-11-07T11:19:09.000Z</time>
      </trkpt>
      <trkpt lat="43.2889470" lon="-3.3420090">
        <ele>632.007996</ele>
        <time>2015-11-07T11:19:13.000Z</time>
      </trkpt>
      <trkpt lat="43.2890470" lon="-3.3420180">
        <ele>634.029968</ele>
        <time>2015-11-07T11:19:18.000Z</time>
      </trkpt>
      <trkpt lat="43.2891390" lon="-3.3419990">
        <ele>635.070007</ele>
        <time>2015-11-07T11:19:23.000Z</time>
      </trkpt>
      <trkpt lat="43.2892290" lon="-3.3419780">
        <ele>637.052002</ele>
        <time>2015-11-07T11:19:28.000Z</time>
      </trkpt>
      <trkpt lat="43.2893240" lon="-3.3419760">
        <ele>638.049988</ele>
        <time>2015-11-07T11:19:33.000Z</time>
      </trkpt>
      <trkpt lat="43.2894150" lon="-3.3419920">
        <ele>639.071045</ele>
        <time>2015-11-07T11:19:38.000Z</time>
      </trkpt>
      <trkpt lat="43.2895110" lon="-3.3420370">
        <ele>640.091003</ele>
        <time>2015-11-07T11:19:43.000Z</time>
      </trkpt>
      <trkpt lat="43.2896160" lon="-3.3420580">
        <ele>641.010010</ele>
        <time>2015-11-07T11:19:48.000Z</time>
      </trkpt>
      <trkpt lat="43.2897190" lon="-3.3420700">
        <ele>642.046997</ele>
        <time>2015-11-07T11:19:54.000Z</time>
      </trkpt>
      <trkpt lat="43.2898200" lon="-3.3421060">
        <ele>643.046021</ele>
        <time>2015-11-07T11:19:59.000Z</time>
      </trkpt>
      <trkpt lat="43.2899250" lon="-3.3421420">
        <ele>644.088013</ele>
        <time>2015-11-07T11:20:04.000Z</time>
      </trkpt>
      <trkpt lat="43.2900160" lon="-3.3421810">
        <ele>645.016052</ele>
        <time>2015-11-07T11:20:09.000Z</time>
      </trkpt>
      <trkpt lat="43.2901230" lon="-3.3422220">
        <ele>644.007996</ele>
        <time>2015-11-07T11:20:13.000Z</time>
      </trkpt>
      <trkpt lat="43.2902300" lon="-3.3422990">
        <ele>644.015015</ele>
        <time>2015-11-07T11:20:16.000Z</time>
      </trkpt>
      <trkpt lat="43.2903330" lon="-3.3423760">
        <ele>645.094971</ele>
        <time>2015-11-07T11:20:19.000Z</time>
      </trkpt>
      <trkpt lat="43.2904110" lon="-3.3424430">
        <ele>641.036987</ele>
        <time>2015-11-07T11:20:22.000Z</time>
      </trkpt>
      <trkpt lat="43.2904960" lon="-3.3425100">
        <ele>638.044983</ele>
        <time>2015-11-07T11:20:26.000Z</time>
      </trkpt>
      <trkpt lat="43.2905880" lon="-3.3425510">
        <ele>636.096008</ele>
        <time>2015-11-07T11:20:31.000Z</time>
      </trkpt>
      <trkpt lat="43.2906670" lon="-3.3426240">
        <ele>633.046021</ele>
        <time>2015-11-07T11:20:35.000Z</time>
      </trkpt>
      <trkpt lat="43.2907660" lon="-3.3426840">
        <ele>632.044983</ele>
        <time>2015-11-07T11:20:40.000Z</time>
      </trkpt>
      <trkpt lat="43.2908480" lon="-3.3427400">
        <ele>631.022034</ele>
        <time>2015-11-07T11:20:43.000Z</time>
      </trkpt>
      <trkpt lat="43.2909300" lon="-3.3428030">
        <ele>628.086975</ele>
        <time>2015-11-07T11:20:47.000Z</time>
      </trkpt>
      <trkpt lat="43.2910160" lon="-3.3428560">
        <ele>626.041992</ele>
        <time>2015-11-07T11:20:52.000Z</time>
      </trkpt>
      <trkpt lat="43.2911060" lon="-3.3429040">
        <ele>626.041992</ele>
        <time>2015-11-07T11:20:56.000Z</time>
      </trkpt>
      <trkpt lat="43.2912050" lon="-3.3429510">
        <ele>626.041992</ele>
        <time>2015-11-07T11:21:00.000Z</time>
      </trkpt>
      <trkpt lat="43.2913040" lon="-3.3429300">
        <ele>626.041992</ele>
        <time>2015-11-07T11:21:04.000Z</time>
      </trkpt>
      <trkpt lat="43.2914010" lon="-3.3428800">
        <ele>626.041992</ele>
        <time>2015-11-07T11:21:08.000Z</time>
      </trkpt>
      <trkpt lat="43.2915050" lon="-3.3427980">
        <ele>626.041992</ele>
        <time>2015-11-07T11:21:13.000Z</time>
      </trkpt>
      <trkpt lat="43.2915890" lon="-3.3426860">
        <ele>626.041992</ele>
        <time>2015-11-07T11:21:16.000Z</time>
      </trkpt>
      <trkpt lat="43.2916690" lon="-3.3425690">
        <ele>626.041992</ele>
        <time>2015-11-07T11:21:19.000Z</time>
      </trkpt>
      <trkpt lat="43.2917420" lon="-3.3424810">
        <ele>626.041992</ele>
        <time>2015-11-07T11:21:22.000Z</time>
      </trkpt>
      <trkpt lat="43.2918320" lon="-3.3424290">
        <ele>626.041992</ele>
        <time>2015-11-07T11:21:28.000Z</time>
      </trkpt>
      <trkpt lat="43.2919020" lon="-3.3423460">
        <ele>626.041992</ele>
        <time>2015-11-07T11:21:34.000Z</time>
      </trkpt>
      <trkpt lat="43.2920180" lon="-3.3423090">
        <ele>626.041992</ele>
        <time>2015-11-07T11:21:38.000Z</time>
      </trkpt>
      <trkpt lat="43.2921110" lon="-3.3423010">
        <ele>626.041992</ele>
        <time>2015-11-07T11:21:42.000Z</time>
      </trkpt>
      <trkpt lat="43.2921710" lon="-3.3421550">
        <ele>631.138977</ele>
        <time>2019-08-16T12:44:35.000Z</time>
      </trkpt>
      <trkpt lat="43.2921930" lon="-3.3421520">
        <ele>631.388000</ele>
        <time>2019-08-16T12:44:36.000Z</time>
      </trkpt>
      <trkpt lat="43.2922940" lon="-3.3421480">
        <ele>631.934998</ele>
        <time>2019-08-16T12:44:41.000Z</time>
      </trkpt>
      <trkpt lat="43.2923830" lon="-3.3422470">
        <ele>633.187988</ele>
        <time>2019-08-16T12:44:49.000Z</time>
      </trkpt>
      <trkpt lat="43.2923990" lon="-3.3422590">
        <ele>633.124023</ele>
        <time>2019-08-16T12:44:50.000Z</time>
      </trkpt>
      <trkpt lat="43.2925490" lon="-3.3423460">
        <ele>635.126038</ele>
        <time>2019-08-16T12:44:59.000Z</time>
      </trkpt>
      <trkpt lat="43.2926560" lon="-3.3424370">
        <ele>637.107971</ele>
        <time>2019-08-16T12:45:06.000Z</time>
      </trkpt>
      <trkpt lat="43.2927370" lon="-3.3425560">
        <ele>639.562012</ele>
        <time>2019-08-16T12:45:13.000Z</time>
      </trkpt>
      <trkpt lat="43.2928250" lon="-3.3426540">
        <ele>642.297974</ele>
        <time>2019-08-16T12:45:20.000Z</time>
      </trkpt>
      <trkpt lat="43.2929330" lon="-3.3427580">
        <ele>644.649963</ele>
        <time>2019-08-16T12:45:28.000Z</time>
      </trkpt>
      <trkpt lat="43.2930530" lon="-3.3428620">
        <ele>647.562988</ele>
        <time>2019-08-16T12:45:37.000Z</time>
      </trkpt>
      <trkpt lat="43.2931410" lon="-3.3429550">
        <ele>649.723999</ele>
        <time>2019-08-16T12:45:44.000Z</time>
      </trkpt>
      <trkpt lat="43.2932290" lon="-3.3430220">
        <ele>651.864014</ele>
        <time>2019-08-16T12:45:50.000Z</time>
      </trkpt>
      <trkpt lat="43.2933450" lon="-3.3431140">
        <ele>654.672974</ele>
        <time>2019-08-16T12:45:58.000Z</time>
      </trkpt>
      <trkpt lat="43.2934440" lon="-3.3431880">
        <ele>657.039978</ele>
        <time>2019-08-16T12:46:06.000Z</time>
      </trkpt>
      <trkpt lat="43.2935460" lon="-3.3432660">
        <ele>658.913025</ele>
        <time>2019-08-16T12:46:13.000Z</time>
      </trkpt>
      <trkpt lat="43.2936830" lon="-3.3433490">
        <ele>661.043030</ele>
        <time>2019-08-16T12:46:21.000Z</time>
      </trkpt>
      <trkpt lat="43.2938430" lon="-3.3434100">
        <ele>663.307007</ele>
        <time>2019-08-16T12:46:30.000Z</time>
      </trkpt>
      <trkpt lat="43.2939530" lon="-3.3434480">
        <ele>664.808044</ele>
        <time>2019-08-16T12:46:37.000Z</time>
      </trkpt>
      <trkpt lat="43.2940840" lon="-3.3434980">
        <ele>665.874939</ele>
        <time>2019-08-16T12:46:45.000Z</time>
      </trkpt>
      <trkpt lat="43.2941150" lon="-3.3434670">
        <ele>666.270996</ele>
        <time>2019-08-16T12:47:33.000Z</time>
      </trkpt>
      <trkpt lat="43.2942260" lon="-3.3435020">
        <ele>666.572998</ele>
        <time>2019-08-16T12:47:40.000Z</time>
      </trkpt>
      <trkpt lat="43.2943180" lon="-3.3435450">
        <ele>667.486023</ele>
        <time>2019-08-16T12:47:46.000Z</time>
      </trkpt>
      <trkpt lat="43.2943530" lon="-3.3435630">
        <ele>668.276978</ele>
        <time>2019-08-16T12:47:51.000Z</time>
      </trkpt>
      <trkpt lat="43.2944480" lon="-3.3435830">
        <ele>669.197021</ele>
        <time>2019-08-16T12:49:20.000Z</time>
      </trkpt>
      <trkpt lat="43.2945520" lon="-3.3436590">
        <ele>669.966003</ele>
        <time>2019-08-16T12:49:28.000Z</time>
      </trkpt>
      <trkpt lat="43.2946050" lon="-3.3437390">
        <ele>670.023010</ele>
        <time>2019-08-16T12:49:34.000Z</time>
      </trkpt>
      <trkpt lat="43.2946720" lon="-3.3438170">
        <ele>670.786011</ele>
        <time>2019-08-16T12:49:40.000Z</time>
      </trkpt>
      <trkpt lat="43.2947800" lon="-3.3439350">
        <ele>671.960022</ele>
        <time>2019-08-16T12:49:48.000Z</time>
      </trkpt>
      <trkpt lat="43.2948840" lon="-3.3440630">
        <ele>673.626038</ele>
        <time>2019-08-16T12:49:57.000Z</time>
      </trkpt>
      <trkpt lat="43.2948880" lon="-3.3441010">
        <ele>673.607971</ele>
        <time>2019-08-16T12:50:40.000Z</time>
      </trkpt>
      <trkpt lat="43.2949600" lon="-3.3441480">
        <ele>673.792053</ele>
        <time>2019-08-16T12:50:45.000Z</time>
      </trkpt>
      <trkpt lat="43.2951150" lon="-3.3442650">
        <ele>675.058044</ele>
        <time>2019-08-16T12:50:54.000Z</time>
      </trkpt>
      <trkpt lat="43.2952650" lon="-3.3443940">
        <ele>676.110046</ele>
        <time>2019-08-16T12:51:03.000Z</time>
      </trkpt>
      <trkpt lat="43.2953960" lon="-3.3444630">
        <ele>677.062988</ele>
        <time>2019-08-16T12:51:11.000Z</time>
      </trkpt>
      <trkpt lat="43.2955780" lon="-3.3444890">
        <ele>677.134033</ele>
        <time>2019-08-16T12:51:18.000Z</time>
      </trkpt>
      <trkpt lat="43.2957370" lon="-3.3445390">
        <ele>676.443970</ele>
        <time>2019-08-16T12:51:23.000Z</time>
      </trkpt>
      <trkpt lat="43.2958530" lon="-3.3446600">
        <ele>677.862976</ele>
        <time>2019-08-16T12:51:31.000Z</time>
      </trkpt>
      <trkpt lat="43.2959720" lon="-3.3447870">
        <ele>678.789978</ele>
        <time>2019-08-16T12:51:38.000Z</time>
      </trkpt>
      <trkpt lat="43.2960570" lon="-3.3449050">
        <ele>678.535034</ele>
        <time>2019-08-16T12:51:43.000Z</time>
      </trkpt>
      <trkpt lat="43.2961430" lon="-3.3450020">
        <ele>677.785950</ele>
        <time>2019-08-16T12:51:48.000Z</time>
      </trkpt>
      <trkpt lat="43.2961570" lon="-3.3450440">
        <ele>676.614014</ele>
        <time>2019-08-16T12:51:53.000Z</time>
      </trkpt>
      <trkpt lat="43.2961710" lon="-3.3450640">
        <ele>676.407959</ele>
        <time>2019-08-16T12:52:48.000Z</time>
      </trkpt>
      <trkpt lat="43.2962640" lon="-3.3451230">
        <ele>676.137024</ele>
        <time>2019-08-16T12:52:53.000Z</time>
      </trkpt>
      <trkpt lat="43.2963950" lon="-3.3451170">
        <ele>675.232971</ele>
        <time>2019-08-16T12:52:57.000Z</time>
      </trkpt>
      <trkpt lat="43.2964850" lon="-3.3450350">
        <ele>674.175049</ele>
        <time>2019-08-16T12:53:02.000Z</time>
      </trkpt>
      <trkpt lat="43.2965620" lon="-3.3450090">
        <ele>673.678040</ele>
        <time>2019-08-16T12:53:06.000Z</time>
      </trkpt>
      <trkpt lat="43.2965510" lon="-3.3450090">
        <ele>673.229004</ele>
        <time>2019-08-16T12:53:14.000Z</time>
      </trkpt>
      <trkpt lat="43.2965830" lon="-3.3450330">
        <ele>673.138977</ele>
        <time>2019-08-16T12:54:09.000Z</time>
      </trkpt>
      <trkpt lat="43.2966640" lon="-3.3451150">
        <ele>673.627991</ele>
        <time>2019-08-16T12:54:14.000Z</time>
      </trkpt>
      <trkpt lat="43.2967660" lon="-3.3451120">
        <ele>674.315002</ele>
        <time>2019-08-16T12:54:19.000Z</time>
      </trkpt>
      <trkpt lat="43.2970000" lon="-3.3451990">
        <ele>675.526978</ele>
        <time>2019-08-16T12:54:29.000Z</time>
      </trkpt>
      <trkpt lat="43.2971520" lon="-3.3452610">
        <ele>676.968018</ele>
        <time>2019-08-16T12:54:37.000Z</time>
      </trkpt>
      <trkpt lat="43.2973410" lon="-3.3453480">
        <ele>678.713989</ele>
        <time>2019-08-16T12:54:47.000Z</time>
      </trkpt>
      <trkpt lat="43.2975040" lon="-3.3454220">
        <ele>679.808044</ele>
        <time>2019-08-16T12:54:56.000Z</time>
      </trkpt>
      <trkpt lat="43.2976480" lon="-3.3454770">
        <ele>681.415955</ele>
        <time>2019-08-16T12:55:04.000Z</time>
      </trkpt>
      <trkpt lat="43.2977990" lon="-3.3455440">
        <ele>682.831970</ele>
        <time>2019-08-16T12:55:12.000Z</time>
      </trkpt>
      <trkpt lat="43.2979170" lon="-3.3456230">
        <ele>684.184021</ele>
        <time>2019-08-16T12:55:19.000Z</time>
      </trkpt>
      <trkpt lat="43.2980540" lon="-3.3457400">
        <ele>685.226990</ele>
        <time>2019-08-16T12:55:28.000Z</time>
      </trkpt>
      <trkpt lat="43.2982210" lon="-3.3458830">
        <ele>686.217957</ele>
        <time>2019-08-16T12:55:37.000Z</time>
      </trkpt>
      <trkpt lat="43.2983520" lon="-3.3460400">
        <ele>686.768005</ele>
        <time>2019-08-16T12:55:45.000Z</time>
      </trkpt>
      <trkpt lat="43.2985220" lon="-3.3462710">
        <ele>687.146973</ele>
        <time>2019-08-16T12:55:55.000Z</time>
      </trkpt>
      <trkpt lat="43.2986480" lon="-3.3464970">
        <ele>688.094055</ele>
        <time>2019-08-16T12:56:03.000Z</time>
      </trkpt>
      <trkpt lat="43.2987380" lon="-3.3466010">
        <ele>688.684021</ele>
        <time>2019-08-16T12:56:10.000Z</time>
      </trkpt>
      <trkpt lat="43.2987650" lon="-3.3466390">
        <ele>688.407043</ele>
        <time>2019-08-16T12:56:37.000Z</time>
      </trkpt>
      <trkpt lat="43.2988080" lon="-3.3466320">
        <ele>688.816956</ele>
        <time>2019-08-16T12:57:53.000Z</time>
      </trkpt>
      <trkpt lat="43.2987790" lon="-3.3467380">
        <ele>689.007996</ele>
        <time>2019-08-16T12:57:58.000Z</time>
      </trkpt>
      <trkpt lat="43.2987300" lon="-3.3469080">
        <ele>689.492004</ele>
        <time>2019-08-16T12:58:05.000Z</time>
      </trkpt>
      <trkpt lat="43.2987740" lon="-3.3471260">
        <ele>688.487976</ele>
        <time>2019-08-16T12:58:13.000Z</time>
      </trkpt>
      <trkpt lat="43.2988140" lon="-3.3473280">
        <ele>686.970032</ele>
        <time>2019-08-16T12:58:22.000Z</time>
      </trkpt>
      <trkpt lat="43.2987620" lon="-3.3474580">
        <ele>686.283020</ele>
        <time>2019-08-16T12:58:28.000Z</time>
      </trkpt>
      <trkpt lat="43.2987530" lon="-3.3474980">
        <ele>685.914001</ele>
        <time>2019-08-16T12:58:30.000Z</time>
      </trkpt>
      <trkpt lat="43.2988240" lon="-3.3475910">
        <ele>685.273987</ele>
        <time>2019-08-16T12:58:37.000Z</time>
      </trkpt>
      <trkpt lat="43.2988930" lon="-3.3477410">
        <ele>685.793030</ele>
        <time>2019-08-16T12:58:46.000Z</time>
      </trkpt>
      <trkpt lat="43.2989470" lon="-3.3479070">
        <ele>686.479980</ele>
        <time>2019-08-16T12:58:54.000Z</time>
      </trkpt>
      <trkpt lat="43.2989850" lon="-3.3480360">
        <ele>687.093994</ele>
        <time>2019-08-16T12:59:00.000Z</time>
      </trkpt>
      <trkpt lat="43.2990480" lon="-3.3481380">
        <ele>688.156982</ele>
        <time>2019-08-16T12:59:07.000Z</time>
      </trkpt>
      <trkpt lat="43.2991270" lon="-3.3481560">
        <ele>689.221985</ele>
        <time>2019-08-16T12:59:13.000Z</time>
      </trkpt>
      <trkpt lat="43.2992180" lon="-3.3482320">
        <ele>690.307983</ele>
        <time>2019-08-16T12:59:20.000Z</time>
      </trkpt>
      <trkpt lat="43.2992970" lon="-3.3483140">
        <ele>691.322998</ele>
        <time>2019-08-16T12:59:27.000Z</time>
      </trkpt>
      <trkpt lat="43.2993580" lon="-3.3483490">
        <ele>691.859009</ele>
        <time>2019-08-16T12:59:33.000Z</time>
      </trkpt>
      <trkpt lat="43.2993820" lon="-3.3482970">
        <ele>692.390991</ele>
        <time>2019-08-16T13:00:08.000Z</time>
      </trkpt>
      <trkpt lat="43.2994860" lon="-3.3483150">
        <ele>691.893982</ele>
        <time>2019-08-16T13:00:14.000Z</time>
      </trkpt>
      <trkpt lat="43.2996080" lon="-3.3483860">
        <ele>689.614990</ele>
        <time>2019-08-16T13:00:20.000Z</time>
      </trkpt>
      <trkpt lat="43.2996600" lon="-3.3484780">
        <ele>688.195007</ele>
        <time>2019-08-16T13:00:24.000Z</time>
      </trkpt>
      <trkpt lat="43.2997290" lon="-3.3486660">
        <ele>686.993958</ele>
        <time>2019-08-16T13:00:30.000Z</time>
      </trkpt>
      <trkpt lat="43.2998090" lon="-3.3488870">
        <ele>685.661011</ele>
        <time>2019-08-16T13:00:36.000Z</time>
      </trkpt>
      <trkpt lat="43.2998250" lon="-3.3489700">
        <ele>685.038025</ele>
        <time>2019-08-16T13:00:38.000Z</time>
      </trkpt>
      <trkpt lat="43.2998870" lon="-3.3491220">
        <ele>683.970032</ele>
        <time>2019-08-16T13:00:43.000Z</time>
      </trkpt>
      <trkpt lat="43.2999080" lon="-3.3492480">
        <ele>683.416992</ele>
        <time>2019-08-16T13:00:48.000Z</time>
      </trkpt>
      <trkpt lat="43.2999310" lon="-3.3493130">
        <ele>683.308044</ele>
        <time>2019-08-16T13:00:51.000Z</time>
      </trkpt>
      <trkpt lat="43.3000060" lon="-3.3495400">
        <ele>683.046997</ele>
        <time>2019-08-16T13:00:59.000Z</time>
      </trkpt>
      <trkpt lat="43.3000440" lon="-3.3497300">
        <ele>683.283020</ele>
        <time>2019-08-16T13:01:06.000Z</time>
      </trkpt>
      <trkpt lat="43.3000790" lon="-3.3500530">
        <ele>682.815002</ele>
        <time>2019-08-16T13:01:13.000Z</time>
      </trkpt>
      <trkpt lat="43.3000890" lon="-3.3501180">
        <ele>682.727966</ele>
        <time>2019-08-16T13:01:14.000Z</time>
      </trkpt>
      <trkpt lat="43.3000900" lon="-3.3505610">
        <ele>680.949036</ele>
        <time>2019-08-16T13:01:19.000Z</time>
      </trkpt>
      <trkpt lat="43.3000730" lon="-3.3509980">
        <ele>678.519043</ele>
        <time>2019-08-16T13:01:23.000Z</time>
      </trkpt>
      <trkpt lat="43.3001080" lon="-3.3513720">
        <ele>676.737976</ele>
        <time>2019-08-16T13:01:27.000Z</time>
      </trkpt>
      <trkpt lat="43.3001370" lon="-3.3515010">
        <ele>676.455017</ele>
        <time>2019-08-16T13:01:29.000Z</time>
      </trkpt>
      <trkpt lat="43.3002770" lon="-3.3517950">
        <ele>676.391968</ele>
        <time>2019-08-16T13:01:35.000Z</time>
      </trkpt>
      <trkpt lat="43.3004050" lon="-3.3518800">
        <ele>676.072937</ele>
        <time>2019-08-16T13:01:39.000Z</time>
      </trkpt>
      <trkpt lat="43.3007090" lon="-3.3520550">
        <ele>675.220032</ele>
        <time>2019-08-16T13:01:46.000Z</time>
      </trkpt>
      <trkpt lat="43.3009830" lon="-3.3522680">
        <ele>673.108032</ele>
        <time>2019-08-16T13:01:51.000Z</time>
      </trkpt>
      <trkpt lat="43.3011020" lon="-3.3523330">
        <ele>672.172974</ele>
        <time>2019-08-16T13:01:53.000Z</time>
      </trkpt>
      <trkpt lat="43.3013420" lon="-3.3524870">
        <ele>670.018982</ele>
        <time>2019-08-16T13:01:57.000Z</time>
      </trkpt>
      <trkpt lat="43.3015670" lon="-3.3527830">
        <ele>668.141052</ele>
        <time>2019-08-16T13:02:01.000Z</time>
      </trkpt>
      <trkpt lat="43.3016610" lon="-3.3530710">
        <ele>666.483948</ele>
        <time>2019-08-16T13:02:04.000Z</time>
      </trkpt>
      <trkpt lat="43.3017040" lon="-3.3532460">
        <ele>665.424988</ele>
        <time>2019-08-16T13:02:06.000Z</time>
      </trkpt>
      <trkpt lat="43.3018160" lon="-3.3535230">
        <ele>664.044983</ele>
        <time>2019-08-16T13:02:11.000Z</time>
      </trkpt>
      <trkpt lat="43.3019000" lon="-3.3536750">
        <ele>663.644043</ele>
        <time>2019-08-16T13:02:16.000Z</time>
      </trkpt>
      <trkpt lat="43.3020020" lon="-3.3537350">
        <ele>664.041016</ele>
        <time>2019-08-16T13:02:22.000Z</time>
      </trkpt>
      <trkpt lat="43.3021250" lon="-3.3538160">
        <ele>665.054016</ele>
        <time>2019-08-16T13:02:29.000Z</time>
      </trkpt>
      <trkpt lat="43.3023200" lon="-3.3538950">
        <ele>666.855957</ele>
        <time>2019-08-16T13:02:38.000Z</time>
      </trkpt>
      <trkpt lat="43.3024760" lon="-3.3539540">
        <ele>668.210999</ele>
        <time>2019-08-16T13:02:47.000Z</time>
      </trkpt>
      <trkpt lat="43.3024910" lon="-3.3539730">
        <ele>668.508057</ele>
        <time>2019-08-16T13:02:49.000Z</time>
      </trkpt>
      <trkpt lat="43.3024490" lon="-3.3540070">
        <ele>668.559021</ele>
        <time>2019-08-16T13:02:53.000Z</time>
      </trkpt>
      <trkpt lat="43.3022810" lon="-3.3540200">
        <ele>667.644958</ele>
        <time>2019-08-16T13:03:00.000Z</time>
      </trkpt>
      <trkpt lat="43.3022420" lon="-3.3540340">
        <ele>667.347046</ele>
        <time>2019-08-16T13:03:02.000Z</time>
      </trkpt>
      <trkpt lat="43.3022290" lon="-3.3540960">
        <ele>666.820007</ele>
        <time>2019-08-16T13:03:06.000Z</time>
      </trkpt>
      <trkpt lat="43.3022960" lon="-3.3542370">
        <ele>666.681030</ele>
        <time>2019-08-16T13:03:13.000Z</time>
      </trkpt>
      <trkpt lat="43.3023830" lon="-3.3543940">
        <ele>667.260986</ele>
        <time>2019-08-16T13:03:21.000Z</time>
      </trkpt>
      <trkpt lat="43.3024840" lon="-3.3545430">
        <ele>668.239990</ele>
        <time>2019-08-16T13:03:29.000Z</time>
      </trkpt>
      <trkpt lat="43.3026090" lon="-3.3546770">
        <ele>669.587036</ele>
        <time>2019-08-16T13:03:38.000Z</time>
      </trkpt>
      <trkpt lat="43.3026750" lon="-3.3548020">
        <ele>670.491028</ele>
        <time>2019-08-16T13:03:45.000Z</time>
      </trkpt>
      <trkpt lat="43.3027960" lon="-3.3548790">
        <ele>672.280945</ele>
        <time>2019-08-16T13:03:54.000Z</time>
      </trkpt>
      <trkpt lat="43.3028960" lon="-3.3549720">
        <ele>673.419006</ele>
        <time>2019-08-16T13:04:02.000Z</time>
      </trkpt>
      <trkpt lat="43.3030170" lon="-3.3550620">
        <ele>675.307983</ele>
        <time>2019-08-16T13:04:11.000Z</time>
      </trkpt>
      <trkpt lat="43.3030970" lon="-3.3551550">
        <ele>677.312988</ele>
        <time>2019-08-16T13:04:18.000Z</time>
      </trkpt>
      <trkpt lat="43.3032000" lon="-3.3553120">
        <ele>679.138977</ele>
        <time>2019-08-16T13:04:27.000Z</time>
      </trkpt>
      <trkpt lat="43.3032350" lon="-3.3553670">
        <ele>679.791016</ele>
        <time>2019-08-16T13:04:30.000Z</time>
      </trkpt>
      <trkpt lat="43.3033890" lon="-3.3554540">
        <ele>682.094055</ele>
        <time>2019-08-16T13:04:39.000Z</time>
      </trkpt>
      <trkpt lat="43.3035640" lon="-3.3555120">
        <ele>686.744995</ele>
        <time>2019-08-16T13:04:50.000Z</time>
      </trkpt>
      <trkpt lat="43.3037050" lon="-3.3555680">
        <ele>689.254944</ele>
        <time>2019-08-16T13:04:57.000Z</time>
      </trkpt>
      <trkpt lat="43.3038710" lon="-3.3556080">
        <ele>693.574036</ele>
        <time>2019-08-16T13:05:06.000Z</time>
      </trkpt>
      <trkpt lat="43.3039600" lon="-3.3556420">
        <ele>696.481018</ele>
        <time>2019-08-16T13:05:12.000Z</time>
      </trkpt>
      <trkpt lat="43.3040990" lon="-3.3556350">
        <ele>700.755005</ele>
        <time>2019-08-16T13:05:21.000Z</time>
      </trkpt>
      <trkpt lat="43.3041950" lon="-3.3556460">
        <ele>703.706970</ele>
        <time>2019-08-16T13:05:28.000Z</time>
      </trkpt>
      <trkpt lat="43.3043170" lon="-3.3556740">
        <ele>707.316956</ele>
        <time>2019-08-16T13:05:36.000Z</time>
      </trkpt>
      <trkpt lat="43.3044250" lon="-3.3557290">
        <ele>710.407959</ele>
        <time>2019-08-16T13:05:44.000Z</time>
      </trkpt>
      <trkpt lat="43.3045470" lon="-3.3558320">
        <ele>713.519043</ele>
        <time>2019-08-16T13:05:53.000Z</time>
      </trkpt>
      <trkpt lat="43.3046310" lon="-3.3559120">
        <ele>715.615051</ele>
        <time>2019-08-16T13:06:00.000Z</time>
      </trkpt>
      <trkpt lat="43.3047360" lon="-3.3560270">
        <ele>717.936951</ele>
        <time>2019-08-16T13:06:08.000Z</time>
      </trkpt>
      <trkpt lat="43.3048500" lon="-3.3561430">
        <ele>719.579956</ele>
        <time>2019-08-16T13:06:16.000Z</time>
      </trkpt>
      <trkpt lat="43.3048690" lon="-3.3561580">
        <ele>720.220947</ele>
        <time>2019-08-16T13:06:20.000Z</time>
      </trkpt>
      <trkpt lat="43.3048690" lon="-3.3561590">
        <ele>720.480957</ele>
        <time>2019-08-16T13:06:36.000Z</time>
      </trkpt>
      <trkpt lat="43.3048810" lon="-3.3562430">
        <ele>720.429993</ele>
        <time>2019-08-16T13:06:40.000Z</time>
      </trkpt>
      <trkpt lat="43.3049570" lon="-3.3564400">
        <ele>720.397034</ele>
        <time>2019-08-16T13:06:47.000Z</time>
      </trkpt>
      <trkpt lat="43.3050860" lon="-3.3567870">
        <ele>720.945007</ele>
        <time>2019-08-16T13:06:56.000Z</time>
      </trkpt>
      <trkpt lat="43.3052390" lon="-3.3572040">
        <ele>721.247009</ele>
        <time>2019-08-16T13:07:06.000Z</time>
      </trkpt>
      <trkpt lat="43.3053620" lon="-3.3574770">
        <ele>721.810974</ele>
        <time>2019-08-16T13:07:13.000Z</time>
      </trkpt>
      <trkpt lat="43.3054980" lon="-3.3577060">
        <ele>722.807983</ele>
        <time>2019-08-16T13:07:20.000Z</time>
      </trkpt>
      <trkpt lat="43.3056680" lon="-3.3579090">
        <ele>723.757996</ele>
        <time>2019-08-16T13:07:27.000Z</time>
      </trkpt>
      <trkpt lat="43.3058080" lon="-3.3580620">
        <ele>724.614014</ele>
        <time>2019-08-16T13:07:34.000Z</time>
      </trkpt>
      <trkpt lat="43.3059880" lon="-3.3583000">
        <ele>726.295959</ele>
        <time>2019-08-16T13:07:44.000Z</time>
      </trkpt>
      <trkpt lat="43.3061120" lon="-3.3584840">
        <ele>727.299011</ele>
        <time>2019-08-16T13:07:52.000Z</time>
      </trkpt>
      <trkpt lat="43.3061950" lon="-3.3586510">
        <ele>727.160034</ele>
        <time>2019-08-16T13:08:00.000Z</time>
      </trkpt>
      <trkpt lat="43.3063330" lon="-3.3587390">
        <ele>727.289978</ele>
        <time>2019-08-16T13:08:07.000Z</time>
      </trkpt>
      <trkpt lat="43.3064890" lon="-3.3587750">
        <ele>727.878967</ele>
        <time>2019-08-16T13:08:13.000Z</time>
      </trkpt>
      <trkpt lat="43.3065530" lon="-3.3587480">
        <ele>727.785950</ele>
        <time>2019-08-16T13:08:19.000Z</time>
      </trkpt>
      <trkpt lat="43.3065860" lon="-3.3587410">
        <ele>727.125061</ele>
        <time>2019-08-16T13:09:26.000Z</time>
      </trkpt>
      <trkpt lat="43.3065190" lon="-3.3587380">
        <ele>727.026001</ele>
        <time>2019-08-16T13:10:49.000Z</time>
      </trkpt>
      <trkpt lat="43.3066330" lon="-3.3587620">
        <ele>726.507996</ele>
        <time>2019-08-16T13:10:56.000Z</time>
      </trkpt>
      <trkpt lat="43.3066770" lon="-3.3587420">
        <ele>725.608032</ele>
        <time>2019-08-16T13:11:02.000Z</time>
      </trkpt>
      <trkpt lat="43.3068060" lon="-3.3586900">
        <ele>724.856018</ele>
        <time>2019-08-16T13:11:40.000Z</time>
      </trkpt>
      <trkpt lat="43.3068930" lon="-3.3586550">
        <ele>723.781982</ele>
        <time>2019-08-16T13:11:45.000Z</time>
      </trkpt>
      <trkpt lat="43.3069880" lon="-3.3587350">
        <ele>721.134033</ele>
        <time>2019-08-16T13:11:50.000Z</time>
      </trkpt>
      <trkpt lat="43.3070600" lon="-3.3588250">
        <ele>719.166992</ele>
        <time>2019-08-16T13:11:53.000Z</time>
      </trkpt>
      <trkpt lat="43.3072600" lon="-3.3587870">
        <ele>716.088013</ele>
        <time>2019-08-16T13:11:57.000Z</time>
      </trkpt>
      <trkpt lat="43.3075820" lon="-3.3585370">
        <ele>709.577942</ele>
        <time>2019-08-16T13:12:03.000Z</time>
      </trkpt>
      <trkpt lat="43.3077660" lon="-3.3583850">
        <ele>705.737000</ele>
        <time>2019-08-16T13:12:08.000Z</time>
      </trkpt>
      <trkpt lat="43.3079750" lon="-3.3581830">
        <ele>702.313965</ele>
        <time>2019-08-16T13:12:14.000Z</time>
      </trkpt>
      <trkpt lat="43.3080410" lon="-3.3580880">
        <ele>701.275940</ele>
        <time>2019-08-16T13:12:16.000Z</time>
      </trkpt>
      <trkpt lat="43.3082410" lon="-3.3578920">
        <ele>697.590027</ele>
        <time>2019-08-16T13:12:22.000Z</time>
      </trkpt>
      <trkpt lat="43.3084440" lon="-3.3576810">
        <ele>694.919006</ele>
        <time>2019-08-16T13:12:28.000Z</time>
      </trkpt>
      <trkpt lat="43.3085360" lon="-3.3574810">
        <ele>694.007996</ele>
        <time>2019-08-16T13:12:33.000Z</time>
      </trkpt>
      <trkpt lat="43.3086020" lon="-3.3573240">
        <ele>694.070984</ele>
        <time>2019-08-16T13:12:38.000Z</time>
      </trkpt>
      <trkpt lat="43.3086160" lon="-3.3572980">
        <ele>694.057007</ele>
        <time>2019-08-16T13:12:39.000Z</time>
      </trkpt>
      <trkpt lat="43.3086930" lon="-3.3573060">
        <ele>694.398987</ele>
        <time>2019-08-16T13:12:43.000Z</time>
      </trkpt>
      <trkpt lat="43.3087170" lon="-3.3573350">
        <ele>694.382019</ele>
        <time>2019-08-16T13:12:44.000Z</time>
      </trkpt>
      <trkpt lat="43.3088120" lon="-3.3574490">
        <ele>693.972961</ele>
        <time>2019-08-16T13:12:47.000Z</time>
      </trkpt>
      <trkpt lat="43.3091010" lon="-3.3576660">
        <ele>691.742981</ele>
        <time>2019-08-16T13:12:52.000Z</time>
      </trkpt>
      <trkpt lat="43.3094190" lon="-3.3578750">
        <ele>688.642029</ele>
        <time>2019-08-16T13:12:56.000Z</time>
      </trkpt>
      <trkpt lat="43.3096590" lon="-3.3580700">
        <ele>686.929016</ele>
        <time>2019-08-16T13:12:59.000Z</time>
      </trkpt>
      <trkpt lat="43.3097350" lon="-3.3581450">
        <ele>686.190979</ele>
        <time>2019-08-16T13:13:00.000Z</time>
      </trkpt>
      <trkpt lat="43.3100490" lon="-3.3586120">
        <ele>682.980957</ele>
        <time>2019-08-16T13:13:05.000Z</time>
      </trkpt>
      <trkpt lat="43.3103090" lon="-3.3589210">
        <ele>681.319031</ele>
        <time>2019-08-16T13:13:09.000Z</time>
      </trkpt>
      <trkpt lat="43.3105500" lon="-3.3592290">
        <ele>679.907959</ele>
        <time>2019-08-16T13:13:13.000Z</time>
      </trkpt>
      <trkpt lat="43.3108720" lon="-3.3596970">
        <ele>675.732971</ele>
        <time>2019-08-16T13:13:19.000Z</time>
      </trkpt>
      <trkpt lat="43.3109080" lon="-3.3597530">
        <ele>674.068970</ele>
        <time>2019-08-16T13:13:21.000Z</time>
      </trkpt>
      <trkpt lat="43.3109210" lon="-3.3597560">
        <ele>671.921021</ele>
        <time>2019-08-16T13:13:26.000Z</time>
      </trkpt>
      <trkpt lat="43.3108410" lon="-3.3596710">
        <ele>670.993958</ele>
        <time>2019-08-16T13:13:29.000Z</time>
      </trkpt>
      <trkpt lat="43.3107890" lon="-3.3596400">
        <ele>670.624939</ele>
        <time>2019-08-16T13:13:30.000Z</time>
      </trkpt>
      <trkpt lat="43.3103860" lon="-3.3594270">
        <ele>668.595032</ele>
        <time>2019-08-16T13:13:37.000Z</time>
      </trkpt>
      <trkpt lat="43.3102260" lon="-3.3593350">
        <ele>667.993958</ele>
        <time>2019-08-16T13:13:41.000Z</time>
      </trkpt>
      <trkpt lat="43.3101430" lon="-3.3593140">
        <ele>667.610962</ele>
        <time>2019-08-16T13:13:43.000Z</time>
      </trkpt>
      <trkpt lat="43.3099110" lon="-3.3593770">
        <ele>666.085999</ele>
        <time>2019-08-16T13:13:47.000Z</time>
      </trkpt>
      <trkpt lat="43.3098350" lon="-3.3595190">
        <ele>664.959961</ele>
        <time>2019-08-16T13:13:50.000Z</time>
      </trkpt>
      <trkpt lat="43.3098100" lon="-3.3598250">
        <ele>663.225952</ele>
        <time>2019-08-16T13:13:54.000Z</time>
      </trkpt>
      <trkpt lat="43.3098480" lon="-3.3601220">
        <ele>662.208008</ele>
        <time>2019-08-16T13:13:58.000Z</time>
      </trkpt>
      <trkpt lat="43.3099180" lon="-3.3603930">
        <ele>661.492004</ele>
        <time>2019-08-16T13:14:03.000Z</time>
      </trkpt>
      <trkpt lat="43.3099910" lon="-3.3606740">
        <ele>660.828003</ele>
        <time>2019-08-16T13:14:07.000Z</time>
      </trkpt>
      <trkpt lat="43.3100450" lon="-3.3609090">
        <ele>660.250000</ele>
        <time>2019-08-16T13:14:10.000Z</time>
      </trkpt>
      <trkpt lat="43.3100650" lon="-3.3613560">
        <ele>659.122986</ele>
        <time>2019-08-16T13:14:15.000Z</time>
      </trkpt>
      <trkpt lat="43.3100520" lon="-3.3615520">
        <ele>658.643982</ele>
        <time>2019-08-16T13:14:18.000Z</time>
      </trkpt>
      <trkpt lat="43.3099570" lon="-3.3618930">
        <ele>657.884033</ele>
        <time>2019-08-16T13:14:24.000Z</time>
      </trkpt>
      <trkpt lat="43.3098180" lon="-3.3619030">
        <ele>657.393005</ele>
        <time>2019-08-16T13:14:27.000Z</time>
      </trkpt>
      <trkpt lat="43.3097490" lon="-3.3619260">
        <ele>657.049988</ele>
        <time>2019-08-16T13:14:29.000Z</time>
      </trkpt>
      <trkpt lat="43.3096410" lon="-3.3619490">
        <ele>656.727051</ele>
        <time>2019-08-16T13:14:32.000Z</time>
      </trkpt>
      <trkpt lat="43.3094600" lon="-3.3620570">
        <ele>656.668030</ele>
        <time>2019-08-16T13:14:36.000Z</time>
      </trkpt>
      <trkpt lat="43.3093140" lon="-3.3622400">
        <ele>656.614014</ele>
        <time>2019-08-16T13:14:40.000Z</time>
      </trkpt>
      <trkpt lat="43.3090710" lon="-3.3626500">
        <ele>656.408020</ele>
        <time>2019-08-16T13:14:46.000Z</time>
      </trkpt>
      <trkpt lat="43.3090270" lon="-3.3627210">
        <ele>656.376038</ele>
        <time>2019-08-16T13:14:47.000Z</time>
      </trkpt>
      <trkpt lat="43.3089670" lon="-3.3628540">
        <ele>655.932007</ele>
        <time>2019-08-16T13:14:49.000Z</time>
      </trkpt>
      <trkpt lat="43.3089340" lon="-3.3630680">
        <ele>655.414001</ele>
        <time>2019-08-16T13:14:53.000Z</time>
      </trkpt>
      <trkpt lat="43.3088860" lon="-3.3632580">
        <ele>654.937012</ele>
        <time>2019-08-16T13:14:57.000Z</time>
      </trkpt>
      <trkpt lat="43.3088770" lon="-3.3634600">
        <ele>654.667969</ele>
        <time>2019-08-16T13:15:00.000Z</time>
      </trkpt>
      <trkpt lat="43.3088940" lon="-3.3638150">
        <ele>653.917969</ele>
        <time>2019-08-16T13:15:05.000Z</time>
      </trkpt>
      <trkpt lat="43.3089230" lon="-3.3638640">
        <ele>653.957031</ele>
        <time>2019-08-16T13:15:06.000Z</time>
      </trkpt>
      <trkpt lat="43.3090390" lon="-3.3640370">
        <ele>653.193970</ele>
        <time>2019-08-16T13:15:10.000Z</time>
      </trkpt>
      <trkpt lat="43.3090910" lon="-3.3642990">
        <ele>652.940979</ele>
        <time>2019-08-16T13:15:15.000Z</time>
      </trkpt>
      <trkpt lat="43.3090650" lon="-3.3644010">
        <ele>653.081055</ele>
        <time>2019-08-16T13:15:17.000Z</time>
      </trkpt>
      <trkpt lat="43.3090510" lon="-3.3646140">
        <ele>653.708984</ele>
        <time>2019-08-16T13:15:21.000Z</time>
      </trkpt>
      <trkpt lat="43.3090150" lon="-3.3648710">
        <ele>654.007996</ele>
        <time>2019-08-16T13:15:25.000Z</time>
      </trkpt>
      <trkpt lat="43.3089470" lon="-3.3652520">
        <ele>654.247986</ele>
        <time>2019-08-16T13:15:31.000Z</time>
      </trkpt>
      <trkpt lat="43.3089100" lon="-3.3656360">
        <ele>654.274048</ele>
        <time>2019-08-16T13:15:36.000Z</time>
      </trkpt>
      <trkpt lat="43.3088750" lon="-3.3660030">
        <ele>653.926025</ele>
        <time>2019-08-16T13:15:41.000Z</time>
      </trkpt>
      <trkpt lat="43.3088670" lon="-3.3660680">
        <ele>653.848999</ele>
        <time>2019-08-16T13:15:42.000Z</time>
      </trkpt>
      <trkpt lat="43.3087570" lon="-3.3664950">
        <ele>653.709961</ele>
        <time>2019-08-16T13:15:49.000Z</time>
      </trkpt>
      <trkpt lat="43.3086910" lon="-3.3666820">
        <ele>653.679993</ele>
        <time>2019-08-16T13:15:52.000Z</time>
      </trkpt>
      <trkpt lat="43.3086490" lon="-3.3671110">
        <ele>653.239014</ele>
        <time>2019-08-16T13:15:58.000Z</time>
      </trkpt>
      <trkpt lat="43.3086420" lon="-3.3672680">
        <ele>653.075989</ele>
        <time>2019-08-16T13:16:00.000Z</time>
      </trkpt>
      <trkpt lat="43.3086310" lon="-3.3677910">
        <ele>652.627991</ele>
        <time>2019-08-16T13:16:07.000Z</time>
      </trkpt>
      <trkpt lat="43.3086160" lon="-3.3680930">
        <ele>652.588989</ele>
        <time>2019-08-16T13:16:11.000Z</time>
      </trkpt>
      <trkpt lat="43.3085470" lon="-3.3687100">
        <ele>651.817017</ele>
        <time>2019-08-16T13:16:19.000Z</time>
      </trkpt>
      <trkpt lat="43.3085380" lon="-3.3687800">
        <ele>651.808044</ele>
        <time>2019-08-16T13:16:20.000Z</time>
      </trkpt>
      <trkpt lat="43.3084890" lon="-3.3689820">
        <ele>651.835999</ele>
        <time>2019-08-16T13:16:23.000Z</time>
      </trkpt>
      <trkpt lat="43.3084400" lon="-3.3691140">
        <ele>651.882019</ele>
        <time>2019-08-16T13:16:25.000Z</time>
      </trkpt>
      <trkpt lat="43.3082520" lon="-3.3694230">
        <ele>651.614014</ele>
        <time>2019-08-16T13:16:31.000Z</time>
      </trkpt>
      <trkpt lat="43.3080070" lon="-3.3697780">
        <ele>652.296997</ele>
        <time>2019-08-16T13:16:38.000Z</time>
      </trkpt>
      <trkpt lat="43.3079650" lon="-3.3699410">
        <ele>652.138000</ele>
        <time>2019-08-16T13:16:41.000Z</time>
      </trkpt>
      <trkpt lat="43.3079390" lon="-3.3701200">
        <ele>651.988037</ele>
        <time>2019-08-16T13:16:44.000Z</time>
      </trkpt>
      <trkpt lat="43.3079420" lon="-3.3704390">
        <ele>651.427002</ele>
        <time>2019-08-16T13:16:49.000Z</time>
      </trkpt>
      <trkpt lat="43.3080160" lon="-3.3709580">
        <ele>649.164001</ele>
        <time>2019-08-16T13:16:54.000Z</time>
      </trkpt>
      <trkpt lat="43.3081480" lon="-3.3715550">
        <ele>644.755005</ele>
        <time>2019-08-16T13:16:59.000Z</time>
      </trkpt>
      <trkpt lat="43.3084050" lon="-3.3723580">
        <ele>638.106995</ele>
        <time>2019-08-16T13:17:05.000Z</time>
      </trkpt>
      <trkpt lat="43.3085520" lon="-3.3729130">
        <ele>631.916992</ele>
        <time>2019-08-16T13:17:09.000Z</time>
      </trkpt>
      <trkpt lat="43.3086600" lon="-3.3735570">
        <ele>626.108032</ele>
        <time>2019-08-16T13:17:13.000Z</time>
      </trkpt>
      <trkpt lat="43.3088450" lon="-3.3744370">
        <ele>615.019043</ele>
        <time>2019-08-16T13:17:18.000Z</time>
      </trkpt>
      <trkpt lat="43.3090690" lon="-3.3753270">
        <ele>603.635010</ele>
        <time>2019-08-16T13:17:23.000Z</time>
      </trkpt>
      <trkpt lat="43.3092160" lon="-3.3759530">
        <ele>594.716980</ele>
        <time>2019-08-16T13:17:27.000Z</time>
      </trkpt>
      <trkpt lat="43.3092540" lon="-3.3760910">
        <ele>592.780029</ele>
        <time>2019-08-16T13:17:28.000Z</time>
      </trkpt>
      <trkpt lat="43.3095310" lon="-3.3768120">
        <ele>583.270996</ele>
        <time>2019-08-16T13:17:33.000Z</time>
      </trkpt>
      <trkpt lat="43.3098220" lon="-3.3775580">
        <ele>575.370972</ele>
        <time>2019-08-16T13:17:38.000Z</time>
      </trkpt>
      <trkpt lat="43.3101010" lon="-3.3783190">
        <ele>563.809998</ele>
        <time>2019-08-16T13:17:43.000Z</time>
      </trkpt>
      <trkpt lat="43.3103750" lon="-3.3790370">
        <ele>551.927002</ele>
        <time>2019-08-16T13:17:48.000Z</time>
      </trkpt>
      <trkpt lat="43.3104600" lon="-3.3793790">
        <ele>548.062012</ele>
        <time>2019-08-16T13:17:51.000Z</time>
      </trkpt>
      <trkpt lat="43.3104900" lon="-3.3794800">
        <ele>547.182983</ele>
        <time>2019-08-16T13:17:52.000Z</time>
      </trkpt>
      <trkpt lat="43.3105100" lon="-3.3798480">
        <ele>544.111023</ele>
        <time>2019-08-16T13:17:56.000Z</time>
      </trkpt>
      <trkpt lat="43.3104720" lon="-3.3801320">
        <ele>540.307983</ele>
        <time>2019-08-16T13:18:00.000Z</time>
      </trkpt>
      <trkpt lat="43.3104400" lon="-3.3803030">
        <ele>538.340027</ele>
        <time>2019-08-16T13:18:02.000Z</time>
      </trkpt>
      <trkpt lat="43.3104220" lon="-3.3804640">
        <ele>537.346008</ele>
        <time>2019-08-16T13:18:04.000Z</time>
      </trkpt>
      <trkpt lat="43.3103640" lon="-3.3805110">
        <ele>533.997986</ele>
        <time>2019-08-16T13:18:07.000Z</time>
      </trkpt>
      <trkpt lat="43.3103220" lon="-3.3804450">
        <ele>531.450989</ele>
        <time>2019-08-16T13:18:10.000Z</time>
      </trkpt>
      <trkpt lat="43.3102760" lon="-3.3803430">
        <ele>530.442017</ele>
        <time>2019-08-16T13:18:12.000Z</time>
      </trkpt>
      <trkpt lat="43.3101940" lon="-3.3802130">
        <ele>529.521973</ele>
        <time>2019-08-16T13:18:14.000Z</time>
      </trkpt>
      <trkpt lat="43.3099110" lon="-3.3799020">
        <ele>526.171021</ele>
        <time>2019-08-16T13:18:18.000Z</time>
      </trkpt>
      <trkpt lat="43.3096660" lon="-3.3796660">
        <ele>521.638000</ele>
        <time>2019-08-16T13:18:21.000Z</time>
      </trkpt>
      <trkpt lat="43.3093820" lon="-3.3796490">
        <ele>514.822021</ele>
        <time>2019-08-16T13:18:25.000Z</time>
      </trkpt>
      <trkpt lat="43.3092620" lon="-3.3798680">
        <ele>511.562012</ele>
        <time>2019-08-16T13:18:27.000Z</time>
      </trkpt>
      <trkpt lat="43.3091640" lon="-3.3800590">
        <ele>509.807983</ele>
        <time>2019-08-16T13:18:29.000Z</time>
      </trkpt>
      <trkpt lat="43.3090060" lon="-3.3801040">
        <ele>505.108002</ele>
        <time>2019-08-16T13:18:32.000Z</time>
      </trkpt>
      <trkpt lat="43.3088290" lon="-3.3799410">
        <ele>501.026001</ele>
        <time>2019-08-16T13:18:35.000Z</time>
      </trkpt>
      <trkpt lat="43.3087270" lon="-3.3799100">
        <ele>499.532013</ele>
        <time>2019-08-16T13:18:36.000Z</time>
      </trkpt>
      <trkpt lat="43.3083040" lon="-3.3801100">
        <ele>488.463989</ele>
        <time>2019-08-16T13:18:42.000Z</time>
      </trkpt>
      <trkpt lat="43.3082340" lon="-3.3803650">
        <ele>484.787018</ele>
        <time>2019-08-16T13:18:44.000Z</time>
      </trkpt>
      <trkpt lat="43.3081950" lon="-3.3804900">
        <ele>483.038025</ele>
        <time>2019-08-16T13:18:45.000Z</time>
      </trkpt>
      <trkpt lat="43.3081910" lon="-3.3810960">
        <ele>474.468018</ele>
        <time>2019-08-16T13:18:50.000Z</time>
      </trkpt>
      <trkpt lat="43.3082400" lon="-3.3813420">
        <ele>470.887024</ele>
        <time>2019-08-16T13:18:52.000Z</time>
      </trkpt>
      <trkpt lat="43.3084110" lon="-3.3817290">
        <ele>467.583984</ele>
        <time>2019-08-16T13:18:55.000Z</time>
      </trkpt>
      <trkpt lat="43.3085470" lon="-3.3820970">
        <ele>464.528992</ele>
        <time>2019-08-16T13:18:58.000Z</time>
      </trkpt>
      <trkpt lat="43.3088270" lon="-3.3828650">
        <ele>461.100006</ele>
        <time>2019-08-16T13:19:04.000Z</time>
      </trkpt>
      <trkpt lat="43.3088880" lon="-3.3829950">
        <ele>460.519989</ele>
        <time>2019-08-16T13:19:05.000Z</time>
      </trkpt>
      <trkpt lat="43.3090220" lon="-3.3832260">
        <ele>458.608002</ele>
        <time>2019-08-16T13:19:07.000Z</time>
      </trkpt>
      <trkpt lat="43.3091310" lon="-3.3836020">
        <ele>455.195984</ele>
        <time>2019-08-16T13:19:10.000Z</time>
      </trkpt>
      <trkpt lat="43.3092330" lon="-3.3840420">
        <ele>451.441986</ele>
        <time>2019-08-16T13:19:13.000Z</time>
      </trkpt>
      <trkpt lat="43.3094420" lon="-3.3844650">
        <ele>447.873993</ele>
        <time>2019-08-16T13:19:16.000Z</time>
      </trkpt>
      <trkpt lat="43.3096290" lon="-3.3849920">
        <ele>444.337006</ele>
        <time>2019-08-16T13:19:20.000Z</time>
      </trkpt>
      <trkpt lat="43.3095970" lon="-3.3854140">
        <ele>441.447998</ele>
        <time>2019-08-16T13:19:23.000Z</time>
      </trkpt>
      <trkpt lat="43.3095410" lon="-3.3856770">
        <ele>440.067993</ele>
        <time>2019-08-16T13:19:25.000Z</time>
      </trkpt>
      <trkpt lat="43.3094430" lon="-3.3865460">
        <ele>437.376984</ele>
        <time>2019-08-16T13:19:32.000Z</time>
      </trkpt>
      <trkpt lat="43.3094310" lon="-3.3866630">
        <ele>436.743988</ele>
        <time>2019-08-16T13:19:33.000Z</time>
      </trkpt>
      <trkpt lat="43.3092290" lon="-3.3873100">
        <ele>431.356995</ele>
        <time>2019-08-16T13:19:38.000Z</time>
      </trkpt>
      <trkpt lat="43.3090760" lon="-3.3879990">
        <ele>423.700012</ele>
        <time>2019-08-16T13:19:42.000Z</time>
      </trkpt>
      <trkpt lat="43.3090060" lon="-3.3885340">
        <ele>419.220001</ele>
        <time>2019-08-16T13:19:45.000Z</time>
      </trkpt>
      <trkpt lat="43.3090020" lon="-3.3887740">
        <ele>414.307983</ele>
        <time>2019-08-16T13:19:47.000Z</time>
      </trkpt>
      <trkpt lat="43.3090200" lon="-3.3889640">
        <ele>408.139008</ele>
        <time>2019-08-16T13:19:50.000Z</time>
      </trkpt>
      <trkpt lat="43.3090200" lon="-3.3890020">
        <ele>406.465027</ele>
        <time>2019-08-16T13:19:51.000Z</time>
      </trkpt>
      <trkpt lat="43.3089310" lon="-3.3889740">
        <ele>401.997009</ele>
        <time>2019-08-16T13:19:55.000Z</time>
      </trkpt>
      <trkpt lat="43.3088750" lon="-3.3888910">
        <ele>400.859985</ele>
        <time>2019-08-16T13:19:57.000Z</time>
      </trkpt>
      <trkpt lat="43.3086270" lon="-3.3885430">
        <ele>399.340973</ele>
        <time>2019-08-16T13:20:03.000Z</time>
      </trkpt>
      <trkpt lat="43.3085210" lon="-3.3883810">
        <ele>398.240997</ele>
        <time>2019-08-16T13:20:05.000Z</time>
      </trkpt>
      <trkpt lat="43.3083230" lon="-3.3881580">
        <ele>395.990021</ele>
        <time>2019-08-16T13:20:08.000Z</time>
      </trkpt>
      <trkpt lat="43.3081950" lon="-3.3879110">
        <ele>393.636993</ele>
        <time>2019-08-16T13:20:11.000Z</time>
      </trkpt>
      <trkpt lat="43.3081760" lon="-3.3878240">
        <ele>392.346985</ele>
        <time>2019-08-16T13:20:12.000Z</time>
      </trkpt>
      <trkpt lat="43.3080840" lon="-3.3877780">
        <ele>388.429016</ele>
        <time>2019-08-16T13:20:16.000Z</time>
      </trkpt>
      <trkpt lat="43.3080740" lon="-3.3879580">
        <ele>386.621002</ele>
        <time>2019-08-16T13:20:19.000Z</time>
      </trkpt>
      <trkpt lat="43.3081390" lon="-3.3883170">
        <ele>385.707977</ele>
        <time>2019-08-16T13:20:23.000Z</time>
      </trkpt>
      <trkpt lat="43.3081730" lon="-3.3883880">
        <ele>385.787994</ele>
        <time>2019-08-16T13:20:24.000Z</time>
      </trkpt>
      <trkpt lat="43.3082480" lon="-3.3885340">
        <ele>385.783997</ele>
        <time>2019-08-16T13:20:26.000Z</time>
      </trkpt>
      <trkpt lat="43.3083620" lon="-3.3891040">
        <ele>386.026001</ele>
        <time>2019-08-16T13:20:33.000Z</time>
      </trkpt>
      <trkpt lat="43.3083760" lon="-3.3891860">
        <ele>385.848999</ele>
        <time>2019-08-16T13:20:34.000Z</time>
      </trkpt>
      <trkpt lat="43.3085390" lon="-3.3895410">
        <ele>385.179993</ele>
        <time>2019-08-16T13:20:38.000Z</time>
      </trkpt>
      <trkpt lat="43.3087150" lon="-3.3897140">
        <ele>384.630005</ele>
        <time>2019-08-16T13:20:41.000Z</time>
      </trkpt>
      <trkpt lat="43.3091890" lon="-3.3899250">
        <ele>387.299011</ele>
        <time>2019-08-16T13:20:49.000Z</time>
      </trkpt>
      <trkpt lat="43.3095820" lon="-3.3900610">
        <ele>388.566010</ele>
        <time>2019-08-16T13:20:56.000Z</time>
      </trkpt>
      <trkpt lat="43.3101030" lon="-3.3902930">
        <ele>386.913971</ele>
        <time>2019-08-16T13:21:04.000Z</time>
      </trkpt>
      <trkpt lat="43.3102380" lon="-3.3903890">
        <ele>386.354004</ele>
        <time>2019-08-16T13:21:06.000Z</time>
      </trkpt>
      <trkpt lat="43.3104860" lon="-3.3906890">
        <ele>384.509003</ele>
        <time>2019-08-16T13:21:10.000Z</time>
      </trkpt>
      <trkpt lat="43.3107990" lon="-3.3909220">
        <ele>381.807983</ele>
        <time>2019-08-16T13:21:14.000Z</time>
      </trkpt>
      <trkpt lat="43.3113040" lon="-3.3911820">
        <ele>378.654999</ele>
        <time>2019-08-16T13:21:19.000Z</time>
      </trkpt>
      <trkpt lat="43.3120310" lon="-3.3916010">
        <ele>374.441010</ele>
        <time>2019-08-16T13:21:26.000Z</time>
      </trkpt>
      <trkpt lat="43.3123350" lon="-3.3917450">
        <ele>373.233002</ele>
        <time>2019-08-16T13:21:29.000Z</time>
      </trkpt>
      <trkpt lat="43.3126800" lon="-3.3920780">
        <ele>370.556000</ele>
        <time>2019-08-16T13:21:33.000Z</time>
      </trkpt>
      <trkpt lat="43.3128670" lon="-3.3924590">
        <ele>367.777008</ele>
        <time>2019-08-16T13:21:36.000Z</time>
      </trkpt>
      <trkpt lat="43.3131730" lon="-3.3932650">
        <ele>356.566986</ele>
        <time>2019-08-16T13:21:42.000Z</time>
      </trkpt>
      <trkpt lat="43.3134390" lon="-3.3938650">
        <ele>345.295990</ele>
        <time>2019-08-16T13:21:46.000Z</time>
      </trkpt>
      <trkpt lat="43.3136950" lon="-3.3944470">
        <ele>332.682983</ele>
        <time>2019-08-16T13:21:50.000Z</time>
      </trkpt>
      <trkpt lat="43.3137560" lon="-3.3945850">
        <ele>329.450989</ele>
        <time>2019-08-16T13:21:51.000Z</time>
      </trkpt>
      <trkpt lat="43.3139370" lon="-3.3952410">
        <ele>319.901001</ele>
        <time>2019-08-16T13:21:55.000Z</time>
      </trkpt>
      <trkpt lat="43.3140720" lon="-3.3958030">
        <ele>310.210999</ele>
        <time>2019-08-16T13:21:58.000Z</time>
      </trkpt>
      <trkpt lat="43.3141870" lon="-3.3962500">
        <ele>300.808014</ele>
        <time>2019-08-16T13:22:01.000Z</time>
      </trkpt>
      <trkpt lat="43.3141620" lon="-3.3967580">
        <ele>291.179016</ele>
        <time>2019-08-16T13:22:05.000Z</time>
      </trkpt>
      <trkpt lat="43.3140970" lon="-3.3968680">
        <ele>289.265015</ele>
        <time>2019-08-16T13:22:06.000Z</time>
      </trkpt>
      <trkpt lat="43.3138040" lon="-3.3975640">
        <ele>278.867004</ele>
        <time>2019-08-16T13:22:11.000Z</time>
      </trkpt>
      <trkpt lat="43.3137710" lon="-3.3976730">
        <ele>276.490021</ele>
        <time>2019-08-16T13:22:12.000Z</time>
      </trkpt>
      <trkpt lat="43.3136480" lon="-3.3977620">
        <ele>269.490997</ele>
        <time>2019-08-16T13:22:15.000Z</time>
      </trkpt>
      <trkpt lat="43.3135970" lon="-3.3976580">
        <ele>267.311005</ele>
        <time>2019-08-16T13:22:17.000Z</time>
      </trkpt>
      <trkpt lat="43.3135190" lon="-3.3975040">
        <ele>262.350006</ele>
        <time>2019-08-16T13:22:20.000Z</time>
      </trkpt>
      <trkpt lat="43.3133140" lon="-3.3975540">
        <ele>259.136993</ele>
        <time>2019-08-16T13:22:23.000Z</time>
      </trkpt>
      <trkpt lat="43.3131770" lon="-3.3975020">
        <ele>257.742004</ele>
        <time>2019-08-16T13:22:25.000Z</time>
      </trkpt>
      <trkpt lat="43.3128850" lon="-3.3973640">
        <ele>254.722000</ele>
        <time>2019-08-16T13:22:29.000Z</time>
      </trkpt>
      <trkpt lat="43.3127360" lon="-3.3978430">
        <ele>250.113998</ele>
        <time>2019-08-16T13:22:33.000Z</time>
      </trkpt>
      <trkpt lat="43.3127120" lon="-3.3980250">
        <ele>248.408005</ele>
        <time>2019-08-16T13:22:34.000Z</time>
      </trkpt>
      <trkpt lat="43.3123640" lon="-3.3987980">
        <ele>237.057999</ele>
        <time>2019-08-16T13:22:39.000Z</time>
      </trkpt>
      <trkpt lat="43.3122210" lon="-3.3990380">
        <ele>231.613998</ele>
        <time>2019-08-16T13:22:41.000Z</time>
      </trkpt>
      <trkpt lat="43.3121500" lon="-3.3992640">
        <ele>229.046005</ele>
        <time>2019-08-16T13:22:43.000Z</time>
      </trkpt>
      <trkpt lat="43.3120690" lon="-3.3995870">
        <ele>222.429016</ele>
        <time>2019-08-16T13:22:46.000Z</time>
      </trkpt>
      <trkpt lat="43.3119530" lon="-3.3996030">
        <ele>218.410004</ele>
        <time>2019-08-16T13:22:48.000Z</time>
      </trkpt>
      <trkpt lat="43.3118790" lon="-3.3995820">
        <ele>216.730011</ele>
        <time>2019-08-16T13:22:49.000Z</time>
      </trkpt>
      <trkpt lat="43.3116410" lon="-3.3996420">
        <ele>212.328995</ele>
        <time>2019-08-16T13:22:52.000Z</time>
      </trkpt>
      <trkpt lat="43.3117620" lon="-3.4000110">
        <ele>208.465988</ele>
        <time>2019-08-16T13:22:55.000Z</time>
      </trkpt>
      <trkpt lat="43.3119000" lon="-3.4002990">
        <ele>204.566986</ele>
        <time>2019-08-16T13:22:58.000Z</time>
      </trkpt>
      <trkpt lat="43.3118090" lon="-3.4004200">
        <ele>200.480988</ele>
        <time>2019-08-16T13:23:01.000Z</time>
      </trkpt>
      <trkpt lat="43.3116850" lon="-3.4003850">
        <ele>197.718994</ele>
        <time>2019-08-16T13:23:03.000Z</time>
      </trkpt>
      <trkpt lat="43.3114260" lon="-3.4003600">
        <ele>195.008011</ele>
        <time>2019-08-16T13:23:05.000Z</time>
      </trkpt>
      <trkpt lat="43.3109860" lon="-3.4005410">
        <ele>192.090012</ele>
        <time>2019-08-16T13:23:08.000Z</time>
      </trkpt>
      <trkpt lat="43.3104620" lon="-3.4008960">
        <ele>184.486008</ele>
        <time>2019-08-16T13:23:12.000Z</time>
      </trkpt>
      <trkpt lat="43.3101280" lon="-3.4013140">
        <ele>174.458008</ele>
        <time>2019-08-16T13:23:16.000Z</time>
      </trkpt>
      <trkpt lat="43.3101130" lon="-3.4017290">
        <ele>163.560989</ele>
        <time>2019-08-16T13:23:21.000Z</time>
      </trkpt>
      <trkpt lat="43.3103220" lon="-3.4019360">
        <ele>159.341995</ele>
        <time>2019-08-16T13:23:24.000Z</time>
      </trkpt>
      <trkpt lat="43.3104410" lon="-3.4019730">
        <ele>158.242004</ele>
        <time>2019-08-16T13:23:25.000Z</time>
      </trkpt>
      <trkpt lat="43.3106490" lon="-3.4020740">
        <ele>156.041000</ele>
        <time>2019-08-16T13:23:27.000Z</time>
      </trkpt>
      <trkpt lat="43.3110210" lon="-3.4024630">
        <ele>150.988007</ele>
        <time>2019-08-16T13:23:31.000Z</time>
      </trkpt>
      <trkpt lat="43.3113420" lon="-3.4028200">
        <ele>147.337997</ele>
        <time>2019-08-16T13:23:34.000Z</time>
      </trkpt>
      <trkpt lat="43.3114540" lon="-3.4029310">
        <ele>145.270004</ele>
        <time>2019-08-16T13:23:35.000Z</time>
      </trkpt>
      <trkpt lat="43.3118990" lon="-3.4032770">
        <ele>137.317001</ele>
        <time>2019-08-16T13:23:39.000Z</time>
      </trkpt>
      <trkpt lat="43.3122740" lon="-3.4034100">
        <ele>130.807999</ele>
        <time>2019-08-16T13:23:43.000Z</time>
      </trkpt>
      <trkpt lat="43.3124030" lon="-3.4035690">
        <ele>126.277000</ele>
        <time>2019-08-16T13:23:46.000Z</time>
      </trkpt>
      <trkpt lat="43.3123370" lon="-3.4037500">
        <ele>123.562996</ele>
        <time>2019-08-16T13:23:48.000Z</time>
      </trkpt>
      <trkpt lat="43.3121180" lon="-3.4039670">
        <ele>119.485008</ele>
        <time>2019-08-16T13:23:51.000Z</time>
      </trkpt>
      <trkpt lat="43.3119530" lon="-3.4042800">
        <ele>114.728004</ele>
        <time>2019-08-16T13:23:54.000Z</time>
      </trkpt>
      <trkpt lat="43.3119390" lon="-3.4043790">
        <ele>113.078995</ele>
        <time>2019-08-16T13:23:55.000Z</time>
      </trkpt>
      <trkpt lat="43.3119180" lon="-3.4048020">
        <ele>108.569000</ele>
        <time>2019-08-16T13:23:59.000Z</time>
      </trkpt>
      <trkpt lat="43.3119240" lon="-3.4049060">
        <ele>107.458000</ele>
        <time>2019-08-16T13:24:00.000Z</time>
      </trkpt>
      <trkpt lat="43.3120300" lon="-3.4053610">
        <ele>104.055000</ele>
        <time>2019-08-16T13:24:05.000Z</time>
      </trkpt>
      <trkpt lat="43.3120430" lon="-3.4054040">
        <ele>103.786003</ele>
        <time>2019-08-16T13:24:06.000Z</time>
      </trkpt>
      <trkpt lat="43.3123058" lon="-3.4057261">
        <ele>103.786003</ele>
        <time>2021-04-10T10:07:55.164Z</time>
      </trkpt>
      <trkpt lat="43.3123702" lon="-3.4058227">
        <ele>103.786003</ele>
        <time>2021-04-10T10:09:10.435Z</time>
      </trkpt>
      <trkpt lat="43.3124873" lon="-3.4059675">
        <ele>103.786003</ele>
        <time>2021-04-10T10:09:09.131Z</time>
      </trkpt>
      <trkpt lat="43.3126356" lon="-3.4060855">
        <ele>103.786003</ele>
        <time>2021-04-10T10:09:08.403Z</time>
      </trkpt>
      <trkpt lat="43.3127722" lon="-3.4061552">
        <ele>103.786003</ele>
        <time>2021-04-10T10:09:07.371Z</time>
      </trkpt>
      <trkpt lat="43.3128854" lon="-3.4061928">
        <ele>103.786003</ele>
        <time>2021-04-10T10:09:06.523Z</time>
      </trkpt>
      <trkpt lat="43.3130611" lon="-3.4062089">
        <ele>103.786003</ele>
        <time>2021-04-10T10:09:05.491Z</time>
      </trkpt>
      <trkpt lat="43.3133363" lon="-3.4062518">
        <ele>103.786003</ele>
        <time>2021-04-10T10:07:56.716Z</time>
      </trkpt>
      <trkpt lat="43.3139689" lon="-3.4063484">
        <ele>103.786003</ele>
        <time>2021-04-10T10:09:02.915Z</time>
      </trkpt>
      <trkpt lat="43.3142886" lon="-3.4063913">
        <ele>103.786003</ele>
        <time>2021-04-10T10:07:59.892Z</time>
      </trkpt>
      <trkpt lat="43.3145800" lon="-3.4065576">
        <ele>103.786003</ele>
        <time>2021-04-10T10:09:00.147Z</time>
      </trkpt>
      <trkpt lat="43.3147562" lon="-3.4066917">
        <ele>103.786003</ele>
        <time>2021-04-10T10:08:58.773Z</time>
      </trkpt>
      <trkpt lat="43.3149542" lon="-3.4069116">
        <ele>103.786003</ele>
        <time>2021-04-10T10:08:56.075Z</time>
      </trkpt>
      <trkpt lat="43.3151259" lon="-3.4071155">
        <ele>103.786003</ele>
        <time>2021-04-10T10:08:54.435Z</time>
      </trkpt>
      <trkpt lat="43.3152520" lon="-3.4073140">
        <ele>103.786003</ele>
        <time>2021-04-10T10:08:03.460Z</time>
      </trkpt>
      <trkpt lat="43.3153997" lon="-3.4076895">
        <ele>103.786003</ele>
        <time>2021-04-10T10:08:52.955Z</time>
      </trkpt>
      <trkpt lat="43.3155057" lon="-3.4080060">
        <ele>103.786003</ele>
        <time>2021-04-10T10:08:51.395Z</time>
      </trkpt>
      <trkpt lat="43.3156802" lon="-3.4083225">
        <ele>103.786003</ele>
        <time>2021-04-10T10:08:48.931Z</time>
      </trkpt>
      <trkpt lat="43.3157934" lon="-3.4084888">
        <ele>103.786003</ele>
        <time>2021-04-10T10:08:47.395Z</time>
      </trkpt>
      <trkpt lat="43.3160120" lon="-3.4087087">
        <ele>103.786003</ele>
        <time>2021-04-10T10:08:46.027Z</time>
      </trkpt>
      <trkpt lat="43.3162383" lon="-3.4090091">
        <ele>103.786003</ele>
        <time>2021-04-10T10:08:45.051Z</time>
      </trkpt>
      <trkpt lat="43.3165322" lon="-3.4095026">
        <ele>103.786003</ele>
        <time>2021-04-10T10:08:05.100Z</time>
      </trkpt>
      <trkpt lat="43.3167129" lon="-3.4098406">
        <ele>103.786003</ele>
        <time>2021-04-10T10:08:42.500Z</time>
      </trkpt>
      <trkpt lat="43.3169158" lon="-3.4100981">
        <ele>103.786003</ele>
        <time>2021-04-10T10:08:41.195Z</time>
      </trkpt>
      <trkpt lat="43.3171310" lon="-3.4104200">
        <ele>103.786003</ele>
        <time>2021-04-10T10:08:36.883Z</time>
      </trkpt>
      <trkpt lat="43.3172604" lon="-3.4106345">
        <ele>103.786003</ele>
        <time>2021-04-10T10:08:35.572Z</time>
      </trkpt>
      <trkpt lat="43.3173669" lon="-3.4107472">
        <ele>103.786003</ele>
        <time>2021-04-10T10:08:38.552Z</time>
      </trkpt>
      <trkpt lat="43.3174924" lon="-3.4108223">
        <ele>103.786003</ele>
        <time>2021-04-10T10:08:06.163Z</time>
      </trkpt>
      <trkpt lat="43.3176926" lon="-3.4109832">
        <ele>103.786003</ele>
        <time>2021-04-10T10:08:31.459Z</time>
      </trkpt>
      <trkpt lat="43.3179384" lon="-3.4111549">
        <ele>103.786003</ele>
        <time>2021-04-10T10:08:28.987Z</time>
      </trkpt>
      <trkpt lat="43.3179814" lon="-3.4112246">
        <ele>103.786003</ele>
        <time>2021-04-10T10:08:26.987Z</time>
      </trkpt>
      <trkpt lat="43.3179970" lon="-3.4113212">
        <ele>103.786003</ele>
        <time>2021-04-10T10:08:25.859Z</time>
      </trkpt>
      <trkpt lat="43.3180126" lon="-3.4114553">
        <ele>103.786003</ele>
        <time>2021-04-10T10:08:23.403Z</time>
      </trkpt>
      <trkpt lat="43.3180165" lon="-3.4115626">
        <ele>103.786003</ele>
        <time>2021-04-10T10:08:24.555Z</time>
      </trkpt>
      <trkpt lat="43.3180420" lon="-3.4116270">
        <ele>103.786003</ele>
        <time>2021-04-10T10:08:09.628Z</time>
      </trkpt>
      <trkpt lat="43.3183326" lon="-3.4116538">
        <ele>103.786003</ele>
        <time>2021-04-10T10:08:21.707Z</time>
      </trkpt>
      <trkpt lat="43.3185033" lon="-3.4116430">
        <ele>103.786003</ele>
        <time>2021-04-10T10:08:18.550Z</time>
      </trkpt>
      <trkpt lat="43.3186705" lon="-3.4116216">
        <ele>103.786003</ele>
        <time>2021-04-10T10:08:19.851Z</time>
      </trkpt>
      <trkpt lat="43.3188928" lon="-3.4115519">
        <ele>103.786003</ele>
        <time>2021-04-10T10:08:11.116Z</time>
      </trkpt>
    </trkseg>
  </trk>
</gpx>
